[[{"header":{"parameterUnit":"m.s-1","parameterCategory":1,"la1":31.0,"la2":29.5877,"lo1":-88.7671,"lo2":-86.6584,"dy":0.0162,"dx":0.0185,"nx":115,"ny":88,"refTime":"2026-04-05T00:00:00:Z","depth":0,"parameterNumber":2,"parameterNumberName":"U-component_of_WINDS"},"data":[0.0,0.0,0.0,0.0,0.0,0.0,0.0,0.0,0.0,0.0,0.0,0.0,0.0,0.0,0.0,0.0,0.0,0.0,0.0,0.0,0.0,0.0,0.0,0.0,0.0,0.0,0.0,0.0,0.0,0.0,0.0,0.0,0.0,0.0,0.0,0.0,0.0,0.0,0.0,0.0,0.0,0.0,0.0,0.0,0.0,0.0,0.0,0.0,0.0,0.0,0.0,0.0,0.0,0.0,0.0,0.0,0.0,0.0,0.0,0.0,0.0,0.0,0.0,0.0,0.0,0.0,0.0,0.0,0.0,0.0,0.0,0.0,0.0,0.0,0.0,0.0,0.0,0.0,0.0,0.0,0.0,0.0,0.0,0.0,0.0,0.0,0.0,0.0,0.0,0.0,0.0,0.0,0.0,0.0,0.0,0.0,0.0,0.0,0.0,0.0,0.0,0.0,0.0,0.0,0.0,0.0,0.0,0.0,0.0,0.0,0.0,0.0,0.0,0.0,0.0,0.0,0.0,0.0,0.0,0.0,0.0,0.0,0.0,0.0,0.0,0.0,0.0,0.0,0.0,0.0,0.0,0.0,0.0,0.0,0.0,0.0,0.0,0.0,0.0,0.0,0.0,0.0,0.0,0.0,0.0,0.0,0.0,0.0,0.0,0.0,0.0,0.0,0.0,0.0,0.0,0.0,0.0,0.0,0.0,0.0,0.0,0.0,0.0,0.0,0.0,0.0,0.0,0.0,0.0,0.0,0.0,0.0,0.0,0.0,0.0,0.0,0.0,0.0,0.0,0.0,0.0,0.0,0.0,0.0,0.0,0.0,0.0,0.0,0.0,0.0,0.0,0.0,0.0,0.0,0.0,0.0,0.0,0.0,0.0,0.0,0.0,0.0,0.0,0.0,0.0,0.0,0.0,0.0,0.0,0.0,0.0,0.0,0.0,0.0,0.0,0.0,0.0,0.0,0.0,0.0,0.0,0.0,0.0,0.0,0.0,0.0,0.0,0.0,0.0,0.0,0.0,0.0,0.0,0.0,0.0,0.0,0.0,0.0,0.0,0.0,0.0,0.0,0.0,0.0,0.0,0.0,0.0,0.0,0.0,0.0,0.0,0.0,0.0,0.0,0.0,0.0,0.0,0.0,0.0,0.0,0.0,0.0,0.0,0.0,0.0,0.0,0.0,0.0,0.0,0.0,0.0,0.0,0.0,0.0,0.0,0.0,0.0,0.0,0.0,0.0,0.0,0.0,0.0,0.0,0.0,0.0,0.0,0.0,0.0,0.0,0.0,0.0,0.0,0.0,0.0,0.0,0.0,0.0,0.0,0.0,0.0,0.0,0.0,0.0,0.0,0.0,0.0,0.0,0.0,0.0,0.0,0.0,0.0,0.0,0.0,0.0,0.0,0.0,0.0,0.0,0.0,0.0,0.0,0.0,0.0,0.0,0.0,0.0,0.0,0.0,0.0,0.0,0.0,0.0,0.0,0.0,0.0,0.0,0.0,0.0,0.0,0.0,0.0,0.0,0.0,0.0,0.0,0.0,0.0,0.0,0.0,0.0,0.0,0.0,0.0,0.0,0.0,0.0,0.0,0.0,0.0,0.0,0.0,0.0,0.0,0.0,0.0,0.0,0.0,0.0,0.0,0.0,0.0,0.0,0.0,0.0,0.0,0.0,0.0,0.0,0.0,0.0,0.0,0.0,0.0,0.0,0.0,0.0,0.0,0.0,0.0,0.0,0.0,0.0,0.0,0.0,0.0,0.0,0.0,0.0,0.0,0.0,0.0,0.0,0.0,0.0,0.0,0.0,0.0,0.0,0.0,0.0,0.0,0.0,0.0,0.0,0.0,0.0,0.0,0.0,0.0,0.0,0.0,0.0,0.0,0.0,0.0,0.0,0.0,0.0,0.0,0.0,0.0,0.0,0.0,0.0,0.0,0.0,0.0,0.0,0.0,0.0,0.0,0.0,0.0,0.0,0.0,0.0,0.0,0.0,0.0,0.0,0.0,0.0,0.0,0.0,0.0,0.0,0.0,0.0,0.0,0.0,0.0,0.0,0.0,0.0,0.0,0.0,0.0,0.0,0.0,0.0,0.0,0.0,0.0,0.0,0.0,0.0,0.0,0.0,0.0,0.0,0.0,0.0,0.0,0.0,0.0,0.0,0.0,0.0,0.0,0.0,0.0,0.0,0.0,0.0,0.0,0.0,0.0,0.0,0.0,0.0,0.0,0.0,0.0,0.0,0.0,0.0,0.0,0.0,0.0,0.0,0.0,0.0,0.0,0.0,0.0,0.0,0.0,0.0,0.0,0.0,0.0,0.0,0.0,0.0,0.0,0.0,0.0,0.0,0.0,0.0,0.0,0.0,0.0,0.0,0.0,0.0,0.0,0.0,0.0,0.0,0.0,0.0,0.0,0.0,0.0,0.0,0.0,0.0,0.0,0.0,0.0,0.0,0.0,0.0,0.0,0.0,0.0,0.0,0.0,0.0,0.0,0.0,0.0,0.0,0.0,0.0,0.0,0.0,0.0,0.0,0.0,0.0,0.0,0.0,0.0,0.0,0.0,0.0,0.0,0.0,0.0,0.0,0.0,0.0,0.0,0.0,0.0,0.0,0.0,0.0,0.0,0.0,0.0,0.0,0.0,0.0,0.0,0.0,0.0,0.0,0.0,0.0,0.0,0.0,0.0,0.0,0.0,0.0,0.0,0.0,0.0,0.0,0.0,0.0,0.0,0.0,0.0,0.0,0.0,0.0,0.0,0.0,0.0,0.0,0.0,0.0,0.0,0.0,0.0,0.0,0.0,0.0,0.0,0.0,0.0,0.0,0.0,0.0,0.0,0.0,0.0,0.0,0.0,0.0,0.0,0.0,0.0,0.0,0.0,0.0,0.0,0.0,0.0,0.0,0.0,0.0,0.0,0.0,0.0,0.0,0.0,0.0,0.0,0.0,0.0,0.0,0.0,0.0,0.0,0.0,0.0,0.0,0.0,0.0,0.0,0.0,0.0,0.0,0.0,0.0,0.0,0.0,0.0,0.0,0.0,0.0,0.0,0.0,0.0,0.0,0.0,0.0,0.0,0.0,0.0,0.0,0.0,0.0,0.0,0.0,0.0,0.0,0.0,0.0,0.0,0.0,0.0,0.0,0.0,0.0,0.0,0.0,0.0,0.0,0.0,0.0,0.0,0.0,0.0,0.0,0.0,0.0,0.0,0.0,0.0,0.0,0.0,0.0,0.0,0.0,0.0,0.0,0.0,0.0,0.0,0.0,0.0,0.0,0.0,0.0,0.0,0.0,0.0,0.0,0.0,0.0,0.0,0.0,0.0,0.0,0.0,0.0,0.0,0.0,0.0,0.0,0.0,0.0,0.0,0.0,0.0,0.0,0.0,0.0,0.0,0.0,0.0,0.0,0.0,0.0,0.0,0.0,0.0,0.0,0.0,0.0,0.0,0.0,0.0,0.0,0.0,0.0,0.0,0.0,0.0,0.0,0.0,0.0,0.0,0.0,0.0,0.0,0.0,0.0,0.0,0.0,0.0,0.0,0.0,0.0,0.0,0.0,0.0,0.0,0.0,0.0,0.0,0.0,0.0,0.0,0.0,0.0,0.0,0.0,0.0,0.0,0.0,0.0,0.0,0.0,0.0,0.0,0.0,0.0,0.0,0.0,0.0,0.0,0.0,0.0,0.0,0.0,0.0,0.0,0.0,0.0,0.0,0.0,0.0,0.0,0.0,0.0,0.0,0.0,0.0,0.0,0.0,0.0,0.0,0.0,0.0,0.0,0.0,0.0,0.0,0.0,0.0,0.0,0.0,0.0,0.0,0.0,0.0,0.0,0.0,0.0,0.0,0.0,0.0,0.0,0.0,0.0,0.0,0.0,0.0,0.0,0.0,0.0,0.0,0.0,0.0,0.0,0.0,0.0,0.0,0.0,0.0,0.0,0.0,0.0,0.0,0.0,0.0,0.0,0.0,0.0,0.0,0.0,0.0,0.0,0.0,0.0,0.0,0.0,0.0,0.0,0.0,0.0,0.0,0.0,0.0,0.0,0.0,0.0,0.0,0.0,0.0,0.0,0.0,0.0,0.0,0.0,0.0,0.0,0.0,0.0,0.0,0.0,0.0,0.0,0.0,0.0,0.0,0.0,0.0,0.0,0.0,0.0,0.0,0.0,0.0,0.0,0.0,0.0,0.0,0.0,0.0,0.0,0.0,0.0,0.0,0.0,0.0,0.0,0.0,0.0,0.0,0.0,0.0,0.0,0.0,0.0,0.0,0.0,4.837,0.0,0.0,0.0,0.0,0.0,0.0,0.0,0.0,0.0,0.0,0.0,0.0,0.0,0.0,0.0,0.0,0.0,0.0,0.0,0.0,0.0,0.0,0.0,0.0,0.0,0.0,0.0,0.0,0.0,0.0,0.0,0.0,0.0,0.0,0.0,0.0,0.0,0.0,0.0,0.0,0.0,0.0,0.0,0.0,0.0,0.0,0.0,0.0,0.0,0.0,0.0,0.0,0.0,0.0,0.0,0.0,0.0,0.0,0.0,0.0,0.0,0.0,0.0,0.0,0.0,0.0,0.0,0.0,0.0,0.0,0.0,0.0,0.0,0.0,0.0,0.0,0.0,0.0,0.0,0.0,0.0,0.0,0.0,0.0,0.0,0.0,0.0,0.0,0.0,0.0,0.0,0.0,0.0,0.0,0.0,0.0,0.0,0.0,0.0,0.0,0.0,0.0,0.0,0.0,0.0,0.0,0.0,0.0,0.0,0.0,5.3036,5.2632,5.1458,5.043,4.9659,0.0,0.0,0.0,0.0,0.0,0.0,0.0,0.0,0.0,0.0,0.0,0.0,0.0,0.0,0.0,0.0,0.0,0.0,0.0,0.0,0.0,0.0,0.0,0.0,0.0,0.0,0.0,0.0,0.0,0.0,0.0,0.0,0.0,0.0,0.0,0.0,0.0,0.0,0.0,0.0,0.0,0.0,0.0,0.0,0.0,0.0,0.0,0.0,0.0,0.0,0.0,0.0,0.0,0.0,0.0,0.0,0.0,0.0,0.0,0.0,0.0,0.0,0.0,0.0,0.0,0.0,0.0,0.0,0.0,0.0,0.0,0.0,0.0,0.0,0.0,0.0,0.0,0.0,0.0,0.0,0.0,0.0,0.0,0.0,0.0,0.0,0.0,0.0,0.0,0.0,0.0,0.0,0.0,0.0,0.0,0.0,0.0,0.0,0.0,0.0,0.0,0.0,0.0,0.0,0.0,0.0,0.0,0.0,0.0,0.0,0.0,0.0,5.2082,5.098,5.021,0.0,0.0,0.0,0.0,0.0,0.0,0.0,0.0,0.0,0.0,0.0,0.0,0.0,0.0,0.0,0.0,0.0,0.0,0.0,0.0,0.0,0.0,0.0,0.0,0.0,0.0,0.0,0.0,0.0,0.0,0.0,0.0,0.0,0.0,0.0,0.0,0.0,0.0,0.0,0.0,0.0,0.0,0.0,0.0,0.0,0.0,0.0,0.0,0.0,0.0,0.0,0.0,0.0,0.0,0.0,0.0,0.0,0.0,0.0,0.0,0.0,0.0,0.0,0.0,0.0,0.0,0.0,0.0,0.0,0.0,0.0,0.0,0.0,0.0,0.0,0.0,0.0,0.0,0.0,0.0,0.0,0.0,0.0,0.0,0.0,0.0,0.0,0.0,0.0,0.0,0.0,0.0,0.0,0.0,0.0,0.0,0.0,0.0,0.0,0.0,0.0,0.0,0.0,0.0,0.0,0.0,0.0,0.0,0.0,0.0,5.3544,5.4252,5.3398,0.0,4.8815,0.0,0.0,0.0,0.0,0.0,0.0,0.0,0.0,0.0,0.0,0.0,0.0,0.0,0.0,0.0,0.0,0.0,0.0,0.0,0.0,0.0,0.0,0.0,0.0,0.0,0.0,0.0,0.0,0.0,0.0,0.0,0.0,0.0,0.0,0.0,0.0,0.0,0.0,0.0,0.0,0.0,0.0,0.0,0.0,0.0,0.0,0.0,0.0,0.0,0.0,0.0,0.0,0.0,0.0,0.0,0.0,0.0,0.0,0.0,0.0,0.0,0.0,0.0,0.0,0.0,0.0,0.0,0.0,0.0,0.0,0.0,0.0,0.0,0.0,0.0,0.0,0.0,0.0,0.0,0.0,0.0,0.0,0.0,0.0,0.0,0.0,0.0,0.0,0.0,0.0,0.0,0.0,0.0,0.0,0.0,0.0,0.0,0.0,0.0,0.0,0.0,0.0,0.0,0.0,0.0,0.0,0.0,0.0,0.0,0.0,0.0,5.4394,5.2706,5.0687,0.0,0.0,0.0,0.0,0.0,0.0,0.0,0.0,0.0,0.0,0.0,0.0,0.0,0.0,0.0,0.0,0.0,0.0,0.0,0.0,0.0,0.0,0.0,0.0,0.0,0.0,0.0,0.0,0.0,0.0,0.0,0.0,0.0,0.0,0.0,0.0,0.0,0.0,0.0,0.0,0.0,0.0,0.0,0.0,0.0,0.0,0.0,0.0,0.0,0.0,0.0,0.0,0.0,0.0,0.0,0.0,0.0,0.0,0.0,0.0,0.0,0.0,0.0,0.0,0.0,0.0,0.0,0.0,0.0,0.0,0.0,0.0,0.0,0.0,0.0,0.0,0.0,0.0,0.0,0.0,0.0,0.0,0.0,0.0,0.0,0.0,0.0,0.0,0.0,0.0,0.0,0.0,0.0,0.0,0.0,0.0,0.0,0.0,0.0,0.0,0.0,0.0,0.0,0.0,0.0,0.0,0.0,0.0,0.0,0.0,5.4216,0.0,5.4326,5.2711,5.0687,4.837,0.0,0.0,0.0,0.0,0.0,0.0,0.0,0.0,0.0,0.0,0.0,0.0,0.0,0.0,0.0,0.0,0.0,0.0,0.0,0.0,0.0,0.0,0.0,0.0,0.0,0.0,0.0,0.0,0.0,0.0,0.0,0.0,0.0,0.0,0.0,0.0,0.0,0.0,0.0,0.0,0.0,0.0,0.0,0.0,0.0,0.0,0.0,0.0,0.0,0.0,0.0,0.0,0.0,0.0,0.0,0.0,0.0,0.0,0.0,0.0,0.0,0.0,0.0,0.0,0.0,0.0,0.0,0.0,0.0,0.0,0.0,0.0,0.0,0.0,0.0,0.0,0.0,0.0,0.0,0.0,0.0,0.0,0.0,0.0,0.0,0.0,0.0,0.0,0.0,0.0,0.0,0.0,0.0,0.0,0.0,0.0,0.0,0.0,0.0,0.0,0.0,0.0,0.0,0.0,0.0,0.0,0.0,0.0,0.0,5.4735,5.4399,5.4436,5.4295,5.238,0.0,0.0,0.0,0.0,0.0,0.0,0.0,0.0,0.0,0.0,0.0,0.0,0.0,0.0,0.0,0.0,0.0,0.0,0.0,0.0,0.0,0.0,0.0,0.0,0.0,0.0,0.0,0.0,0.0,0.0,0.0,0.0,0.0,0.0,0.0,0.0,0.0,0.0,0.0,0.0,0.0,0.0,0.0,0.0,0.0,0.0,0.0,0.0,0.0,0.0,0.0,0.0,0.0,0.0,0.0,0.0,0.0,0.0,0.0,0.0,0.0,0.0,0.0,0.0,0.0,0.0,0.0,0.0,0.0,0.0,0.0,0.0,0.0,0.0,0.0,0.0,0.0,0.0,0.0,0.0,0.0,0.0,0.0,0.0,0.0,0.0,0.0,0.0,0.0,0.0,0.0,0.0,0.0,0.0,0.0,0.0,0.0,0.0,0.0,0.0,0.0,0.0,0.0,0.0,0.0,0.0,0.0,0.0,0.0,5.4027,5.3765,5.4399,5.5752,5.2412,5.0283,0.0,0.0,0.0,0.0,0.0,0.0,0.0,0.0,0.0,0.0,0.0,0.0,0.0,0.0,0.0,0.0,0.0,0.0,0.0,0.0,0.0,0.0,0.0,0.0,0.0,0.0,0.0,0.0,0.0,0.0,0.0,0.0,0.0,0.0,0.0,0.0,0.0,0.0,0.0,0.0,0.0,0.0,0.0,0.0,0.0,0.0,0.0,0.0,0.0,0.0,0.0,0.0,0.0,0.0,0.0,0.0,0.0,0.0,0.0,0.0,0.0,0.0,0.0,0.0,0.0,0.0,0.0,0.0,0.0,0.0,0.0,0.0,0.0,0.0,0.0,0.0,0.0,0.0,0.0,0.0,0.0,0.0,0.0,0.0,0.0,0.0,0.0,0.0,0.0,0.0,0.0,0.0,0.0,0.0,0.0,0.0,0.0,0.0,0.0,0.0,0.0,0.0,0.0,0.0,0.0,0.0,0.0,0.0,0.0,5.3586,0.0,5.4798,0.0,5.1678,4.9402,0.0,0.0,0.0,0.0,0.0,0.0,0.0,0.0,0.0,0.0,0.0,0.0,0.0,0.0,0.0,0.0,0.0,0.0,0.0,0.0,0.0,0.0,0.0,0.0,0.0,0.0,0.0,0.0,0.0,0.0,0.0,0.0,0.0,0.0,0.0,0.0,0.0,0.0,0.0,0.0,0.0,0.0,0.0,0.0,0.0,0.0,0.0,0.0,0.0,0.0,0.0,0.0,0.0,0.0,0.0,0.0,0.0,0.0,0.0,0.0,0.0,0.0,0.0,0.0,0.0,0.0,0.0,0.0,0.0,0.0,0.0,0.0,0.0,0.0,0.0,0.0,0.0,0.0,0.0,0.0,0.0,0.0,0.0,0.0,0.0,0.0,0.0,0.0,0.0,0.0,0.0,0.0,0.0,0.0,0.0,0.0,0.0,0.0,0.0,0.0,0.0,0.0,0.0,0.0,0.0,0.0,0.0,0.0,5.2826,5.432,5.5862,5.5568,5.3361,5.2349,5.0041,0.0,0.0,0.0,0.0,0.0,0.0,0.0,0.0,0.0,0.0,0.0,0.0,0.0,0.0,0.0,0.0,0.0,0.0,0.0,0.0,0.0,0.0,0.0,0.0,0.0,0.0,0.0,0.0,0.0,0.0,0.0,0.0,0.0,0.0,0.0,0.0,0.0,0.0,0.0,0.0,0.0,0.0,0.0,0.0,0.0,0.0,0.0,0.0,0.0,0.0,0.0,0.0,0.0,0.0,0.0,0.0,0.0,0.0,0.0,0.0,0.0,0.0,0.0,0.0,0.0,0.0,0.0,0.0,0.0,0.0,0.0,0.0,0.0,0.0,0.0,0.0,0.0,0.0,0.0,0.0,0.0,0.0,0.0,0.0,0.0,0.0,0.0,0.0,0.0,0.0,0.0,0.0,0.0,0.0,0.0,0.0,0.0,0.0,0.0,0.0,0.0,0.0,0.0,0.0,0.0,0.0,0.0,0.0,0.0,5.3581,5.4614,5.5311,5.5563,5.2207,5.0004,0.0,0.0,0.0,0.0,0.0,0.0,0.0,0.0,0.0,0.0,0.0,0.0,0.0,0.0,0.0,0.0,0.0,0.0,0.0,0.0,0.0,0.0,0.0,0.0,0.0,0.0,0.0,0.0,0.0,0.0,0.0,0.0,0.0,0.0,0.0,0.0,0.0,0.0,0.0,0.0,0.0,0.0,0.0,0.0,0.0,0.0,0.0,0.0,0.0,0.0,0.0,0.0,0.0,0.0,0.0,0.0,0.0,0.0,0.0,0.0,0.0,0.0,0.0,0.0,0.0,0.0,0.0,0.0,0.0,0.0,0.0,0.0,0.0,0.0,0.0,0.0,0.0,0.0,0.0,0.0,0.0,0.0,0.0,0.0,0.0,0.0,0.0,0.0,0.0,0.0,0.0,0.0,0.0,0.0,0.0,0.0,0.0,0.0,0.0,0.0,0.0,0.0,0.0,0.0,0.0,0.0,0.0,0.0,0.0,5.4609,5.5935,5.6822,5.7226,5.345,5.1064,5.033,0.0,0.0,0.0,0.0,0.0,0.0,0.0,0.0,0.0,0.0,0.0,0.0,0.0,0.0,0.0,0.0,0.0,0.0,0.0,0.0,0.0,0.0,0.0,0.0,0.0,0.0,0.0,0.0,0.0,0.0,0.0,0.0,0.0,0.0,0.0,0.0,0.0,0.0,0.0,0.0,0.0,0.0,0.0,0.0,0.0,0.0,0.0,0.0,0.0,0.0,0.0,0.0,0.0,0.0,0.0,0.0,0.0,0.0,0.0,0.0,0.0,0.0,0.0,0.0,0.0,0.0,0.0,0.0,0.0,0.0,0.0,0.0,0.0,0.0,0.0,0.0,0.0,0.0,0.0,0.0,0.0,0.0,0.0,0.0,0.0,0.0,0.0,0.0,0.0,0.0,0.0,0.0,0.0,0.0,0.0,0.0,0.0,0.0,0.0,0.0,0.0,0.0,0.0,0.0,0.0,0.0,0.0,0.0,5.7068,5.9422,5.9869,5.8259,5.5836,5.3046,0.0,0.0,0.0,0.0,0.0,0.0,0.0,0.0,0.0,0.0,0.0,0.0,0.0,0.0,0.0,0.0,0.0,0.0,0.0,0.0,0.0,0.0,0.0,0.0,0.0,0.0,0.0,0.0,0.0,0.0,0.0,0.0,0.0,0.0,0.0,0.0,0.0,0.0,0.0,0.0,0.0,0.0,0.0,0.0,0.0,0.0,0.0,0.0,0.0,0.0,0.0,0.0,0.0,0.0,0.0,0.0,0.0,0.0,0.0,0.0,0.0,0.0,0.0,0.0,0.0,0.0,0.0,0.0,0.0,0.0,0.0,0.0,0.0,0.0,0.0,0.0,0.0,0.0,0.0,0.0,0.0,0.0,0.0,0.0,0.0,0.0,0.0,0.0,0.0,0.0,0.0,0.0,0.0,0.0,0.0,0.0,0.0,0.0,0.0,0.0,0.0,0.0,0.0,0.0,0.0,0.0,0.0,0.0,0.0,6.0315,6.2719,6.2946,6.0682,5.774,5.4939,0.0,0.0,0.0,0.0,0.0,0.0,0.0,0.0,0.0,0.0,0.0,0.0,0.0,0.0,0.0,0.0,0.0,0.0,0.0,0.0,0.0,0.0,0.0,0.0,0.0,0.0,0.0,0.0,0.0,0.0,0.0,0.0,0.0,0.0,0.0,0.0,0.0,0.0,0.0,0.0,0.0,0.0,0.0,0.0,0.0,0.0,0.0,0.0,0.0,0.0,0.0,0.0,0.0,0.0,0.0,0.0,0.0,0.0,0.0,0.0,0.0,0.0,0.0,0.0,0.0,0.0,0.0,0.0,0.0,0.0,0.0,0.0,0.0,0.0,0.0,0.0,0.0,0.0,0.0,0.0,0.0,0.0,0.0,0.0,0.0,0.0,0.0,0.0,0.0,0.0,0.0,0.0,0.0,0.0,0.0,0.0,0.0,0.0,0.0,0.0,0.0,0.0,0.0,0.0,0.0,0.0,0.0,0.0,5.9385,6.2597,6.4707,6.5448,6.4677,6.086,5.7373,0.0,0.0,0.0,0.0,0.0,0.0,0.0,0.0,0.0,0.0,0.0,0.0,0.0,0.0,0.0,0.0,0.0,0.0,0.0,0.0,0.0,0.0,0.0,0.0,0.0,0.0,0.0,0.0,0.0,0.0,0.0,0.0,0.0,0.0,0.0,0.0,0.0,0.0,0.0,0.0,0.0,0.0,0.0,0.0,0.0,0.0,0.0,0.0,0.0,0.0,0.0,0.0,0.0,0.0,0.0,0.0,0.0,0.0,0.0,0.0,0.0,0.0,0.0,0.0,0.0,0.0,0.0,0.0,0.0,0.0,0.0,0.0,0.0,0.0,0.0,0.0,0.0,0.0,0.0,0.0,0.0,0.0,0.0,0.0,0.0,0.0,0.0,0.0,0.0,0.0,0.0,0.0,0.0,0.0,0.0,0.0,0.0,0.0,0.0,0.0,0.0,0.0,0.0,0.0,0.0,0.0,0.0,0.0,6.1251,6.4433,6.6035,6.7504,6.8708,6.417,5.9801,0.0,0.0,0.0,0.0,0.0,0.0,0.0,0.0,0.0,0.0,0.0,0.0,0.0,0.0,0.0,0.0,0.0,0.0,0.0,0.0,0.0,0.0,0.0,0.0,0.0,0.0,0.0,0.0,0.0,0.0,0.0,0.0,0.0,0.0,0.0,0.0,0.0,0.0,0.0,0.0,0.0,0.0,0.0,0.0,0.0,0.0,0.0,0.0,0.0,0.0,0.0,0.0,0.0,0.0,0.0,0.0,0.0,0.0,0.0,0.0,0.0,0.0,0.0,0.0,0.0,0.0,0.0,0.0,0.0,0.0,0.0,0.0,0.0,0.0,0.0,0.0,0.0,0.0,0.0,0.0,0.0,0.0,0.0,0.0,0.0,0.0,0.0,0.0,0.0,0.0,0.0,0.0,0.0,0.0,0.0,0.0,0.0,0.0,0.0,0.0,0.0,0.0,0.0,0.0,0.0,0.0,0.0,0.0,6.4316,6.6849,6.8501,6.9192,6.8892,6.417,6.0315,0.0,0.0,0.0,0.0,0.0,0.0,0.0,0.0,0.0,0.0,0.0,0.0,0.0,0.0,0.0,0.0,0.0,0.0,0.0,0.0,0.0,0.0,0.0,0.0,0.0,0.0,0.0,0.0,0.0,0.0,0.0,0.0,0.0,0.0,0.0,0.0,0.0,0.0,0.0,0.0,0.0,0.0,0.0,0.0,0.0,0.0,0.0,0.0,5.1783,0.0,0.0,0.0,0.0,0.0,0.0,0.0,0.0,0.0,0.0,0.0,0.0,0.0,0.0,0.0,0.0,0.0,0.0,0.0,0.0,0.0,0.0,0.0,0.0,0.0,0.0,0.0,0.0,0.0,0.0,0.0,0.0,0.0,0.0,0.0,0.0,0.0,0.0,0.0,0.0,0.0,0.0,0.0,0.0,0.0,0.0,0.0,0.0,0.0,0.0,0.0,0.0,0.0,0.0,0.0,0.0,0.0,0.0,0.0,6.6005,6.9823,7.077,7.1027,7.0477,6.6256,6.2218,0.0,0.0,0.0,0.0,0.0,0.0,0.0,0.0,0.0,0.0,0.0,0.0,0.0,0.0,0.0,0.0,0.0,0.0,0.0,0.0,0.0,0.0,0.0,0.0,0.0,0.0,0.0,0.0,0.0,0.0,0.0,0.0,0.0,0.0,0.0,0.0,0.0,0.0,0.0,0.0,0.0,0.0,0.0,0.0,0.0,0.0,0.0,0.0,0.0,0.0,0.0,0.0,0.0,0.0,0.0,0.0,0.0,0.0,0.0,0.0,0.0,0.0,0.0,0.0,0.0,0.0,0.0,0.0,0.0,0.0,0.0,0.0,0.0,0.0,0.0,0.0,0.0,0.0,0.0,0.0,0.0,0.0,0.0,0.0,0.0,0.0,0.0,0.0,0.0,0.0,0.0,0.0,0.0,0.0,0.0,0.0,0.0,0.0,0.0,0.0,0.0,0.0,0.0,0.0,0.0,0.0,0.0,6.2958,6.7173,7.2562,7.2855,7.2753,7.2452,6.8605,6.4267,5.96,0.0,0.0,0.0,0.0,0.0,0.0,0.0,0.0,0.0,0.0,0.0,0.0,0.0,0.0,0.0,0.0,0.0,0.0,0.0,0.0,0.0,0.0,0.0,0.0,0.0,0.0,0.0,0.0,0.0,0.0,0.0,0.0,0.0,0.0,0.0,0.0,0.0,0.0,4.9255,5.182,0.0,0.0,0.0,0.0,0.0,0.0,0.0,0.0,5.3361,0.0,0.0,0.0,0.0,0.0,0.0,0.0,0.0,0.0,0.0,0.0,0.0,0.0,0.0,0.0,0.0,0.0,0.0,0.0,0.0,0.0,0.0,0.0,0.0,0.0,0.0,0.0,0.0,0.0,0.0,0.0,0.0,0.0,0.0,0.0,0.0,0.0,0.0,0.0,0.0,0.0,0.0,0.0,0.0,0.0,0.0,0.0,0.0,0.0,0.0,0.0,0.0,0.0,0.0,0.0,0.0,6.3221,6.5161,6.8825,7.4316,7.4507,7.3846,7.2459,6.8605,6.453,6.0376,0.0,0.0,0.0,0.0,0.0,0.0,0.0,0.0,0.0,0.0,0.0,0.0,0.0,0.0,0.0,0.0,0.0,0.0,0.0,0.0,0.0,0.0,0.0,0.0,0.0,0.0,0.0,0.0,0.0,0.0,0.0,0.0,0.0,0.0,0.0,0.0,0.0,0.0,0.0,5.4887,5.5249,0.0,0.0,0.0,0.0,0.0,0.0,0.0,0.0,5.3697,0.0,0.0,0.0,0.0,0.0,0.0,0.0,0.0,0.0,0.0,0.0,0.0,0.0,0.0,0.0,0.0,0.0,0.0,0.0,0.0,0.0,0.0,0.0,0.0,0.0,0.0,0.0,0.0,0.0,0.0,0.0,0.0,0.0,0.0,0.0,0.0,0.0,0.0,0.0,0.0,0.0,0.0,0.0,0.0,0.0,0.0,0.0,0.0,0.0,0.0,0.0,0.0,0.0,0.0,0.0,6.4457,6.7136,7.091,7.5931,7.6151,7.4977,7.2525,6.9015,6.5007,0.0,0.0,0.0,0.0,0.0,0.0,0.0,0.0,0.0,0.0,0.0,0.0,0.0,0.0,0.0,0.0,0.0,0.0,0.0,0.0,0.0,0.0,0.0,0.0,0.0,0.0,0.0,0.0,0.0,0.0,0.0,0.0,0.0,0.0,0.0,0.0,0.0,0.0,0.0,0.0,5.6319,5.6828,5.6828,0.0,0.0,0.0,0.0,0.0,0.0,5.4252,5.3581,0.0,0.0,0.0,0.0,0.0,0.0,0.0,0.0,0.0,0.0,0.0,0.0,0.0,0.0,0.0,0.0,0.0,0.0,0.0,0.0,0.0,0.0,0.0,0.0,0.0,0.0,0.0,0.0,0.0,0.0,0.0,0.0,0.0,0.0,0.0,0.0,0.0,0.0,0.0,0.0,0.0,0.0,0.0,0.0,0.0,0.0,0.0,0.0,0.0,0.0,0.0,0.0,0.0,0.0,0.0,6.5441,6.8862,7.2855,7.7326,7.7546,7.5968,7.2562,6.9382,6.5418,0.0,0.0,0.0,0.0,0.0,0.0,0.0,0.0,0.0,0.0,0.0,0.0,0.0,0.0,0.0,0.0,0.0,0.0,0.0,0.0,0.0,0.0,0.0,0.0,0.0,0.0,0.0,0.0,0.0,0.0,0.0,0.0,0.0,0.0,0.0,0.0,0.0,0.0,0.0,0.0,0.0,5.848,5.8474,5.7519,0.0,0.0,0.0,0.0,5.6025,5.5537,0.0,0.0,0.0,0.0,0.0,0.0,0.0,0.0,0.0,0.0,0.0,0.0,0.0,0.0,0.0,0.0,0.0,0.0,0.0,0.0,0.0,0.0,0.0,0.0,0.0,0.0,0.0,0.0,0.0,0.0,0.0,0.0,0.0,0.0,0.0,0.0,0.0,0.0,0.0,0.0,0.0,0.0,0.0,0.0,0.0,0.0,0.0,0.0,0.0,0.0,0.0,0.0,0.0,0.0,0.0,0.0,6.6292,7.022,7.4258,7.8222,7.845,7.6533,7.2606,6.9382,6.5381,0.0,0.0,0.0,0.0,0.0,0.0,0.0,0.0,0.0,0.0,0.0,0.0,0.0,0.0,0.0,0.0,0.0,0.0,0.0,0.0,0.0,0.0,0.0,0.0,0.0,0.0,0.0,0.0,0.0,0.0,0.0,0.0,0.0,0.0,0.0,0.0,0.0,0.0,0.0,0.0,0.0,6.0126,6.012,5.8211,5.6963,0.0,0.0,5.8425,5.7819,5.9936,0.0,0.0,0.0,0.0,0.0,0.0,0.0,0.0,0.0,0.0,0.0,0.0,0.0,0.0,0.0,0.0,0.0,0.0,0.0,0.0,0.0,0.0,0.0,0.0,0.0,0.0,0.0,0.0,0.0,0.0,0.0,0.0,0.0,0.0,0.0,0.0,0.0,0.0,0.0,0.0,0.0,0.0,0.0,0.0,0.0,0.0,0.0,0.0,0.0,0.0,0.0,0.0,0.0,0.0,0.0,6.2505,6.6512,7.1798,7.6093,7.9147,7.8817,7.6871,7.3266,6.9199,6.4714,0.0,0.0,0.0,0.0,0.0,0.0,0.0,0.0,0.0,0.0,0.0,0.0,0.0,0.0,0.0,0.0,0.0,0.0,0.0,0.0,0.0,0.0,0.0,0.0,0.0,0.0,0.0,0.0,0.0,0.0,0.0,0.0,0.0,0.0,0.0,0.0,0.0,0.0,0.0,0.0,0.0,0.0,6.1006,6.0193,0.0,0.0,0.0,6.0621,5.8945,0.0,0.0,0.0,0.0,0.0,0.0,0.0,0.0,0.0,0.0,0.0,0.0,0.0,0.0,0.0,0.0,0.0,0.0,0.0,0.0,0.0,0.0,0.0,0.0,0.0,0.0,0.0,0.0,0.0,0.0,0.0,0.0,0.0,0.0,0.0,0.0,0.0,0.0,0.0,0.0,0.0,0.0,0.0,0.0,0.0,0.0,0.0,0.0,0.0,0.0,0.0,0.0,0.0,0.0,0.0,0.0,0.0,6.6849,7.3531,7.8009,7.9992,7.9331,7.7414,7.4338,6.9633,0.0,0.0,0.0,0.0,0.0,0.0,0.0,0.0,0.0,0.0,0.0,0.0,0.0,0.0,0.0,0.0,0.0,0.0,0.0,0.0,0.0,0.0,0.0,0.0,0.0,0.0,0.0,4.3094,0.0,0.0,0.0,0.0,0.0,0.0,0.0,0.0,0.0,0.0,0.0,0.0,0.0,0.0,6.1704,6.2701,6.2664,6.2732,0.0,0.0,6.2719,6.0737,6.2793,6.2695,0.0,0.0,0.0,0.0,0.0,0.0,0.0,0.0,0.0,0.0,0.0,0.0,0.0,0.0,0.0,0.0,0.0,0.0,0.0,0.0,0.0,0.0,0.0,0.0,0.0,0.0,0.0,0.0,0.0,0.0,0.0,0.0,0.0,0.0,0.0,0.0,0.0,0.0,0.0,0.0,0.0,0.0,0.0,0.0,0.0,0.0,0.0,0.0,0.0,0.0,0.0,0.0,0.0,0.0,0.0,6.7767,7.5484,7.9955,8.0857,8.0139,7.8531,7.5946,7.1277,6.6439,0.0,0.0,0.0,0.0,0.0,0.0,0.0,0.0,0.0,0.0,0.0,0.0,0.0,0.0,0.0,0.0,0.0,0.0,0.0,0.0,0.0,0.0,0.0,0.0,0.0,0.0,0.0,0.0,0.0,0.0,0.0,0.0,0.0,0.0,0.0,0.0,0.0,0.0,0.0,0.0,0.0,6.4433,6.5968,6.5515,6.5845,0.0,6.6543,6.4818,6.3913,6.7033,6.6923,5.914,0.0,0.0,0.0,0.0,0.0,0.0,0.0,0.0,0.0,0.0,0.0,0.0,0.0,0.0,0.0,0.0,0.0,0.0,0.0,0.0,0.0,0.0,0.0,0.0,0.0,0.0,0.0,0.0,0.0,0.0,0.0,0.0,0.0,0.0,0.0,0.0,0.0,0.0,0.0,0.0,0.0,0.0,0.0,0.0,0.0,0.0,0.0,0.0,0.0,0.0,0.0,0.0,0.0,6.4751,6.7731,7.5667,8.0432,8.1644,8.0975,7.936,7.6885,7.2165,6.71,0.0,0.0,0.0,0.0,0.0,0.0,0.0,0.0,0.0,0.0,0.0,0.0,0.0,0.0,0.0,0.0,0.0,0.0,0.0,0.0,0.0,0.0,0.0,0.0,0.0,0.0,0.0,0.0,4.798,4.8485,4.8636,0.0,0.0,0.0,0.0,0.0,0.0,0.0,0.0,0.0,0.0,6.4874,6.6923,6.7841,0.0,0.0,6.9986,6.9119,6.7357,6.8341,6.7283,6.1196,5.8993,0.0,0.0,0.0,0.0,0.0,0.0,0.0,0.0,0.0,0.0,0.0,0.0,0.0,0.0,0.0,0.0,0.0,0.0,0.0,0.0,0.0,0.0,0.0,0.0,0.0,0.0,0.0,0.0,0.0,0.0,0.0,0.0,0.0,0.0,0.0,0.0,0.0,0.0,0.0,0.0,0.0,0.0,0.0,0.0,0.0,0.0,0.0,0.0,0.0,0.0,0.0,0.0,6.4677,6.77,7.5667,8.0579,8.2158,8.1407,8.0049,7.8031,7.3333,6.8385,0.0,0.0,0.0,0.0,0.0,0.0,0.0,0.0,0.0,0.0,0.0,0.0,0.0,0.0,0.0,0.0,0.0,0.0,0.0,0.0,0.0,0.0,0.0,0.0,0.0,0.0,0.0,0.0,4.9816,5.022,4.9642,0.0,0.0,0.0,0.0,0.0,0.0,0.0,0.0,0.0,0.0,6.6299,6.8465,6.9743,7.0587,7.091,7.0984,7.0403,6.8488,6.8598,6.7313,6.2732,0.0,0.0,0.0,0.0,0.0,0.0,0.0,0.0,0.0,0.0,0.0,0.0,0.0,0.0,0.0,0.0,0.0,0.0,0.0,0.0,0.0,0.0,0.0,0.0,0.0,0.0,0.0,5.3235,0.0,0.0,5.3162,0.0,0.0,0.0,0.0,0.0,0.0,0.0,0.0,0.0,0.0,0.0,0.0,0.0,0.0,0.0,0.0,0.0,0.0,0.0,0.0,0.0,0.0,6.5271,6.7737,7.5704,8.0579,8.2121,8.1415,8.0608,7.9669,7.5028,7.0506,6.6316,0.0,0.0,0.0,0.0,0.0,0.0,0.0,0.0,0.0,0.0,0.0,0.0,0.0,0.0,0.0,0.0,0.0,0.0,0.0,0.0,0.0,0.0,0.0,0.0,0.0,0.0,4.7337,4.8641,4.9642,0.0,0.0,0.0,0.0,0.0,0.0,0.0,0.0,0.0,0.0,6.5221,6.9369,7.0903,7.1233,7.105,7.0367,6.8949,6.7627,6.688,6.7937,6.7497,0.0,0.0,0.0,0.0,0.0,0.0,0.0,0.0,0.0,0.0,0.0,0.0,0.0,0.0,0.0,0.0,0.0,0.0,0.0,0.0,0.0,0.0,0.0,0.0,0.0,0.0,0.0,5.6858,5.592,0.0,0.0,0.0,0.0,0.0,0.0,0.0,0.0,0.0,0.0,0.0,5.9716,6.129,0.0,0.0,0.0,0.0,0.0,0.0,0.0,0.0,0.0,0.0,0.0,0.0,6.5521,6.8678,7.5961,8.0587,8.2113,8.1929,8.1415,8.0571,7.69,7.0791,6.2116,0.0,0.0,0.0,0.0,0.0,0.0,0.0,0.0,0.0,0.0,0.0,0.0,0.0,0.0,0.0,0.0,0.0,0.0,0.0,0.0,0.0,0.0,0.0,0.0,0.0,4.9627,0.0,0.0,0.0,0.0,0.0,0.0,0.0,0.0,0.0,0.0,0.0,5.8976,6.1655,6.5521,6.8501,6.9552,7.1094,7.2562,0.0,0.0,0.0,0.0,0.0,0.0,0.0,0.0,0.0,0.0,0.0,0.0,0.0,0.0,6.5895,5.785,5.6811,5.7031,5.6486,0.0,0.0,0.0,0.0,0.0,0.0,0.0,0.0,0.0,0.0,0.0,0.0,0.0,0.0,5.9325,5.8849,5.8951,0.0,0.0,0.0,0.0,0.0,0.0,0.0,0.0,6.2495,6.4043,6.4646,6.622,6.6105,0.0,6.4072,6.1346,0.0,0.0,0.0,0.0,0.0,0.0,0.0,0.0,6.6476,6.9112,7.6387,8.0873,8.2113,8.2186,8.1827,8.0975,7.7517,7.1253,6.1888,5.9016,5.5224,0.0,0.0,0.0,0.0,0.0,0.0,0.0,0.0,0.0,0.0,0.0,0.0,0.0,0.0,0.0,0.0,0.0,0.0,0.0,0.0,0.0,0.0,0.0,5.1421,0.0,0.0,0.0,0.0,0.0,0.0,0.0,0.0,0.0,5.6859,5.9202,6.2028,6.4964,6.765,6.9449,6.9699,0.0,0.0,0.0,0.0,0.0,0.0,0.0,6.8011,6.7453,6.7203,6.7343,6.8414,7.077,7.2232,7.1454,0.0,0.0,6.3305,6.2466,6.2722,6.1916,6.3443,6.4715,6.4209,6.5197,6.6002,0.0,0.0,0.0,0.0,0.0,0.0,0.0,0.0,6.2276,6.2179,0.0,6.1272,0.0,0.0,0.0,0.0,5.66,5.9463,0.0,0.0,6.647,6.8725,7.0034,7.0176,7.0167,7.0113,7.0063,6.8475,6.5198,5.9354,0.0,0.0,0.0,0.0,0.0,0.0,6.8171,6.9369,7.6966,8.1379,8.215,8.2186,8.1782,8.0901,7.7113,7.2021,6.5881,6.3883,6.0183,5.4064,5.1602,0.0,0.0,0.0,0.0,0.0,0.0,0.0,0.0,0.0,0.0,0.0,0.0,0.0,0.0,0.0,0.0,0.0,0.0,0.0,0.0,5.3209,0.0,0.0,0.0,0.0,0.0,0.0,0.0,0.0,0.0,0.0,5.9777,6.2328,6.5638,6.9412,0.0,0.0,0.0,0.0,7.2613,6.9736,6.9148,6.9222,6.9369,7.0463,7.1344,7.138,0.0,0.0,7.301,7.2826,7.2768,7.1814,7.3169,7.3428,7.1713,7.0449,6.9681,6.8896,6.8796,6.895,6.9023,6.9591,6.9849,6.7512,0.0,0.0,0.0,0.0,6.5251,6.6559,6.9412,6.8378,6.7351,6.6248,6.5373,0.0,0.0,0.0,0.0,0.0,0.0,6.5949,6.8079,7.0103,7.1621,7.2689,7.3818,7.3738,7.2654,7.2653,7.1585,6.9492,6.7273,6.3391,5.7987,0.0,0.0,0.0,0.0,7.0073,7.3289,7.8361,8.1379,8.2186,8.2186,8.1525,8.0175,7.7847,7.3725,6.7624,6.5866,6.2335,5.6714,5.4907,0.0,0.0,0.0,0.0,0.0,0.0,0.0,0.0,0.0,0.0,0.0,0.0,0.0,0.0,0.0,0.0,0.0,0.0,0.0,5.2239,5.3371,5.3366,0.0,0.0,0.0,0.0,0.0,0.0,0.0,0.0,0.0,6.7447,6.71,6.7076,0.0,0.0,7.0293,6.8905,7.1064,7.3112,7.3927,7.3553,0.0,7.5542,7.4221,7.3193,7.3773,7.5902,7.7561,7.7716,7.8633,7.9164,7.8249,7.8524,7.8332,7.6678,7.4355,7.2486,7.165,7.23,7.3114,7.3127,7.3744,7.4201,7.3431,7.086,6.7772,6.7657,6.9403,6.8733,7.0299,7.3299,7.2517,7.1636,7.0749,6.9887,6.7335,6.3537,6.2261,0.0,0.0,0.0,6.8944,7.1527,7.2497,7.3712,7.5116,7.6098,7.6018,7.5116,7.5117,7.4442,7.3126,7.1859,6.8839,6.4104,0.0,0.0,6.3642,6.8056,7.1824,7.49,7.8571,8.088,8.1644,8.1379,8.0743,7.9765,7.847,7.5292,7.0211,6.9058,6.5858,6.0204,5.8603,5.6275,0.0,0.0,0.0,0.0,0.0,0.0,0.0,0.0,0.0,0.0,0.0,4.9611,4.6776,0.0,0.0,0.0,5.1266,5.3049,5.354,5.4955,0.0,0.0,0.0,0.0,0.0,0.0,0.0,6.3025,6.6145,6.9185,7.1865,7.1541,7.1255,7.1915,7.2569,7.2496,7.1218,0.0,7.5204,7.5983,7.5975,7.6371,7.781,7.6974,7.6497,7.7635,7.8993,8.0139,8.0645,8.1313,8.1472,8.0982,8.0376,7.9627,7.8691,7.6619,7.4942,7.442,7.5092,7.5775,7.5739,7.6171,7.6531,7.833,7.7674,7.1074,6.9454,7.1324,7.2366,7.3615,7.4929,7.516,7.5214,7.5099,7.4257,7.2188,6.9286,6.7835,0.0,6.8566,6.9252,7.1221,7.4072,7.4072,7.5188,7.7166,7.7212,7.7201,7.7189,7.7266,7.6931,7.6082,7.4069,7.2526,7.1431,6.8665,6.7077,6.7026,7.0601,7.3339,7.5013,7.7996,7.9951,8.0786,8.0068,7.9671,7.9502,7.8803,7.6578,7.2833,7.2599,6.9898,6.4122,6.2393,5.9521,5.5131,0.0,0.0,0.0,0.0,0.0,0.0,0.0,0.0,0.0,0.0,0.0,0.0,0.0,0.0,0.0,5.4261,0.0,5.6276,5.7388,0.0,0.0,0.0,5.8288,6.0811,6.3156,6.5457,6.7723,0.0,0.0,7.3957,7.5387,7.6949,7.8655,7.7986,7.6995,7.6203,7.7414,7.8156,7.6725,7.7179,7.7693,7.8133,7.8993,8.0212,8.1489,8.2154,8.1925,8.1867,8.1298,8.0866,8.0632,7.9497,7.8462,7.842,7.7622,7.7201,7.7038,7.7095,7.7177,7.7084,7.713,7.7164,7.8582,7.7905,7.6225,7.5977,7.6771,7.7078,7.7362,7.7739,7.7994,7.7789,7.7136,7.5422,7.2851,6.9862,7.0831,7.1595,7.221,7.3711,7.5122,7.635,7.6384,7.6695,7.7201,7.7201,7.7201,7.7212,7.7216,7.7147,7.6947,7.6386,7.5134,7.3233,7.2462,7.1206,6.9463,7.1471,7.3654,7.5863,7.7237,7.8595,7.9928,7.9817,7.9139,7.7977,7.7773,7.5816,7.205,7.1871,6.9863,6.5598,6.4427,6.2117,5.8193,5.4689,0.0,0.0,0.0,0.0,0.0,0.0,0.0,0.0,0.0,5.1087,4.6912,0.0,5.228,0.0,5.5249,5.7998,5.8658,5.8943,0.0,0.0,6.1319,6.247,6.4844,6.7166,6.9062,7.0281,7.218,7.4441,7.71,7.7709,7.8789,8.0931,7.8977,7.6995,7.6313,7.8075,7.9412,7.9111,8.0065,8.1012,8.0938,8.135,8.1717,8.2121,8.1672,8.1212,8.1212,8.0504,7.9782,7.921,7.88,7.8262,7.763,7.7335,7.7223,7.7201,7.7201,7.7201,7.7201,7.7235,7.7384,7.9363,7.9003,7.9003,7.9118,7.9354,7.9124,7.924,7.9571,7.9825,7.9522,7.8712,7.6999,7.5201,7.3493,7.4312,7.4782,7.4985,7.6101,7.6787,7.7201,7.7201,7.7373,7.7729,7.7729,7.7764,7.7729,7.8063,7.7856,7.727,7.7546,7.6936,7.5326,7.5326,7.4312,7.2382,7.2162,7.3114,7.5168,7.6302,7.763,7.9069,7.8775,7.7883,7.6441,7.5993,7.398,7.0188,7.0039,6.8426,6.5086,6.4471,6.2496,5.878,5.5908,5.3449,0.0,0.0,0.0,0.0,0.0,0.0,0.0,0.0,0.0,0.0,0.0,5.4164,5.4571,5.7917,6.0493,6.1544,6.2536,6.3607,6.4801,6.5953,6.7454,6.9548,7.1516,7.3191,7.4355,7.5594,7.7044,7.8857,7.9089,7.9513,8.0919,7.9522,7.8482,7.8867,8.0065,8.0873,8.0909,8.1607,8.2186,8.2186,8.2186,8.208,8.1681,8.123,8.0804,8.0439,7.9676,7.9024,7.8587,7.8167,7.7807,7.7313,7.7201,7.7304,7.766,7.7729,7.7729,7.7729,7.7764,7.7971,8.0209,8.0209,8.0209,8.0209,8.0166,7.9735,7.9936,8.0585,8.0833,8.0512,7.9728,7.8677,7.8037,7.7679,7.7491,7.7273,7.7079,7.733,7.7489,7.7477,7.7477,7.7867,7.8522,7.8534,7.8522,7.8557,7.9178,7.8787,7.7546,7.8109,7.7936,7.7097,7.6959,7.6132,7.4615,7.2636,7.2359,7.3741,7.5238,7.6689,7.8,7.7124,7.5959,7.4557,7.3664,7.1588,6.8152,6.7842,6.6497,6.3807,6.36,6.2048,5.8668,5.6927,5.534,0.0,5.2129,0.0,0.0,0.0,0.0,0.0,0.0,0.0,0.0,5.5509,5.7064,5.9451,6.154,6.3292,6.4686,6.6593,6.8108,6.892,7.0459,7.2129,7.3782,7.5288,7.6753,7.8268,7.9021,7.9402,7.9633,7.9669,7.9708,7.9957,8.0051,8.0435,8.1737,8.2004,8.2079,8.2275,8.2147,8.1838,8.1743,8.181,8.1525,8.0893,8.0577,8.0339,7.9663,7.8882,7.835,7.8405,7.795,7.7464,7.7477,7.7546,7.7764,7.8385,7.8522,7.8522,7.8522,7.8385,7.8637,8.0209,8.0209,8.0209,8.0209,8.0175,8.0124,8.0149,8.0309,8.0538,8.034,7.9785,7.956,7.9008,7.8202,7.8328,7.8412,7.8366,7.8623,7.8878,7.9074,7.9074,7.9143,7.9281,7.9281,7.9316,7.9281,7.9454,7.935,7.9074,7.8626,7.7695,7.6315,7.5649,7.458,7.3164,0.0,0.0,0.0,7.4375,7.5288,7.5531,7.425,7.2834,7.1316,7.0541,0.0,6.7334,6.6644,6.5472,6.3738,6.36,0.0,0.0,0.0,0.0,0.0,0.0,0.0,0.0,0.0,0.0,0.0,5.9865,5.8824,5.7929,6.0326,6.2866,6.4935,6.5502,6.6317,6.7832,6.8143,6.8841,7.0268,7.1797,7.3329,7.4835,7.5993,7.7062,7.8038,7.7902,7.823,7.945,7.9651,7.9846,8.0438,8.116,8.1672,8.1975,8.2105,8.2358,8.2858,8.1986,8.0925,8.0277,8.0316,8.0416,7.9894,7.9349,7.8998,7.8742,7.8098,7.7755,7.8285,7.8302,7.8396,7.8902,7.9074,7.904,7.9281,7.9281,7.9281,7.9281,7.8833,7.8591,8.1278,8.1278,8.1278,8.1291,0.0,8.1291,8.1088,8.0729,8.0495,8.0247,7.9998,7.9734,7.9252,7.8693,7.8695,7.8632,7.8502,7.8775,7.8987,7.9116,7.9245,7.9498,7.9853,7.9982,8.004,8.0074,8.0454,8.0142,7.9349,7.943,7.8833,7.7571,7.6927,7.6202,7.5345,7.4921,7.4436,7.3785,7.4533,7.5281,7.596,7.5315,7.4026,7.2174,7.1381,0.0,0.0,0.0,0.0,0.0,0.0,0.0,0.0,0.0,0.0,6.0703,6.0323,6.0763,6.2255,6.2393,6.3085,6.4759,6.5563,6.4878,6.2228,6.4497,6.6809,6.8527,6.868,6.938,7.1151,7.1602,7.208,7.2865,7.4025,7.5106,7.5812,7.6667,7.7354,7.7774,7.8017,7.8496,7.9272,7.9492,7.9694,8.0117,8.0519,8.1087,8.1774,8.1993,8.2241,8.2591,8.2031,8.1287,8.0931,8.0824,8.0625,8.0263,7.9865,7.9282,7.855,7.84,7.8385,7.8454,7.866,7.9074,7.9385,7.9488,7.9592,7.9936,8.004,8.0212,8.0488,8.004,7.9729,8.2733,8.2598,8.2598,8.2598,8.2598,8.2462,8.2035,8.1439,8.0581,0.0,0.0,7.9744,7.9448,7.9274,7.9082,7.8885,7.873,7.8933,7.9054,7.9114,7.9328,7.9754,8.0349,8.0563,8.0692,8.0692,8.1323,8.093,7.9562,8.0139,8.0059,7.9299,7.8764,7.8271,7.7892,7.7285,7.6347,7.524,7.4983,7.5499,7.6753,7.6546,7.5453,7.344,7.2692,7.076,6.7541,6.592,6.4531,6.3333,6.254,6.191,6.1461,6.2676,6.3485,6.3682,6.4875,6.6199,6.7596,6.8216,6.8676,6.8919,7.0379,6.9904,6.667,6.8367,7.0143,7.1485,7.1453,7.2105,7.3901,7.4718,7.5116,7.4965,7.5899,7.656,7.6629,7.7267,7.7712,7.7826,7.8471,7.9046,7.9047,7.9395,7.9625,7.9683,8.0029,8.0305,8.1534,8.2097,8.2186,8.2079,8.1752,8.1634,8.1519,8.1386,8.1259,8.0473,8.0413,8.001,7.9083,7.912,7.9247,7.8971,7.9316,7.9695,7.9867,8.0005,8.0109,8.0695,8.0833,8.1005,8.1535,8.1247,8.0936,8.3998,8.3355,8.3355,8.3355,8.3287,8.2665,8.234,8.2124,8.0818,8.0209,8.0175,8.0145,8.0077,8.004,7.998,8.0083,8.027,8.0307,8.0443,8.0685,8.0734,8.078,8.0895,8.0919,8.0944,8.0944,8.108,8.1109,8.1002,8.0297,7.9943,7.9915,7.9133,7.8342,7.7681,7.7544,7.7077,7.6302,7.537,7.5005,7.519,7.3981,7.2854,7.1853,7.1198,7.0208,6.9,6.7507,6.6575,6.6368,6.5644,6.5481,6.6024,6.6622,6.7329,6.7971,6.8611,6.9362,7.018,7.0351,7.1264,7.3077,7.3198,7.2225,7.0358,7.2111,7.3762,7.4548,7.3821,7.381,7.474,7.4815,7.4834,7.4821,7.5962,7.6833,7.6903,7.7648,7.821,7.8222,7.8528,7.8808,7.8968,7.9581,8.0124,8.0229,8.075,8.1536,8.1806,8.248,8.2602,8.1996,8.1275,8.0615,8.0369,7.9911,8.006,7.9683,7.981,7.9856,7.9442,7.9523,7.9764,8.0178,8.035,8.0661,8.1224,8.1466,8.1397,8.1535,8.1535,8.1626,8.1776,8.1626,8.1454,8.5689,8.5351,8.5337,8.5337,8.527,8.4573,8.3998,8.3511,8.2475,8.1528,8.083,8.0784,8.0593,8.0209,8.0209,8.0284,8.0397,8.0385,8.046,8.0551,8.0721,8.0796,8.0808,8.0931,8.1005,8.1005,8.1005,8.0992,8.0946,8.0604,8.0434,8.0341,7.9559,7.8833,7.8248,7.8061,7.789,7.7679,7.6439,7.582,7.5909,7.5277,7.475,7.4372,7.3803,7.3055,7.2181,7.0826,6.9887,6.9439,6.8206,6.7689,6.8022,6.8531,6.9001,6.9367,7.0742,7.1861,7.2589,7.2911,7.3526,7.4526,7.4295,7.393,7.3538,7.4025,7.4534,7.4886,7.451,7.4757,7.5888,7.5904,7.6014,7.642,7.7096,7.7481,7.7582,7.8231,7.8711,7.8782,7.9318,7.9715,7.9715,8.0253,8.0688,8.0877,8.1472,8.1764,8.1776,8.2118,8.2302,8.1897,8.1505,8.1168,8.0798,8.0776,8.0764,8.073,8.073,8.0557,8.0281,8.0385,8.0661,8.0661,8.0902,8.135,8.1776,8.1776,8.1776,8.1776,8.1776,8.1776,8.1776,8.1776,8.1638,8.7299,8.7164,8.7144,8.7062,8.6859,8.6298,8.5689,8.5087,8.4505,8.3537,8.2353,8.1811,8.1224,8.0716,8.0716,8.0716,8.0716,8.0682,8.0716,8.0708,8.0897,8.0998,8.1011,8.1245,8.1229,8.1105,8.1071,8.0929,8.0647,8.0759,8.0721,8.0467,7.9945,7.9352,7.8819,7.857,7.8502,7.8478,7.7412,7.6893,7.6976,7.6805,7.6714,7.6691,7.6369,7.5852,7.5099,7.3937,7.3026,7.2403,7.0944,7.0088,7.0111,7.0629,7.0887,7.1047,7.2627,7.3844,7.4241,7.449,7.4783,7.5157,7.497,7.5236,7.606,7.5709,7.5371,7.5359,7.5451,7.5924,7.6872,7.7142,7.7367,7.7954,7.8157,7.8247,7.8314,7.8889,7.935,7.9443,8.0046,8.0476,8.0572,8.0724,8.1007,8.1311,8.1573,8.1727,8.1787,8.1776,8.1776,8.1776,8.1776,8.1741,8.1776,8.1741,8.1707,8.1776,8.1741,8.1431,8.1109,8.1419,8.1523,8.1109,8.135,8.1707,8.1776,8.1776,8.1776,8.1776,8.1776,8.1776,8.1776,8.1776,8.1776,8.8511,8.7922,8.7922,8.7516,8.6961,8.6859,8.6758,8.6656,8.6589,8.6163,8.5127,8.3219,8.2306,8.2192,8.2171,8.2124,8.2124,8.2192,8.2158,8.2124,8.2218,8.2243,8.2176,8.2235,8.191,8.136,8.1304,8.1113,8.0708,8.0431,8.0272,8.0247,8.0179,7.9785,7.9154,7.9041,7.8736,7.8096,7.7926,7.775,7.7486,7.6871,7.6541,7.653,7.6484,7.6531,7.6508,7.5595,7.515,7.5237,7.4203,7.3659,7.3671,7.4185,7.4456,7.4422,7.5052,7.5227,7.463,7.3997,7.4347,7.5474,7.5666,7.6251,7.7582,7.7684,7.7684,7.7616,7.765,7.765,7.7853,7.7887,7.7988,7.8191,7.8653,7.8978,7.908,7.9667,8.0107,8.0107,8.0191,8.0259,8.0309,8.0476,8.0845,8.1248,8.1405,8.1538,8.1727,8.1799,8.1776,8.1776,8.1776,8.1776,8.1776,8.1776,8.1776,8.1776,8.1776,8.1707,8.1638,8.1638,8.1707,8.1557,8.1672,8.1776,8.1776,8.1776,8.1776,8.1776,8.1776,8.1776,8.1776,8.1776,8.1776,8.8917,8.8646,8.8646,8.8477,8.824,8.8192,8.7955,8.755,8.7536,8.7144,8.6399,8.5439,8.4323,8.305,8.2598,8.2395,8.2428,8.2847,8.28,8.2462,8.2847,8.2813,8.2428,8.2395,8.2238,8.1968,8.1934,8.185,8.1622,8.1105,8.0661,8.0242,8.0209,8.004,7.9769,7.9756,7.96,7.9308,7.8855,7.8582,7.8417,7.7894,7.7569,7.7546,7.7301,7.7109,7.6972,7.6346,7.6062,7.6108,7.5219,7.4673,7.4662,7.4342,7.4101,7.4157,7.5126,7.5777,7.5934,7.6093,7.6432,7.7041,7.7075,7.7548,7.8517,7.8653,7.8822,7.9126,7.8517,7.8157,7.8585,7.864,7.8809,7.924,7.9566,7.9722,7.9769,8.0006,8.0209,8.0209,8.0209,8.0209,8.0247,8.0435,8.0684,8.0956,8.1163,8.143,8.1538,8.1715,8.1799,8.1776,8.1776,8.1776,8.1776,8.1776,8.1776,8.1776,8.1776,8.1776,8.1776,8.1776,8.1776,8.1776,8.1776,8.1776,8.1776,8.1776,8.1776,8.1776,8.1776,8.1776,8.1776,8.1776,8.1776,8.9134,8.9134,8.9134,8.9134,8.9134,8.9134,8.8781,8.8328,8.8308,8.7989,8.7516,8.7313,8.6298,8.4776,8.395,8.3612,8.368,8.42,8.4153,8.368,8.3998,8.3862,8.3355,8.3071,8.2902,8.2746,8.2712,8.2598,8.2374,8.19,8.1338,8.0851,8.0615,8.0479,8.0492,8.031,8.0209,8.0141,7.9655,7.9384,7.9354,7.9007,7.863,7.8247,7.7894,7.7635,7.7494,7.7113,7.6934,7.6959,7.6055,7.5518,7.5485,7.4834,7.4537,7.4774,7.5721,7.6567,7.7176,7.7718,7.809,7.8247,7.828,7.8619,7.9228,7.9418,7.9621,7.9972,7.9228,7.8889,7.9295,7.9384,7.9634,8.0141,8.0209,8.0209,8.0175,8.0209,8.0209,8.0209,8.0209,8.0209,8.0234,8.0372,8.0535,8.0771,8.1066,8.1381,8.1478,8.1669,8.1776,8.1776,8.1776,8.1776,8.1776,8.1776,8.1776,8.1776,8.1776,8.1776,8.1776,8.1776,8.1776,8.1776,8.1776,8.1776,8.1776,8.1776,8.1776,8.1776,8.1776,8.1776,8.1776,8.1776,8.1776,8.9134,8.9134,8.9134,8.9134,8.9134,8.9134,8.9086,8.8984,8.9032,8.8998,8.8815,8.824,8.7888,8.7617,8.6873,8.6623,8.6623,8.6589,8.6555,8.6386,8.5939,8.5669,8.5601,8.4864,8.4153,8.3693,8.3592,8.3186,8.2496,8.2395,8.2327,8.2225,8.1562,8.1236,8.1169,8.0593,8.0209,8.0276,8.0141,8.0107,8.0107,8.0086,7.9413,7.8308,7.8037,7.8079,7.8191,7.8046,7.7978,7.8174,7.7266,7.6782,7.6804,7.6724,7.6927,7.7548,7.7785,7.7887,7.7921,7.8068,7.836,7.8911,7.9058,7.9363,7.9938,8.004,8.0107,8.0175,8.004,8.0006,8.0107,8.004,8.0107,8.0242,8.0242,8.0276,8.0276,8.0445,8.0242,8.031,8.0344,8.0378,8.031,8.0209,8.0528,8.0873,8.1048,8.1266,8.179,8.1877,8.1856,8.1868,8.1845,8.1776,8.1776,8.1776,8.1776,8.1776,8.1776,8.1776,8.1776,8.1776,8.1776,8.1776,8.1776,8.1776,8.1776,8.1776,8.1776,8.1776,8.1776,8.1776,8.1776,8.1776,8.1776,8.9134,8.9134,8.9134,8.9134,8.9134,8.9134,8.9134,8.9134,8.9134,8.9134,8.9052,8.8815,8.8714,8.8714,8.8443,8.7786,8.6995,8.738,8.7347,8.6961,8.711,8.6974,8.6501,8.6183,8.598,8.5655,8.5182,8.4336,8.3219,8.3118,8.2834,8.2441,8.2137,8.2002,8.1866,8.1257,8.0898,8.0851,8.0458,8.0209,8.0209,8.0209,7.9938,7.9431,7.8957,7.8723,7.881,7.8308,7.8037,7.8123,7.7766,7.7616,7.7604,7.7616,7.7718,7.7988,7.845,7.8686,7.8754,7.916,7.9498,7.9735,7.9803,7.987,8.0141,8.0209,8.0209,8.0209,8.0209,8.039,8.0729,8.0492,8.039,8.083,8.0898,8.1101,8.1481,8.1629,8.1596,8.1562,8.1236,8.1054,8.1245,8.0818,8.0691,8.1614,8.1633,8.184,8.2411,8.2435,8.232,8.2383,8.2121,8.1776,8.1776,8.1776,8.1776,8.1776,8.1776,8.1776,8.1776,8.1776,8.1776,8.1776,8.1776,8.1776,8.181,8.1914,8.1914,8.1914,8.1914,8.2086,8.1776,8.1948,8.1914,8.9134,8.9134,8.9134,8.9134,8.9134,8.9134,8.9134,8.9134,8.9134,8.9134,8.9134,8.9134,8.9134,8.9134,8.9134,8.8612,8.7719,8.8125,8.8057,8.7651,8.7902,8.7753,8.7265,8.6995,8.6893,8.6758,8.6176,8.5229,8.4349,8.3998,8.3592,8.3126,8.2902,8.278,8.2644,8.2002,8.1575,8.1236,8.0784,8.0492,8.0242,8.0209,8.0209,8.0141,7.9701,7.9452,7.9464,7.8957,7.8686,7.8699,7.8496,7.8348,7.8348,7.836,7.845,7.8733,7.9194,7.9452,7.9486,7.9938,8.0175,8.0209,8.0209,8.0209,8.0209,8.0209,8.031,8.0445,8.0547,8.0864,8.1359,8.119,8.1122,8.1575,8.1642,8.1832,8.2327,8.2395,8.2361,8.2259,8.1934,8.1934,8.2158,8.146,8.1545,8.2443,8.2305,8.2537,8.2961,8.3148,8.2992,8.3079,8.2854,8.2683,8.2592,8.2535,8.2052,8.1948,8.181,8.181,8.1879,8.1845,8.181,8.181,8.1776,8.1776,8.1879,8.2005,8.2074,8.2155,8.2535,8.288,8.2535,8.2224,8.2086,8.9134,8.9134,8.9134,8.9134,8.9134,8.9134,8.9134,8.9134,8.9134,8.9134,8.9134,8.9134,8.9134,8.9134,8.9134,8.9052,8.8951,8.8951,8.8965,8.8849,8.8328,8.8091,8.7955,8.7414,8.7096,8.6995,8.623,8.5872,8.5669,8.508,8.4695,8.4492,8.4031,8.3761,8.3558,8.2915,8.2137,8.1608,8.1338,8.0898,8.0323,8.0242,8.0209,8.0209,8.0141,8.0107,8.0141,8.0107,8.0006,7.9972,7.9452,7.9114,7.9114,7.9114,7.9384,7.9904,8.0154,8.0175,8.0141,8.0187,8.0209,8.031,8.0276,8.0344,8.0479,8.0445,8.0695,8.1169,8.1338,8.1608,8.2225,8.2327,8.2327,8.2395,8.2408,8.2462,8.253,8.2496,8.2462,8.2564,8.2475,8.2395,8.2428,8.2259,8.2371,8.2814,8.3011,8.3155,8.3435,8.3697,8.3785,8.3761,8.3571,8.3442,8.3454,8.3385,8.2673,8.2086,8.1914,8.1845,8.204,8.2074,8.1983,8.1914,8.181,8.181,8.2466,8.2626,8.273,8.2868,8.3316,8.3431,8.2937,8.2488,8.2281,8.9134,8.9134,8.9134,8.9134,8.9134,8.9134,8.9134,8.9134,8.9134,8.9134,8.9134,8.9134,8.9134,8.9134,8.9134,8.9134,8.9134,8.9134,8.9134,8.9052,8.8849,8.8748,8.868,8.8511,8.8158,8.7719,8.7462,8.7042,8.6555,8.6284,8.6183,8.6115,8.5912,8.5554,8.5026,8.4336,8.3558,8.2793,8.1811,8.1169,8.0898,8.0479,8.0209,8.0209,8.0209,8.0209,8.0209,8.0209,8.0209,8.0209,7.9972,7.987,7.987,7.9858,7.9972,8.0141,8.0209,8.0209,8.0209,8.0242,8.0479,8.083,8.0966,8.1224,8.1629,8.1718,8.1786,8.2069,8.2069,8.2327,8.297,8.3152,8.3219,8.3186,8.3152,8.3389,8.3714,8.3849,8.3903,8.3849,8.349,8.3422,8.3545,8.324,8.2941,8.3731,8.3692,8.3639,8.4254,8.4288,8.4327,8.4402,8.4257,8.4188,8.4178,8.4075,8.3557,8.2983,8.2626,8.2212,8.2316,8.2523,8.2362,8.2155,8.2017,8.219,8.2833,8.3143,8.3247,8.3523,8.3902,8.3626,8.3075,8.2868,8.2868,8.9134,8.9134,8.9134,8.9134,8.9134,8.9134,8.9134,8.9134,8.9134,8.9134,8.9134,8.9134,8.9134,8.9134,8.9134,8.9134,8.9134,8.9134,8.9134,8.9134,8.9134,8.9134,8.9134,8.9134,8.8917,8.8443,8.8125,8.7786,8.7313,8.7028,8.6893,8.6893,8.6893,8.6656,8.6163,8.5418,8.4661,8.3828,8.2759,8.1968,8.1663,8.1257,8.0885,8.0695,8.0851,8.0851,8.0648,8.0851,8.075,8.031,8.0209,8.031,8.0547,8.0615,8.0716,8.0987,8.1021,8.1042,8.1021,8.1122,8.1325,8.1947,8.2116,8.2441,8.3037,8.3193,8.3206,8.324,8.324,8.3511,8.4167,8.4336,8.4471,8.4776,8.4234,8.4153,8.4525,8.458,8.4546,8.4424,8.4153,8.4208,8.4174,8.4018,8.3545,8.4356,8.4327,8.4116,8.4794,8.4804,8.4891,8.4996,8.5001,8.4923,8.4912,8.4695,8.4454,8.3971,8.3557,8.304,8.2799,8.3143,8.3178,8.2937,8.273,8.2833,8.335,8.3454,8.3592,8.4006,8.4557,8.4557,8.435,8.404,8.3868,8.9134,8.9134,8.9134,8.9134,8.9134,8.9134,8.9134,8.9134,8.9134,8.9134,8.9134,8.9134,8.9134,8.9134,8.9134,8.9134,8.9134,8.9134,8.9134,8.9134,8.9134,8.9134,8.9134,8.9134,8.9052,8.8917,8.8409,8.8139,8.8023,8.755,8.7028,8.7211,8.7231,8.7028,8.6873,8.623,8.5587,8.4864,8.4031,8.3334,8.2767,8.253,8.2272,8.1676,8.2205,8.2205,8.171,8.2035,8.1765,8.0581,8.0513,8.083,8.1236,8.1372,8.1663,8.2306,8.2428,8.2462,8.2462,8.2496,8.2847,8.3537,8.3659,8.3917,8.4593,8.4728,8.4715,8.4715,8.4715,8.5033,8.5635,8.577,8.6027,8.6535,8.5574,8.4965,8.4783,8.4783,8.4796,8.4749,8.4647,8.458,8.458,8.4444,8.4478,8.4586,8.4745,8.4745,8.4758,8.4914,8.533,8.5387,8.5335,8.5406,8.5258,8.5133,8.4845,8.4399,8.4151,8.4009,8.3486,8.3718,8.4213,8.3937,8.3454,8.3592,8.3868,8.4144,8.4454,8.4971,8.5397,8.5708,8.5466,8.4915,8.4488,8.9134,8.9134,8.9134,8.9134,8.9134,8.9134,8.9134,8.9134,8.9134,8.9134,8.9134,8.9134,8.9134,8.9134,8.9134,8.9134,8.9134,8.9134,8.9134,8.9134,8.9134,8.9134,8.9134,8.9134,8.9134,8.9066,8.8883,8.8815,8.8781,8.8511,8.8443,8.8545,8.8409,8.8206,8.7753,8.7448,8.7042,8.6318,8.5554,8.5093,8.4823,8.4255,8.3937,8.3815,8.3917,8.3646,8.3016,8.3084,8.2813,8.1955,8.182,8.19,8.2171,8.2205,8.2577,8.3186,8.3321,8.3524,8.3917,8.4005,8.439,8.5093,8.5195,8.552,8.6217,8.6284,8.6284,8.6284,8.6284,8.6352,8.6569,8.6636,8.6771,8.6792,8.6555,8.625,8.6115,8.5824,8.5499,8.5418,8.4999,8.4647,8.4695,8.4614,8.4614,8.4627,8.468,8.4747,8.4733,8.4866,8.5181,8.5273,8.53,8.5511,8.5579,8.5489,8.5203,8.4698,8.4697,8.5045,8.4532,8.4338,8.4937,8.5247,8.4247,8.404,8.4764,8.5316,8.5673,8.5708,8.5949,8.6053,8.557,8.5052,8.4764,8.9134,8.9134,8.9134,8.9134,8.9134,8.9134,8.9134,8.9134,8.9134,8.9134,8.9134,8.9134,8.9134,8.9134,8.9134,8.9134,8.9134,8.9134,8.9134,8.9134,8.9134,8.9134,8.9134,8.9134,8.9134,8.9134,8.9134,8.91,8.91,8.9134,8.9134,8.9066,8.9134,8.8883,8.8463,8.8125,8.782,8.7299,8.667,8.6278,8.6196,8.5811,8.5405,8.527,8.5337,8.5303,8.4965,8.4945,8.4458,8.3612,8.3342,8.3443,8.3795,8.3828,8.4167,8.4843,8.4945,8.5168,8.5439,8.5574,8.5926,8.6535,8.6751,8.7123,8.7617,8.782,8.7786,8.7367,8.738,8.738,8.7414,8.7617,8.7786,8.7888,8.782,8.7583,8.7028,8.6196,8.6041,8.5892,8.5337,8.4749,8.4999,8.4817,8.4647,8.4593,8.4593,8.4606,8.462,8.4813,8.4958,8.5077,8.5168,8.5312,8.5476,8.5412,8.5352,8.4903,8.4963,8.5403,8.5307,8.4951,8.5488,8.5742,8.4984,8.4742,8.5432,8.588,8.5742,8.5846,8.6156,8.6191,8.5777,8.5501,8.5178,8.9134,8.9134,8.9134,8.9134,8.9134,8.9187,8.9289,8.9255,8.9438,8.9458,8.9424,8.9289,8.9323,8.9221,8.9187,8.912,8.9255,8.9154,8.9134,8.9134,8.9134,8.9134,8.9134,8.9134,8.9134,8.9134,8.9134,8.9134,8.9134,8.9134,8.9134,8.9134,8.9134,8.9134,8.8883,8.8477,8.8172,8.8023,8.7583,8.7279,8.7245,8.7144,8.6873,8.6548,8.6636,8.6974,8.6974,8.6893,8.6352,8.5168,8.4952,8.5168,8.577,8.5872,8.6196,8.667,8.6792,8.6859,8.7096,8.7144,8.7347,8.7902,8.8023,8.8375,8.8781,8.8849,8.8646,8.8158,8.8105,8.8139,8.8172,8.868,8.8849,8.8849,8.8951,8.8409,8.738,8.6467,8.6264,8.6792,8.5709,8.5371,8.5452,8.5351,8.4864,8.5033,8.4965,8.4864,8.4728,8.466,8.4826,8.4945,8.5024,8.509,8.5221,8.5338,8.5286,8.5123,8.5249,8.5506,8.5609,8.5563,8.5975,8.6018,8.5501,8.5501,8.5902,8.604,8.588,8.5949,8.626,8.6294,8.6225,8.6053,8.5764,8.9134,8.9134,8.9134,8.9134,8.9187,8.9715,8.9951,8.9951,9.0541,9.0608,9.0662,9.0188,8.9951,8.9903,8.9492,8.939,8.9816,8.9458,8.9134,8.9134,8.9134,8.9134,8.9134,8.9134,8.9134,8.9134,8.9134,8.9134,8.9134,8.9134,8.9134,8.9134,8.9134,8.9134,8.9052,8.8917,8.8849,8.8815,8.8646,8.8511,8.8477,8.8477,8.8409,8.8172,8.7922,8.8071,8.8375,8.8057,8.7888,8.7786,8.7076,8.6535,8.6704,8.6738,8.7076,8.755,8.7786,8.7989,8.8429,8.8511,8.8646,8.8748,8.8781,8.8917,8.9066,8.9134,8.9018,8.8849,8.8849,8.8781,8.8815,8.8951,8.9086,8.9134,8.91,8.8984,8.8578,8.7936,8.755,8.7482,8.6927,8.6453,8.6636,8.6467,8.6048,8.5689,8.5418,8.5236,8.5033,8.4864,8.491,8.5165,8.5077,8.513,8.4932,8.5024,8.5024,8.5077,8.5273,8.5428,8.5532,8.5776,8.603,8.6194,8.6191,8.6247,8.6282,8.6282,8.6122,8.6225,8.6294,8.6294,8.6294,8.6294,8.6294,8.9134,8.9134,8.9134,8.9134,8.9154,8.9526,8.9681,8.9748,9.0101,9.0473,9.0662,9.0343,9.0377,9.0681,9.0324,9.0391,9.0459,8.9951,8.9424,8.9201,8.9134,8.9134,8.9134,8.9134,8.9134,8.9134,8.9134,8.9134,8.9134,8.9134,8.9134,8.9134,8.9134,8.9134,8.9134,8.9134,8.91,8.91,8.9134,8.9134,8.9134,8.9134,8.9134,8.91,8.8714,8.8748,8.8951,8.8748,8.8748,8.8781,8.8375,8.7936,8.7922,8.7936,8.8158,8.8395,8.8545,8.8646,8.9032,8.9134,8.9066,8.9134,8.9134,8.9134,8.9134,8.9134,8.9134,8.9134,8.91,8.91,8.9134,8.91,8.9134,8.9134,8.9134,8.9134,8.8984,8.8477,8.8192,8.8158,8.7516,8.7245,8.7211,8.7245,8.6893,8.6332,8.6284,8.6149,8.6149,8.5912,8.5574,8.5574,8.5344,8.5141,8.4768,8.466,8.47,8.4839,8.5024,8.5155,8.5247,8.5571,8.5903,8.6017,8.6084,8.6282,8.6294,8.6294,8.6257,8.6282,8.6282,8.6282,8.6294,8.6294,8.6294,8.9134,8.9134,8.9134,8.9134,8.9134,8.9255,8.9357,8.9323,8.939,9.0087,9.029,9.0377,9.0763,9.1102,9.1034,9.1068,9.0763,9.0493,8.9748,8.9154,8.9134,8.9134,8.9134,8.9255,8.939,8.9255,8.9154,8.912,8.9134,8.9134,8.9134,8.9134,8.9134,8.9134,8.9134,8.9134,8.9134,8.9134,8.9134,8.9134,8.9134,8.9134,8.9134,8.91,8.9052,8.9018,8.91,8.9032,8.91,8.9134,8.9134,8.9134,8.9134,8.9134,8.91,8.9086,8.9018,8.9032,8.9066,8.9134,8.9134,8.9134,8.9134,8.9134,8.9134,8.9134,8.9134,8.9134,8.9134,8.9134,8.9134,8.9134,8.9134,8.9134,8.9134,8.9134,8.8998,8.8511,8.8578,8.8748,8.8274,8.7955,8.7888,8.7854,8.7448,8.7096,8.7062,8.7028,8.6995,8.6859,8.6386,8.6163,8.5993,8.5946,8.5608,8.5405,8.5303,8.5053,8.5158,8.5075,8.5147,8.5286,8.5583,8.5801,8.5941,8.6055,8.6128,8.6039,8.603,8.6181,8.6219,8.6181,8.6206,8.6282,8.6294,8.9134,8.9134,8.9134,8.9134,8.9187,8.9715,8.9918,9.0121,9.0493,9.0966,9.1034,9.1102,9.115,9.1237,9.0662,9.0154,9.0154,9.0222,8.9985,8.9357,8.9235,8.9187,8.9424,8.9695,8.9951,8.9816,8.956,8.9289,8.9201,8.9134,8.9201,8.9134,8.9134,8.9134,8.9134,8.9134,8.9134,8.9134,8.9134,8.9134,8.9134,8.9134,8.9134,8.9134,8.9134,8.9134,8.9134,8.9134,8.9134,8.9134,8.9134,8.9134,8.9134,8.9134,8.9134,8.9134,8.9134,8.9134,8.9134,8.9134,8.9134,8.9134,8.9134,8.9134,8.9134,8.9134,8.9134,8.9134,8.9134,8.9134,8.9134,8.9134,8.9134,8.9134,8.9134,8.9134,8.9066,8.8951,8.8849,8.8998,8.8781,8.8578,8.8511,8.8443,8.8192,8.7922,8.782,8.7617,8.74,8.7265,8.6961,8.6839,8.6738,8.6724,8.6623,8.6487,8.6318,8.5824,8.5634,8.533,8.528,8.51,8.5221,8.5416,8.5571,8.572,8.5733,8.5746,8.5823,8.5916,8.5979,8.6043,8.6131,8.6219,8.6282,8.8046,8.8137,8.8785,8.9134,8.9187,8.9458,8.9647,8.9695,9.0033,9.0405,9.0763,9.1102,9.1541,9.1778,9.2015,9.1541,9.102,9.1121,9.0932,9.0338,8.9898,8.9932,9.0053,9.029,9.0459,9.056,9.0405,8.9999,8.9695,8.9681,8.9458,8.9168,8.9134,8.9134,8.9134,8.9134,8.9134,8.9134,8.9134,8.9134,8.9134,8.9134,8.9134,8.9134,8.9134,8.9134,8.9134,8.9134,8.9134,8.9134,8.9134,8.9134,8.9134,8.9134,8.9134,8.9134,8.9134,8.9134,8.9134,8.9134,8.9134,8.9134,8.9134,8.9134,8.9134,8.9134,8.9134,8.9134,8.9134,8.9134,8.9134,8.9134,8.9134,8.9134,8.9134,8.9134,8.9134,8.9134,8.9134,8.9134,8.8998,8.8883,8.8998,8.8917,8.8849,8.8748,8.8578,8.8274,8.7888,8.782,8.7685,8.7448,8.7347,8.7211,8.7231,8.7231,8.7076,8.6636,8.6129,8.5824,8.5492,8.5314,8.5049,8.5005,8.5163,8.5385,8.5514,8.5592,8.5643,8.5673,8.5788,8.5916,8.6055,8.6156,8.6219,8.6717,8.6774,8.7843,8.8295,8.8295,8.8281,8.8238,8.8295,8.8262,8.8727,8.962,9.0195,9.0989,9.2102,9.2745,9.2827,9.2237,9.2102,9.1677,9.1184,9.0696,9.0763,9.0966,9.1034,9.1034,9.1459,9.1793,9.1271,9.0478,9.0174,8.9816,8.9492,8.9255,8.9134,8.9134,8.9134,8.9134,8.9134,8.9134,8.9134,8.9134,8.9134,8.9134,8.9134,8.9134,8.9134,8.9134,8.9134,8.9134,8.9134,8.9134,8.9134,8.9134,8.9134,8.9134,8.9134,8.9134,8.9134,8.9134,8.9134,8.9134,8.9134,8.9134,8.9134,8.9134,8.9134,8.9134,8.9134,8.9134,8.9134,8.9134,8.9134,8.9134,8.9134,8.9134,8.9134,8.9134,8.9134,8.9134,8.9134,8.9134,8.9134,8.9134,8.91,8.8984,8.8984,8.8815,8.8849,8.8578,8.868,8.8545,8.8206,8.7955,8.7685,8.7685,8.7786,8.7583,8.7279,8.6738,8.6332,8.5892,8.554,8.5249,8.5031,8.4926,8.5129,8.5273,8.5372,8.5299,8.5364,8.5596,8.575,8.5814,8.5967,8.6106,8.534,8.5355,8.5542,8.5572,8.5681,8.5727,8.565,8.5711,8.5804,8.631,8.7585,8.7834,8.9234,9.1102,9.2208,9.2063,9.1658,9.1537,9.1614,9.1546,9.1305,9.1271,9.1488,9.1967,9.2,9.2305,9.2909,9.2435,9.1474,9.0715,9.0208,8.9951,8.9458,8.9134,8.9134,8.9134,8.9134,8.9134,8.9134,8.9134,8.9134,8.9134,8.9134,8.9168,8.9134,8.9168,8.9221,8.9255,8.9187,8.912,8.9154,8.9154,8.9134,8.9134,8.9134,8.9134,8.9134,8.9134,8.9134,8.9134,8.9134,8.9134,8.9134,8.9134,8.9134,8.9134,8.9134,8.9134,8.9134,8.9134,8.9134,8.9134,8.9134,8.9134,8.9134,8.9134,8.9134,8.9134,8.9134,8.9134,8.9134,8.9134,8.9134,8.9134,8.91,8.91,8.9134,8.9134,8.9134,8.9134,8.9134,8.8714,8.8545,8.8308,8.8206,8.8308,8.8158,8.7888,8.7367,8.6839,8.6332,8.5892,8.552,8.5316,8.5199,8.5145,8.5381,8.5373,8.5054,8.505,8.5286,8.5416,8.5527,8.5733,8.5929,8.3611,8.4042,8.4791,8.5106,8.5106,8.5106,8.5106,8.5106,8.5106,8.5418,8.608,8.688,8.8334,9.0105,9.1331,9.1708,9.1456,9.1416,9.1934,9.2314,9.2184,9.215,9.2503,9.2522,9.2542,9.3064,9.3349,9.3315,9.2421,9.173,9.1155,9.0256,8.9884,8.9492,8.9221,8.9134,8.9134,8.9134,8.9134,8.9134,8.9134,8.9134,8.9289,8.9647,8.9309,8.939,8.9647,8.9715,8.9458,8.9424,8.9729,8.9864,8.9458,8.9424,8.9627,8.912,8.956,8.9526,8.9201,8.9168,8.9201,8.912,8.912,8.9134,8.9134,8.9134,8.9134,8.9134,8.9134,8.9134,8.9134,8.9134,8.9134,8.9134,8.9134,8.9134,8.9134,8.9134,8.9134,8.9134,8.9134,8.9134,8.9134,8.9134,8.9134,8.9134,8.9134,8.9134,8.9134,8.9134,8.9134,8.9066,8.8998,8.8931,8.8849,8.8849,8.8714,8.8429,8.7955,8.738,8.6738,8.6298,8.6027,8.596,8.5993,8.5912,8.5763,8.531,8.4963,8.4934,8.4958,8.5103,8.5281,8.5489,8.5695,8.2382,8.295,8.391,8.4251,8.4091,8.4107,8.4043,8.4059,8.3994,8.4235,8.5035,8.6339,8.7826,8.8892,9.0225,9.1148,9.1791,9.1594,9.2377,9.2946,9.3131,9.3064,9.318,9.303,9.3064,9.3601,9.3552,9.3484,9.3383,9.2895,9.1967,9.0749,9.0324,8.9951,8.9492,8.9221,8.9134,8.912,8.9357,8.9323,8.9154,8.9134,8.9526,8.9782,8.9782,8.9715,9.0343,9.0493,9.0121,9.0101,9.056,9.0628,9.0067,9.0222,9.029,9.0033,9.029,9.029,8.9999,8.9864,8.9661,8.9593,8.9357,8.939,8.9134,8.9134,8.9134,8.9134,8.9134,8.9134,8.9134,8.9134,8.9134,8.9134,8.9134,8.9134,8.9134,8.9134,8.9134,8.9134,8.9134,8.9134,8.9134,8.9134,8.9134,8.9134,8.9134,8.9134,8.9134,8.9134,8.9134,8.9134,8.9134,8.91,8.91,8.9086,8.9052,8.8781,8.8294,8.7786,8.7042,8.6805,8.667,8.667,8.6738,8.6805,8.6724,8.5777,8.4898,8.5072,8.5165,8.4994,8.5024,8.5268,8.545,8.2103,8.2177,8.2302,8.2117,8.1577,8.1375,8.1461,8.1737,8.1549,8.2357,8.3819,8.584,8.712,8.777,8.8947,9.044,9.2185,9.1746,9.2196,9.2939,9.3537,9.3381,9.3459,9.3484,9.3451,9.3586,9.3601,9.3601,9.3586,9.3484,9.2895,9.2237,9.1121,9.0459,9.0019,8.9729,8.9458,8.9526,8.9782,8.9748,8.9424,8.9323,8.9627,9.0154,9.029,9.0459,9.1135,9.1237,9.1068,9.0899,9.1372,9.1338,9.0932,9.1102,9.1068,9.0899,9.1068,9.1102,9.1,9.0865,9.1048,9.0913,9.0527,8.9884,8.939,8.9187,8.9134,8.9168,8.9221,8.9187,8.9154,8.9134,8.9289,8.9134,8.9134,8.9134,8.9134,8.9134,8.9134,8.9134,8.9134,8.9134,8.9134,8.9134,8.9134,8.9134,8.9134,8.9134,8.9134,8.9134,8.9134,8.9134,8.9134,8.91,8.9086,8.9018,8.8781,8.8511,8.8091,8.7651,8.7144,8.711,8.7211,8.7299,8.7347,8.755,8.7516,8.6521,8.5777,8.5554,8.5404,8.5133,8.4915,8.4958,8.5168,8.2481,8.2143,8.2543,8.2345,8.1681,8.1267,8.1082,8.1082,8.1113,8.2096,8.3843,8.5315,8.6435,8.716,8.7625,8.8633,8.9703,8.9157,9.0404,9.1681,9.2346,9.2819,9.3182,9.3556,9.3586,9.3601,9.3601,9.3601,9.3601,9.3601,9.3484,9.2841,9.1981,9.1372,9.0899,9.056,9.0439,9.0304,9.0324,9.0188,9.0459,9.0019,9.0357,9.1459,9.1,9.1305,9.1865,9.1967,9.1711,9.1691,9.2232,9.2063,9.1677,9.1812,9.1778,9.1575,9.1778,9.1967,9.1865,9.1643,9.1305,9.1271,9.0966,9.056,8.9884,8.9782,8.9492,8.9424,8.956,8.9695,8.9187,8.9492,8.9681,8.9289,8.9168,8.9201,8.9134,8.9134,8.9134,8.9134,8.9134,8.9134,8.9134,8.9134,8.9134,8.9134,8.9134,8.9134,8.9134,8.9134,8.9134,8.9134,8.9134,8.9134,8.9086,8.8815,8.8531,8.8192,8.7888,8.7617,8.7347,8.7617,8.7753,8.782,8.7922,8.8023,8.782,8.7177,8.6636,8.6196,8.5723,8.5296,8.5045,8.4916,8.513,8.2727,8.2446,8.288,8.2669,8.2033,8.139,8.1342,8.1668,8.1712,8.2697,8.4413,8.4906,8.5623,8.6418,8.6323,8.7003,8.762,8.7653,8.8748,9.0016,9.1227,9.1961,9.2774,9.3345,9.3601,9.3601,9.3601,9.3601,9.3601,9.3601,9.3552,9.3383,9.303,9.2353,9.1798,9.1628,9.1541,9.1203,9.1169,9.085,9.1203,9.0865,9.102,9.2102,9.1831,9.2068,9.2542,9.2759,9.2556,9.2571,9.2774,9.2909,9.259,9.2353,9.2421,9.2353,9.2387,9.2711,9.2575,9.2387,9.188,9.1778,9.1677,9.1237,9.0763,9.0527,9.029,9.0019,9.0256,9.029,8.9729,9.0222,9.0188,8.9816,8.9627,8.9593,8.9221,8.9134,8.9134,8.9134,8.9134,8.9134,8.9134,8.9134,8.9134,8.9134,8.9134,8.9134,8.9134,8.9134,8.9134,8.9134,8.9134,8.9134,8.91,8.8815,8.8511,8.7955,8.7719,8.7753,8.7685,8.7922,8.8057,8.7989,8.8125,8.8443,8.8274,8.7786,8.7245,8.6704,8.6264,8.5858,8.5892,8.5831,8.5682,8.2773,8.3035,8.2984,8.2652,8.2165,8.1435,8.1813,8.2648,8.285,8.368,8.4868,8.4776,8.5096,8.5531,8.5164,8.5522,8.6601,8.641,8.7069,8.867,9.0129,9.1007,9.2007,9.2789,9.3601,9.3601,9.3601,9.3601,9.3601,9.3601,9.3601,9.3601,9.3383,9.3078,9.244,9.2373,9.2015,9.1541,9.2034,9.1798,9.1677,9.144,9.1798,9.2339,9.2508,9.2778,9.3165,9.3349,9.3214,9.3281,9.3315,9.3398,9.3315,9.3281,9.3315,9.3349,9.3383,9.3484,9.3484,9.3484,9.303,9.2489,9.2421,9.2034,9.1474,9.1271,9.1135,9.0797,9.1135,9.1203,9.1184,9.1169,9.0797,9.0459,9.0256,9.0087,8.9763,8.9357,8.9424,8.9357,8.9201,8.9134,8.9134,8.9134,8.9134,8.9134,8.9134,8.9134,8.9134,8.9134,8.9134,8.8984,8.8951,8.8781,8.8748,8.8761,8.8477,8.7854,8.7482,8.738,8.7719,8.8091,8.8158,8.8091,8.8023,8.8091,8.8342,8.8511,8.8071,8.7597,8.7008,8.6656,8.6724,8.6623,8.6386,8.3386,8.3123,8.3532,8.3455,8.299,8.2525,8.2343,8.2374,8.2844,8.3972,8.5142,8.4616,8.5283,8.582,8.4951,8.4679,8.5636,8.5084,8.5551,8.7069,8.877,9.0113,9.1227,9.2544,9.3527,9.3586,9.3586,9.3571,9.3601,9.3601,9.3601,9.3601,9.3586,9.3451,9.3267,9.3199,9.3011,9.2774,9.2658,9.2474,9.2706,9.2387,9.2387,9.3098,9.3131,9.33,9.3586,9.3601,9.3601,9.3601,9.3601,9.3601,9.3601,9.3601,9.3601,9.3601,9.3601,9.3601,9.3601,9.3552,9.347,9.3233,9.3064,9.2759,9.217,9.2068,9.1812,9.1609,9.188,9.1778,9.1406,9.1798,9.1628,9.1135,9.0932,9.0899,9.0628,9.0154,8.987,8.9748,8.9593,8.9255,8.9134,8.9134,8.9134,8.9134,8.9134,8.9134,8.9134,8.9134,8.91,8.8883,8.8714,8.8477,8.8328,8.8274,8.7936,8.7245,8.6941,8.6805,8.7293,8.7955,8.8023,8.7854,8.7753,8.7685,8.8206,8.8646,8.8849,8.8545,8.782,8.7279,8.7164,8.7028,8.6758,8.3114,8.3082,8.3471,8.3612,8.3374,8.2979,8.265,8.2735,8.3536,8.486,8.5812,8.5232,8.5342,8.5911,8.4994,8.3875,8.4556,8.3976,8.387,8.5439,8.7486,8.8836,9.0306,9.213,9.3092,9.3379,9.3438,9.3453,9.3586,9.3601,9.3601,9.3601,9.3601,9.3552,9.3552,9.3518,9.3518,9.3315,9.3131,9.3064,9.3199,9.3165,9.303,9.3417,9.3552,9.3601,9.3601,9.3601,9.3601,9.3601,9.3601,9.3601,9.3601,9.3601,9.3601,9.3601,9.3601,9.3601,9.3601,9.3601,9.3552,9.3518,9.3601,9.3349,9.2914,9.2812,9.2624,9.2489,9.259,9.2455,9.2252,9.2677,9.2421,9.1894,9.1677,9.1643,9.1237,9.0729,9.0377,9.0222,8.9918,8.956,8.912,8.9134,8.9134,8.9134,8.9134,8.9134,8.9134,8.9134,8.91,8.8917,8.868,8.8477,8.8125,8.7719,8.7279,8.6636,8.6501,8.6514,8.6839,8.7482,8.755,8.7685,8.7719,8.7888,8.8375,8.8714,8.8917,8.8883,8.8443,8.7989,8.7685,8.755,8.7448,8.2043,8.2831,8.2845,8.3116,8.3261,8.2815,8.304,8.4015,8.5209,8.6149,8.6896,8.6332,8.6022,8.5361,8.4256,8.3598,8.3273,8.3066,8.324,8.4326,8.662,8.7742,8.9299,9.1244,9.2611,9.3051,9.3171,9.3335,9.3542,9.3586,9.3586,9.3601,9.3601,9.3601,9.3601,9.3601,9.3601,9.3518,9.3484,9.3451,9.3484,9.3518,9.3451,9.3601,9.3601,9.3601,9.3601,9.3601,9.3601,9.3601,9.3601,9.3601,9.3601,9.3601,9.3601,9.3601,9.3601,9.3601,9.3601,9.3601,9.3601,9.3601,9.3601,9.3586,9.3518,9.3368,9.3214,9.318,9.3281,9.3383,9.3484,9.3315,9.3165,9.2793,9.2474,9.217,9.1744,9.1338,9.102,9.0729,9.0324,8.9884,8.9255,8.9134,8.9134,8.9134,8.9134,8.9134,8.9134,8.9134,8.91,8.9066,8.8815,8.8578,8.8139,8.755,8.6873,8.6332,8.6467,8.6535,8.6839,8.7028,8.7177,8.738,8.7719,8.8023,8.8342,8.868,8.9032,8.8883,8.8714,8.868,8.8375,8.8545,8.8511,8.308,8.2972,8.3405,8.3491,8.333,8.2912,8.3624,8.5091,8.5182,8.5682,8.6734,8.6146,8.5963,8.5886,8.4438,8.3917,8.3535,8.3216,8.2931,8.4142,8.6164,8.7299,8.8936,9.0833,9.2273,9.2777,9.2928,9.3126,9.329,9.3438,9.3586,9.3601,9.3601,9.3601,9.3601,9.3601,9.3601,9.3601,9.3601,9.3601,9.3601,9.3601,9.3601,9.3601,9.3601,9.3601,9.3601,9.3601,9.3601,9.3601,9.3601,9.3601,9.3601,9.3601,9.3601,9.3601,9.3601,9.3601,9.3601,9.3601,9.3601,9.3601,9.3601,9.3601,9.3601,9.3601,9.3601,9.3601,9.3601,9.3601,9.3601,9.3518,9.3451,9.3267,9.303,9.2861,9.2469,9.2184,9.1846,9.1223,9.0831,8.9918,8.9323,8.9134,8.9134,8.9134,8.9134,8.9134,8.9134,8.9134,8.91,8.9066,8.8849,8.8578,8.8057,8.7516,8.6738,8.6142,8.6366,8.6602,8.6873,8.7008,8.6941,8.7211,8.7753,8.7989,8.8125,8.8578,8.91,8.9134,8.8998,8.9066,8.9134,8.9134,8.9134,8.3019,8.291,8.3291,8.3341,8.3146,8.2901,8.3775,8.5043,8.4863,8.5222,8.5851,8.607,8.6078,8.5855,8.499,8.4361,8.3904,8.3481,8.3106,8.358,8.597,8.7038,8.8603,9.0467,9.1966,9.2429,9.2626,9.2792,9.3062,9.3409,9.3601,9.3601,9.3601,9.3601,9.3601,9.3601,9.3601,9.3601,9.3601,9.3601,9.3601,9.3601,9.3601,9.3601,9.3601,9.3601,9.3601,9.3601,9.3601,9.3601,9.3601,9.3601,9.3601,9.3601,9.3601,9.3601,9.3601,9.3601,9.3601,9.3601,9.3601,9.3601,9.3601,9.3601,9.3601,9.3601,9.3601,9.3601,9.3601,9.3601,9.3601,9.3601,9.3601,9.3552,9.3552,9.3552,9.3349,9.3112,9.2522,9.1846,9.1,8.9985,8.9458,8.9255,8.9134,8.9134,8.9134,8.9134,8.9134,8.9134,8.9134,8.91,8.8815,8.8511,8.8023,8.7685,8.7144,8.6636,8.6535,8.6738,8.6974,8.7076,8.7144,8.7448,8.7922,8.8158,8.8409,8.8714,8.9134,8.9134,8.9134,8.9134,8.9134,8.9134,8.9134,8.2238,8.2795,8.2806,8.2863,8.2806,8.2806,8.3446,8.4515,8.4604,8.4814,8.5222,8.62,8.6349,8.6009,8.5511,8.4803,8.4222,8.3696,8.3236,8.2958,8.5426,8.6844,8.8014,8.9936,9.1326,9.1858,9.2214,9.2535,9.2988,9.3305,9.3468,9.3556,9.3586,9.3586,9.3601,9.3601,9.3601,9.3601,9.3601,9.3601,9.3601,9.3601,9.3601,9.3601,9.3601,9.3601,9.3601,9.3601,9.3601,9.3601,9.3601,9.3601,9.3601,9.3601,9.3601,9.3601,9.3601,9.3601,9.3601,9.3601,9.3601,9.3601,9.3601,9.3601,9.3601,9.3601,9.3601,9.3601,9.3601,9.3601,9.3601,9.3601,9.3601,9.3601,9.3601,9.3601,9.3484,9.3248,9.2861,9.215,9.1237,9.029,8.9613,8.9424,8.9134,8.9134,8.9134,8.9134,8.9134,8.9134,8.9134,8.9134,8.8917,8.868,8.8477,8.8125,8.7753,8.7347,8.7076,8.711,8.7482,8.7482,8.7347,8.7753,8.8158,8.8511,8.8815,8.9032,8.9134,8.9134,8.9134,8.9134,8.9134,8.9134,8.9134,8.2657,8.2806,8.2806,8.2806,8.2806,8.2806,8.2986,8.3356,8.4325,8.5222,8.614,8.6499,8.6619,8.6379,8.593,8.5252,8.4545,8.3976,8.3367,8.3492,8.5006,8.6599,8.7414,8.938,9.0676,9.15,9.1999,9.2337,9.2732,9.3033,9.3245,9.329,9.3409,9.3542,9.3542,9.3556,9.3586,9.3542,9.3586,9.3586,9.3601,9.3601,9.3601,9.3601,9.3601,9.3601,9.3601,9.3601,9.3601,9.3601,9.3601,9.3601,9.3601,9.3601,9.3601,9.3601,9.3601,9.3601,9.3601,9.3601,9.3601,9.3601,9.3601,9.3601,9.3601,9.3601,9.3601,9.3601,9.3601,9.3601,9.3601,9.3601,9.3601,9.3601,9.3601,9.3601,9.3601,9.3349,9.3098,9.2319,9.1474,9.0763,9.0087,8.9545,8.9221,8.9134,8.9134,8.9134,8.9134,8.9134,8.9134,8.9134,8.9134,8.8917,8.8748,8.8612,8.826,8.8023,8.7786,8.7888,8.8037,8.8105,8.8172,8.8172,8.8409,8.8748,8.8951,8.9066,8.9134,8.9134,8.9134,8.9134,8.9134,8.9134,8.9134,8.2806,8.2806,8.2806,8.2806,8.2806,8.2806,8.2937,8.3307,8.3946,8.4993,8.621,8.6529,8.6678,8.6678,8.6289,8.5541,8.4814,8.4335,8.3606,8.3545,8.471,8.6301,8.7706,8.9133,9.0596,9.1594,9.192,9.2276,9.2535,9.2762,9.2928,9.3201,9.3409,9.3394,9.3409,9.3483,9.3512,9.3379,9.3512,9.3586,9.3601,9.3601,9.3601,9.3601,9.3601,9.3601,9.3601,9.3601,9.3601,9.3601,9.3601,9.3601,9.3601,9.3601,9.3601,9.3601,9.3601,9.3601,9.3601,9.3601,9.3601,9.3601,9.3601,9.3601,9.3601,9.3601,9.3601,9.3601,9.3601,9.3601,9.3601,9.3601,9.3601,9.3601,9.3601,9.3601,9.3601,9.3484,9.3064,9.244,9.1831,9.1493,9.0783,9.0087,8.9796,8.956,8.9492,8.9187,8.9154,8.9134,8.9134,8.9134,8.9134,8.9134,8.8998,8.8917,8.8801,8.8612,8.8409,8.8511,8.8612,8.8849,8.8984,8.8781,8.8714,8.8931,8.91,8.9134,8.9134,8.9134,8.9134,8.9134,8.9134,8.9134,8.9134,8.2717,8.2806,8.2806,8.2806,8.2806,8.2806,8.3087,8.3497,8.3688,8.4425,8.5551,8.6259,8.6559,8.6678,8.6648,8.578,8.5103,8.4684,8.3895,8.3827,8.5145,8.6195,8.7672,8.9397,9.0484,9.131,9.186,9.2107,9.2352,9.252,9.2762,9.326,9.3245,9.3048,9.3152,9.332,9.3409,9.3379,9.3468,9.3571,9.3601,9.3601,9.3601,9.3601,9.3601,9.3601,9.3601,9.3601,9.3601,9.3601,9.3601,9.3601,9.3601,9.3601,9.3601,9.3601,9.3601,9.3601,9.3601,9.3601,9.3601,9.3601,9.3601,9.3601,9.3601,9.3601,9.3601,9.3601,9.3601,9.3601,9.3601,9.3601,9.3601,9.3601,9.3601,9.3601,9.3601,9.3601,9.3131,9.2575,9.2305,9.2034,9.1527,9.0783,9.0391,9.0188,8.9884,8.9512,8.9255,8.9154,8.9134,8.9134,8.9134,8.9134,8.9134,8.9086,8.9018,8.8984,8.8815,8.8998,8.91,8.91,8.9086,8.91,8.91,8.9134,8.9134,8.9134,8.9134,8.9134,8.9134,8.9134,8.9134,8.9134,8.9134,8.2309,8.2806,8.2806,8.2806,8.2806,8.2806,8.2866,8.3057,8.3497,8.4186,8.4893,8.5581,8.614,8.6678,8.6708,8.614,8.5432,8.4983,8.4305,8.4007,8.433,8.5457,8.709,8.8952,8.9724,9.0772,9.1705,9.1751,9.2076,9.2199,9.2276,9.2505,9.2732,9.2807,9.3048,9.3201,9.3245,9.329,9.3423,9.3542,9.3586,9.3601,9.3601,9.3601,9.3601,9.3601,9.3601,9.3601,9.3601,9.3601,9.3601,9.3601,9.3601,9.3601,9.3601,9.3601,9.3601,9.3601,9.3601,9.3601,9.3601,9.3601,9.3601,9.3601,9.3601,9.3601,9.3601,9.3601,9.3601,9.3601,9.3601,9.3601,9.3601,9.3601,9.3601,9.3601,9.3601,9.3601,9.3417,9.303,9.2759,9.2542,9.2271,9.1662,9.1169,9.0865,9.0459,9.0087,8.9918,8.9593,8.9201,8.9201,8.9235,8.9134,8.9134,8.9134,8.9086,8.91,8.9134,8.9134,8.9134,8.9134,8.9134,8.9134,8.9134,8.9134,8.9134,8.9134,8.9134,8.9134,8.9134,8.9134,8.9134,8.9134,8.9134]},{"header":{"parameterUnit":"m.s-1","parameterCategory":1,"la1":31.0,"la2":29.5877,"lo1":-88.7671,"lo2":-86.6584,"dy":0.0162,"dx":0.0185,"nx":115,"ny":88,"refTime":"2026-04-05T00:00:00:Z","depth":0,"parameterNumber":3,"parameterNumberName":"V-component_of_WINDS"},"data":[0.0,0.0,0.0,0.0,0.0,0.0,0.0,0.0,0.0,0.0,0.0,0.0,0.0,0.0,0.0,0.0,0.0,0.0,0.0,0.0,0.0,0.0,0.0,0.0,0.0,0.0,0.0,0.0,0.0,0.0,0.0,0.0,0.0,0.0,0.0,0.0,0.0,0.0,0.0,0.0,0.0,0.0,0.0,0.0,0.0,0.0,0.0,0.0,0.0,0.0,0.0,0.0,0.0,0.0,0.0,0.0,0.0,0.0,0.0,0.0,0.0,0.0,0.0,0.0,0.0,0.0,0.0,0.0,0.0,0.0,0.0,0.0,0.0,0.0,0.0,0.0,0.0,0.0,0.0,0.0,0.0,0.0,0.0,0.0,0.0,0.0,0.0,0.0,0.0,0.0,0.0,0.0,0.0,0.0,0.0,0.0,0.0,0.0,0.0,0.0,0.0,0.0,0.0,0.0,0.0,0.0,0.0,0.0,0.0,0.0,0.0,0.0,0.0,0.0,0.0,0.0,0.0,0.0,0.0,0.0,0.0,0.0,0.0,0.0,0.0,0.0,0.0,0.0,0.0,0.0,0.0,0.0,0.0,0.0,0.0,0.0,0.0,0.0,0.0,0.0,0.0,0.0,0.0,0.0,0.0,0.0,0.0,0.0,0.0,0.0,0.0,0.0,0.0,0.0,0.0,0.0,0.0,0.0,0.0,0.0,0.0,0.0,0.0,0.0,0.0,0.0,0.0,0.0,0.0,0.0,0.0,0.0,0.0,0.0,0.0,0.0,0.0,0.0,0.0,0.0,0.0,0.0,0.0,0.0,0.0,0.0,0.0,0.0,0.0,0.0,0.0,0.0,0.0,0.0,0.0,0.0,0.0,0.0,0.0,0.0,0.0,0.0,0.0,0.0,0.0,0.0,0.0,0.0,0.0,0.0,0.0,0.0,0.0,0.0,0.0,0.0,0.0,0.0,0.0,0.0,0.0,0.0,0.0,0.0,0.0,0.0,0.0,0.0,0.0,0.0,0.0,0.0,0.0,0.0,0.0,0.0,0.0,0.0,0.0,0.0,0.0,0.0,0.0,0.0,0.0,0.0,0.0,0.0,0.0,0.0,0.0,0.0,0.0,0.0,0.0,0.0,0.0,0.0,0.0,0.0,0.0,0.0,0.0,0.0,0.0,0.0,0.0,0.0,0.0,0.0,0.0,0.0,0.0,0.0,0.0,0.0,0.0,0.0,0.0,0.0,0.0,0.0,0.0,0.0,0.0,0.0,0.0,0.0,0.0,0.0,0.0,0.0,0.0,0.0,0.0,0.0,0.0,0.0,0.0,0.0,0.0,0.0,0.0,0.0,0.0,0.0,0.0,0.0,0.0,0.0,0.0,0.0,0.0,0.0,0.0,0.0,0.0,0.0,0.0,0.0,0.0,0.0,0.0,0.0,0.0,0.0,0.0,0.0,0.0,0.0,0.0,0.0,0.0,0.0,0.0,0.0,0.0,0.0,0.0,0.0,0.0,0.0,0.0,0.0,0.0,0.0,0.0,0.0,0.0,0.0,0.0,0.0,0.0,0.0,0.0,0.0,0.0,0.0,0.0,0.0,0.0,0.0,0.0,0.0,0.0,0.0,0.0,0.0,0.0,0.0,0.0,0.0,0.0,0.0,0.0,0.0,0.0,0.0,0.0,0.0,0.0,0.0,0.0,0.0,0.0,0.0,0.0,0.0,0.0,0.0,0.0,0.0,0.0,0.0,0.0,0.0,0.0,0.0,0.0,0.0,0.0,0.0,0.0,0.0,0.0,0.0,0.0,0.0,0.0,0.0,0.0,0.0,0.0,0.0,0.0,0.0,0.0,0.0,0.0,0.0,0.0,0.0,0.0,0.0,0.0,0.0,0.0,0.0,0.0,0.0,0.0,0.0,0.0,0.0,0.0,0.0,0.0,0.0,0.0,0.0,0.0,0.0,0.0,0.0,0.0,0.0,0.0,0.0,0.0,0.0,0.0,0.0,0.0,0.0,0.0,0.0,0.0,0.0,0.0,0.0,0.0,0.0,0.0,0.0,0.0,0.0,0.0,0.0,0.0,0.0,0.0,0.0,0.0,0.0,0.0,0.0,0.0,0.0,0.0,0.0,0.0,0.0,0.0,0.0,0.0,0.0,0.0,0.0,0.0,0.0,0.0,0.0,0.0,0.0,0.0,0.0,0.0,0.0,0.0,0.0,0.0,0.0,0.0,0.0,0.0,0.0,0.0,0.0,0.0,0.0,0.0,0.0,0.0,0.0,0.0,0.0,0.0,0.0,0.0,0.0,0.0,0.0,0.0,0.0,0.0,0.0,0.0,0.0,0.0,0.0,0.0,0.0,0.0,0.0,0.0,0.0,0.0,0.0,0.0,0.0,0.0,0.0,0.0,0.0,0.0,0.0,0.0,0.0,0.0,0.0,0.0,0.0,0.0,0.0,0.0,0.0,0.0,0.0,0.0,0.0,0.0,0.0,0.0,0.0,0.0,0.0,0.0,0.0,0.0,0.0,0.0,0.0,0.0,0.0,0.0,0.0,0.0,0.0,0.0,0.0,0.0,0.0,0.0,0.0,0.0,0.0,0.0,0.0,0.0,0.0,0.0,0.0,0.0,0.0,0.0,0.0,0.0,0.0,0.0,0.0,0.0,0.0,0.0,0.0,0.0,0.0,0.0,0.0,0.0,0.0,0.0,0.0,0.0,0.0,0.0,0.0,0.0,0.0,0.0,0.0,0.0,0.0,0.0,0.0,0.0,0.0,0.0,0.0,0.0,0.0,0.0,0.0,0.0,0.0,0.0,0.0,0.0,0.0,0.0,0.0,0.0,0.0,0.0,0.0,0.0,0.0,0.0,0.0,0.0,0.0,0.0,0.0,0.0,0.0,0.0,0.0,0.0,0.0,0.0,0.0,0.0,0.0,0.0,0.0,0.0,0.0,0.0,0.0,0.0,0.0,0.0,0.0,0.0,0.0,0.0,0.0,0.0,0.0,0.0,0.0,0.0,0.0,0.0,0.0,0.0,0.0,0.0,0.0,0.0,0.0,0.0,0.0,0.0,0.0,0.0,0.0,0.0,0.0,0.0,0.0,0.0,0.0,0.0,0.0,0.0,0.0,0.0,0.0,0.0,0.0,0.0,0.0,0.0,0.0,0.0,0.0,0.0,0.0,0.0,0.0,0.0,0.0,0.0,0.0,0.0,0.0,0.0,0.0,0.0,0.0,0.0,0.0,0.0,0.0,0.0,0.0,0.0,0.0,0.0,0.0,0.0,0.0,0.0,0.0,0.0,0.0,0.0,0.0,0.0,0.0,0.0,0.0,0.0,0.0,0.0,0.0,0.0,0.0,0.0,0.0,0.0,0.0,0.0,0.0,0.0,0.0,0.0,0.0,0.0,0.0,0.0,0.0,0.0,0.0,0.0,0.0,0.0,0.0,0.0,0.0,0.0,0.0,0.0,0.0,0.0,0.0,0.0,0.0,0.0,0.0,0.0,0.0,0.0,0.0,0.0,0.0,0.0,0.0,0.0,0.0,0.0,0.0,0.0,0.0,0.0,0.0,0.0,0.0,0.0,0.0,0.0,0.0,0.0,0.0,0.0,0.0,0.0,0.0,0.0,0.0,0.0,0.0,0.0,0.0,0.0,0.0,0.0,0.0,0.0,0.0,0.0,0.0,0.0,0.0,0.0,0.0,0.0,0.0,0.0,0.0,0.0,0.0,0.0,0.0,0.0,0.0,0.0,0.0,0.0,0.0,0.0,0.0,0.0,0.0,0.0,0.0,0.0,0.0,0.0,0.0,0.0,0.0,0.0,0.0,0.0,0.0,0.0,0.0,0.0,0.0,0.0,0.0,0.0,0.0,0.0,0.0,0.0,0.0,0.0,0.0,0.0,0.0,0.0,0.0,0.0,0.0,0.0,0.0,0.0,0.0,0.0,0.0,0.0,0.0,0.0,0.0,0.0,0.0,0.0,0.0,0.0,0.0,0.0,0.0,0.0,0.0,0.0,0.0,0.0,0.0,0.0,0.0,0.0,0.0,0.0,0.0,0.0,0.0,0.0,0.0,0.0,0.0,0.0,0.0,0.0,0.0,0.0,0.0,0.0,0.0,0.0,0.0,0.0,0.0,0.0,0.0,0.0,0.0,0.0,0.0,0.0,0.0,0.0,0.0,0.0,0.0,0.0,0.0,0.0,0.0,0.0,0.0,0.0,0.0,0.0,0.0,0.0,0.0,0.0,0.0,0.0,0.0,0.0,0.0,0.0,0.0,1.7635,0.0,0.0,0.0,0.0,0.0,0.0,0.0,0.0,0.0,0.0,0.0,0.0,0.0,0.0,0.0,0.0,0.0,0.0,0.0,0.0,0.0,0.0,0.0,0.0,0.0,0.0,0.0,0.0,0.0,0.0,0.0,0.0,0.0,0.0,0.0,0.0,0.0,0.0,0.0,0.0,0.0,0.0,0.0,0.0,0.0,0.0,0.0,0.0,0.0,0.0,0.0,0.0,0.0,0.0,0.0,0.0,0.0,0.0,0.0,0.0,0.0,0.0,0.0,0.0,0.0,0.0,0.0,0.0,0.0,0.0,0.0,0.0,0.0,0.0,0.0,0.0,0.0,0.0,0.0,0.0,0.0,0.0,0.0,0.0,0.0,0.0,0.0,0.0,0.0,0.0,0.0,0.0,0.0,0.0,0.0,0.0,0.0,0.0,0.0,0.0,0.0,0.0,0.0,0.0,0.0,0.0,0.0,0.0,0.0,0.0,1.932,1.9173,1.8745,1.8371,1.809,0.0,0.0,0.0,0.0,0.0,0.0,0.0,0.0,0.0,0.0,0.0,0.0,0.0,0.0,0.0,0.0,0.0,0.0,0.0,0.0,0.0,0.0,0.0,0.0,0.0,0.0,0.0,0.0,0.0,0.0,0.0,0.0,0.0,0.0,0.0,0.0,0.0,0.0,0.0,0.0,0.0,0.0,0.0,0.0,0.0,0.0,0.0,0.0,0.0,0.0,0.0,0.0,0.0,0.0,0.0,0.0,0.0,0.0,0.0,0.0,0.0,0.0,0.0,0.0,0.0,0.0,0.0,0.0,0.0,0.0,0.0,0.0,0.0,0.0,0.0,0.0,0.0,0.0,0.0,0.0,0.0,0.0,0.0,0.0,0.0,0.0,0.0,0.0,0.0,0.0,0.0,0.0,0.0,0.0,0.0,0.0,0.0,0.0,0.0,0.0,0.0,0.0,0.0,0.0,0.0,0.0,0.0,0.0,0.0,0.0,0.0,0.0,1.8972,1.8571,1.829,0.0,0.0,0.0,0.0,0.0,0.0,0.0,0.0,0.0,0.0,0.0,0.0,0.0,0.0,0.0,0.0,0.0,0.0,0.0,0.0,0.0,0.0,0.0,0.0,0.0,0.0,0.0,0.0,0.0,0.0,0.0,0.0,0.0,0.0,0.0,0.0,0.0,0.0,0.0,0.0,0.0,0.0,0.0,0.0,0.0,0.0,0.0,0.0,0.0,0.0,0.0,0.0,0.0,0.0,0.0,0.0,0.0,0.0,0.0,0.0,0.0,0.0,0.0,0.0,0.0,0.0,0.0,0.0,0.0,0.0,0.0,0.0,0.0,0.0,0.0,0.0,0.0,0.0,0.0,0.0,0.0,0.0,0.0,0.0,0.0,0.0,0.0,0.0,0.0,0.0,0.0,0.0,0.0,0.0,0.0,0.0,0.0,0.0,0.0,0.0,0.0,0.0,0.0,0.0,0.0,0.0,0.0,0.0,0.0,0.0,1.9522,1.9746,1.9468,0.0,1.7782,0.0,0.0,0.0,0.0,0.0,0.0,0.0,0.0,0.0,0.0,0.0,0.0,0.0,0.0,0.0,0.0,0.0,0.0,0.0,0.0,0.0,0.0,0.0,0.0,0.0,0.0,0.0,0.0,0.0,0.0,0.0,0.0,0.0,0.0,0.0,0.0,0.0,0.0,0.0,0.0,0.0,0.0,0.0,0.0,0.0,0.0,0.0,0.0,0.0,0.0,0.0,0.0,0.0,0.0,0.0,0.0,0.0,0.0,0.0,0.0,0.0,0.0,0.0,0.0,0.0,0.0,0.0,0.0,0.0,0.0,0.0,0.0,0.0,0.0,0.0,0.0,0.0,0.0,0.0,0.0,0.0,0.0,0.0,0.0,0.0,0.0,0.0,0.0,0.0,0.0,0.0,0.0,0.0,0.0,0.0,0.0,0.0,0.0,0.0,0.0,0.0,0.0,0.0,0.0,0.0,0.0,0.0,0.0,0.0,0.0,0.0,1.9815,1.92,1.8464,0.0,0.0,0.0,0.0,0.0,0.0,0.0,0.0,0.0,0.0,0.0,0.0,0.0,0.0,0.0,0.0,0.0,0.0,0.0,0.0,0.0,0.0,0.0,0.0,0.0,0.0,0.0,0.0,0.0,0.0,0.0,0.0,0.0,0.0,0.0,0.0,0.0,0.0,0.0,0.0,0.0,0.0,0.0,0.0,0.0,0.0,0.0,0.0,0.0,0.0,0.0,0.0,0.0,0.0,0.0,0.0,0.0,0.0,0.0,0.0,0.0,0.0,0.0,0.0,0.0,0.0,0.0,0.0,0.0,0.0,0.0,0.0,0.0,0.0,0.0,0.0,0.0,0.0,0.0,0.0,0.0,0.0,0.0,0.0,0.0,0.0,0.0,0.0,0.0,0.0,0.0,0.0,0.0,0.0,0.0,0.0,0.0,0.0,0.0,0.0,0.0,0.0,0.0,0.0,0.0,0.0,0.0,0.0,0.0,0.0,1.9733,0.0,1.9773,1.9185,1.8464,1.7635,0.0,0.0,0.0,0.0,0.0,0.0,0.0,0.0,0.0,0.0,0.0,0.0,0.0,0.0,0.0,0.0,0.0,0.0,0.0,0.0,0.0,0.0,0.0,0.0,0.0,0.0,0.0,0.0,0.0,0.0,0.0,0.0,0.0,0.0,0.0,0.0,0.0,0.0,0.0,0.0,0.0,0.0,0.0,0.0,0.0,0.0,0.0,0.0,0.0,0.0,0.0,0.0,0.0,0.0,0.0,0.0,0.0,0.0,0.0,0.0,0.0,0.0,0.0,0.0,0.0,0.0,0.0,0.0,0.0,0.0,0.0,0.0,0.0,0.0,0.0,0.0,0.0,0.0,0.0,0.0,0.0,0.0,0.0,0.0,0.0,0.0,0.0,0.0,0.0,0.0,0.0,0.0,0.0,0.0,0.0,0.0,0.0,0.0,0.0,0.0,0.0,0.0,0.0,0.0,0.0,0.0,0.0,0.0,0.0,1.9905,1.98,1.9813,1.9745,1.9065,0.0,0.0,0.0,0.0,0.0,0.0,0.0,0.0,0.0,0.0,0.0,0.0,0.0,0.0,0.0,0.0,0.0,0.0,0.0,0.0,0.0,0.0,0.0,0.0,0.0,0.0,0.0,0.0,0.0,0.0,0.0,0.0,0.0,0.0,0.0,0.0,0.0,0.0,0.0,0.0,0.0,0.0,0.0,0.0,0.0,0.0,0.0,0.0,0.0,0.0,0.0,0.0,0.0,0.0,0.0,0.0,0.0,0.0,0.0,0.0,0.0,0.0,0.0,0.0,0.0,0.0,0.0,0.0,0.0,0.0,0.0,0.0,0.0,0.0,0.0,0.0,0.0,0.0,0.0,0.0,0.0,0.0,0.0,0.0,0.0,0.0,0.0,0.0,0.0,0.0,0.0,0.0,0.0,0.0,0.0,0.0,0.0,0.0,0.0,0.0,0.0,0.0,0.0,0.0,0.0,0.0,0.0,0.0,0.0,1.9681,1.9602,1.98,2.0309,1.9093,1.8317,0.0,0.0,0.0,0.0,0.0,0.0,0.0,0.0,0.0,0.0,0.0,0.0,0.0,0.0,0.0,0.0,0.0,0.0,0.0,0.0,0.0,0.0,0.0,0.0,0.0,0.0,0.0,0.0,0.0,0.0,0.0,0.0,0.0,0.0,0.0,0.0,0.0,0.0,0.0,0.0,0.0,0.0,0.0,0.0,0.0,0.0,0.0,0.0,0.0,0.0,0.0,0.0,0.0,0.0,0.0,0.0,0.0,0.0,0.0,0.0,0.0,0.0,0.0,0.0,0.0,0.0,0.0,0.0,0.0,0.0,0.0,0.0,0.0,0.0,0.0,0.0,0.0,0.0,0.0,0.0,0.0,0.0,0.0,0.0,0.0,0.0,0.0,0.0,0.0,0.0,0.0,0.0,0.0,0.0,0.0,0.0,0.0,0.0,0.0,0.0,0.0,0.0,0.0,0.0,0.0,0.0,0.0,0.0,0.0,1.952,0.0,1.9962,0.0,1.8825,1.7996,0.0,0.0,0.0,0.0,0.0,0.0,0.0,0.0,0.0,0.0,0.0,0.0,0.0,0.0,0.0,0.0,0.0,0.0,0.0,0.0,0.0,0.0,0.0,0.0,0.0,0.0,0.0,0.0,0.0,0.0,0.0,0.0,0.0,0.0,0.0,0.0,0.0,0.0,0.0,0.0,0.0,0.0,0.0,0.0,0.0,0.0,0.0,0.0,0.0,0.0,0.0,0.0,0.0,0.0,0.0,0.0,0.0,0.0,0.0,0.0,0.0,0.0,0.0,0.0,0.0,0.0,0.0,0.0,0.0,0.0,0.0,0.0,0.0,0.0,0.0,0.0,0.0,0.0,0.0,0.0,0.0,0.0,0.0,0.0,0.0,0.0,0.0,0.0,0.0,0.0,0.0,0.0,0.0,0.0,0.0,0.0,0.0,0.0,0.0,0.0,0.0,0.0,0.0,0.0,0.0,0.0,0.0,0.0,1.9211,1.9788,2.0349,2.0242,1.9455,1.9037,1.8183,0.0,0.0,0.0,0.0,0.0,0.0,0.0,0.0,0.0,0.0,0.0,0.0,0.0,0.0,0.0,0.0,0.0,0.0,0.0,0.0,0.0,0.0,0.0,0.0,0.0,0.0,0.0,0.0,0.0,0.0,0.0,0.0,0.0,0.0,0.0,0.0,0.0,0.0,0.0,0.0,0.0,0.0,0.0,0.0,0.0,0.0,0.0,0.0,0.0,0.0,0.0,0.0,0.0,0.0,0.0,0.0,0.0,0.0,0.0,0.0,0.0,0.0,0.0,0.0,0.0,0.0,0.0,0.0,0.0,0.0,0.0,0.0,0.0,0.0,0.0,0.0,0.0,0.0,0.0,0.0,0.0,0.0,0.0,0.0,0.0,0.0,0.0,0.0,0.0,0.0,0.0,0.0,0.0,0.0,0.0,0.0,0.0,0.0,0.0,0.0,0.0,0.0,0.0,0.0,0.0,0.0,0.0,0.0,0.0,1.9535,1.9895,2.0149,2.0258,1.897,1.8169,0.0,0.0,0.0,0.0,0.0,0.0,0.0,0.0,0.0,0.0,0.0,0.0,0.0,0.0,0.0,0.0,0.0,0.0,0.0,0.0,0.0,0.0,0.0,0.0,0.0,0.0,0.0,0.0,0.0,0.0,0.0,0.0,0.0,0.0,0.0,0.0,0.0,0.0,0.0,0.0,0.0,0.0,0.0,0.0,0.0,0.0,0.0,0.0,0.0,0.0,0.0,0.0,0.0,0.0,0.0,0.0,0.0,0.0,0.0,0.0,0.0,0.0,0.0,0.0,0.0,0.0,0.0,0.0,0.0,0.0,0.0,0.0,0.0,0.0,0.0,0.0,0.0,0.0,0.0,0.0,0.0,0.0,0.0,0.0,0.0,0.0,0.0,0.0,0.0,0.0,0.0,0.0,0.0,0.0,0.0,0.0,0.0,0.0,0.0,0.0,0.0,0.0,0.0,0.0,0.0,0.0,0.0,0.0,0.0,1.991,2.0376,2.0681,2.0828,1.9438,1.857,1.8303,0.0,0.0,0.0,0.0,0.0,0.0,0.0,0.0,0.0,0.0,0.0,0.0,0.0,0.0,0.0,0.0,0.0,0.0,0.0,0.0,0.0,0.0,0.0,0.0,0.0,0.0,0.0,0.0,0.0,0.0,0.0,0.0,0.0,0.0,0.0,0.0,0.0,0.0,0.0,0.0,0.0,0.0,0.0,0.0,0.0,0.0,0.0,0.0,0.0,0.0,0.0,0.0,0.0,0.0,0.0,0.0,0.0,0.0,0.0,0.0,0.0,0.0,0.0,0.0,0.0,0.0,0.0,0.0,0.0,0.0,0.0,0.0,0.0,0.0,0.0,0.0,0.0,0.0,0.0,0.0,0.0,0.0,0.0,0.0,0.0,0.0,0.0,0.0,0.0,0.0,0.0,0.0,0.0,0.0,0.0,0.0,0.0,0.0,0.0,0.0,0.0,0.0,0.0,0.0,0.0,0.0,0.0,0.0,2.0806,2.1646,2.179,2.1187,2.0306,1.9291,0.0,0.0,0.0,0.0,0.0,0.0,0.0,0.0,0.0,0.0,0.0,0.0,0.0,0.0,0.0,0.0,0.0,0.0,0.0,0.0,0.0,0.0,0.0,0.0,0.0,0.0,0.0,0.0,0.0,0.0,0.0,0.0,0.0,0.0,0.0,0.0,0.0,0.0,0.0,0.0,0.0,0.0,0.0,0.0,0.0,0.0,0.0,0.0,0.0,0.0,0.0,0.0,0.0,0.0,0.0,0.0,0.0,0.0,0.0,0.0,0.0,0.0,0.0,0.0,0.0,0.0,0.0,0.0,0.0,0.0,0.0,0.0,0.0,0.0,0.0,0.0,0.0,0.0,0.0,0.0,0.0,0.0,0.0,0.0,0.0,0.0,0.0,0.0,0.0,0.0,0.0,0.0,0.0,0.0,0.0,0.0,0.0,0.0,0.0,0.0,0.0,0.0,0.0,0.0,0.0,0.0,0.0,0.0,0.0,2.1934,2.2867,2.293,2.2068,2.1015,2.003,0.0,0.0,0.0,0.0,0.0,0.0,0.0,0.0,0.0,0.0,0.0,0.0,0.0,0.0,0.0,0.0,0.0,0.0,0.0,0.0,0.0,0.0,0.0,0.0,0.0,0.0,0.0,0.0,0.0,0.0,0.0,0.0,0.0,0.0,0.0,0.0,0.0,0.0,0.0,0.0,0.0,0.0,0.0,0.0,0.0,0.0,0.0,0.0,0.0,0.0,0.0,0.0,0.0,0.0,0.0,0.0,0.0,0.0,0.0,0.0,0.0,0.0,0.0,0.0,0.0,0.0,0.0,0.0,0.0,0.0,0.0,0.0,0.0,0.0,0.0,0.0,0.0,0.0,0.0,0.0,0.0,0.0,0.0,0.0,0.0,0.0,0.0,0.0,0.0,0.0,0.0,0.0,0.0,0.0,0.0,0.0,0.0,0.0,0.0,0.0,0.0,0.0,0.0,0.0,0.0,0.0,0.0,0.0,2.1633,2.2745,2.3572,2.3821,2.3541,2.2151,2.0882,0.0,0.0,0.0,0.0,0.0,0.0,0.0,0.0,0.0,0.0,0.0,0.0,0.0,0.0,0.0,0.0,0.0,0.0,0.0,0.0,0.0,0.0,0.0,0.0,0.0,0.0,0.0,0.0,0.0,0.0,0.0,0.0,0.0,0.0,0.0,0.0,0.0,0.0,0.0,0.0,0.0,0.0,0.0,0.0,0.0,0.0,0.0,0.0,0.0,0.0,0.0,0.0,0.0,0.0,0.0,0.0,0.0,0.0,0.0,0.0,0.0,0.0,0.0,0.0,0.0,0.0,0.0,0.0,0.0,0.0,0.0,0.0,0.0,0.0,0.0,0.0,0.0,0.0,0.0,0.0,0.0,0.0,0.0,0.0,0.0,0.0,0.0,0.0,0.0,0.0,0.0,0.0,0.0,0.0,0.0,0.0,0.0,0.0,0.0,0.0,0.0,0.0,0.0,0.0,0.0,0.0,0.0,0.0,2.2331,2.3412,2.4035,2.4569,2.5029,2.3336,2.1747,0.0,0.0,0.0,0.0,0.0,0.0,0.0,0.0,0.0,0.0,0.0,0.0,0.0,0.0,0.0,0.0,0.0,0.0,0.0,0.0,0.0,0.0,0.0,0.0,0.0,0.0,0.0,0.0,0.0,0.0,0.0,0.0,0.0,0.0,0.0,0.0,0.0,0.0,0.0,0.0,0.0,0.0,0.0,0.0,0.0,0.0,0.0,0.0,0.0,0.0,0.0,0.0,0.0,0.0,0.0,0.0,0.0,0.0,0.0,0.0,0.0,0.0,0.0,0.0,0.0,0.0,0.0,0.0,0.0,0.0,0.0,0.0,0.0,0.0,0.0,0.0,0.0,0.0,0.0,0.0,0.0,0.0,0.0,0.0,0.0,0.0,0.0,0.0,0.0,0.0,0.0,0.0,0.0,0.0,0.0,0.0,0.0,0.0,0.0,0.0,0.0,0.0,0.0,0.0,0.0,0.0,0.0,0.0,2.3389,2.4311,2.4911,2.5184,2.5096,2.3336,2.1934,0.0,0.0,0.0,0.0,0.0,0.0,0.0,0.0,0.0,0.0,0.0,0.0,0.0,0.0,0.0,0.0,0.0,0.0,0.0,0.0,0.0,0.0,0.0,0.0,0.0,0.0,0.0,0.0,0.0,0.0,0.0,0.0,0.0,0.0,0.0,0.0,0.0,0.0,0.0,0.0,0.0,0.0,0.0,0.0,0.0,0.0,0.0,0.0,1.8879,0.0,0.0,0.0,0.0,0.0,0.0,0.0,0.0,0.0,0.0,0.0,0.0,0.0,0.0,0.0,0.0,0.0,0.0,0.0,0.0,0.0,0.0,0.0,0.0,0.0,0.0,0.0,0.0,0.0,0.0,0.0,0.0,0.0,0.0,0.0,0.0,0.0,0.0,0.0,0.0,0.0,0.0,0.0,0.0,0.0,0.0,0.0,0.0,0.0,0.0,0.0,0.0,0.0,0.0,0.0,0.0,0.0,0.0,0.0,2.4004,2.5392,2.5758,2.5852,2.5651,2.4115,2.2645,0.0,0.0,0.0,0.0,0.0,0.0,0.0,0.0,0.0,0.0,0.0,0.0,0.0,0.0,0.0,0.0,0.0,0.0,0.0,0.0,0.0,0.0,0.0,0.0,0.0,0.0,0.0,0.0,0.0,0.0,0.0,0.0,0.0,0.0,0.0,0.0,0.0,0.0,0.0,0.0,0.0,0.0,0.0,0.0,0.0,0.0,0.0,0.0,0.0,0.0,0.0,0.0,0.0,0.0,0.0,0.0,0.0,0.0,0.0,0.0,0.0,0.0,0.0,0.0,0.0,0.0,0.0,0.0,0.0,0.0,0.0,0.0,0.0,0.0,0.0,0.0,0.0,0.0,0.0,0.0,0.0,0.0,0.0,0.0,0.0,0.0,0.0,0.0,0.0,0.0,0.0,0.0,0.0,0.0,0.0,0.0,0.0,0.0,0.0,0.0,0.0,0.0,0.0,0.0,0.0,0.0,0.0,2.2895,2.4449,2.6433,2.654,2.648,2.6393,2.497,2.3411,2.1729,0.0,0.0,0.0,0.0,0.0,0.0,0.0,0.0,0.0,0.0,0.0,0.0,0.0,0.0,0.0,0.0,0.0,0.0,0.0,0.0,0.0,0.0,0.0,0.0,0.0,0.0,0.0,0.0,0.0,0.0,0.0,0.0,0.0,0.0,0.0,0.0,0.0,0.0,1.7943,1.8893,0.0,0.0,0.0,0.0,0.0,0.0,0.0,0.0,1.9455,0.0,0.0,0.0,0.0,0.0,0.0,0.0,0.0,0.0,0.0,0.0,0.0,0.0,0.0,0.0,0.0,0.0,0.0,0.0,0.0,0.0,0.0,0.0,0.0,0.0,0.0,0.0,0.0,0.0,0.0,0.0,0.0,0.0,0.0,0.0,0.0,0.0,0.0,0.0,0.0,0.0,0.0,0.0,0.0,0.0,0.0,0.0,0.0,0.0,0.0,0.0,0.0,0.0,0.0,0.0,0.0,2.2972,2.3696,2.505,2.7095,2.7141,2.6901,2.6373,2.497,2.3487,2.1994,0.0,0.0,0.0,0.0,0.0,0.0,0.0,0.0,0.0,0.0,0.0,0.0,0.0,0.0,0.0,0.0,0.0,0.0,0.0,0.0,0.0,0.0,0.0,0.0,0.0,0.0,0.0,0.0,0.0,0.0,0.0,0.0,0.0,0.0,0.0,0.0,0.0,0.0,0.0,1.9943,2.0092,0.0,0.0,0.0,0.0,0.0,0.0,0.0,0.0,1.9561,0.0,0.0,0.0,0.0,0.0,0.0,0.0,0.0,0.0,0.0,0.0,0.0,0.0,0.0,0.0,0.0,0.0,0.0,0.0,0.0,0.0,0.0,0.0,0.0,0.0,0.0,0.0,0.0,0.0,0.0,0.0,0.0,0.0,0.0,0.0,0.0,0.0,0.0,0.0,0.0,0.0,0.0,0.0,0.0,0.0,0.0,0.0,0.0,0.0,0.0,0.0,0.0,0.0,0.0,0.0,2.346,2.4436,2.5831,2.7684,2.7764,2.7336,2.6419,2.5098,2.3661,0.0,0.0,0.0,0.0,0.0,0.0,0.0,0.0,0.0,0.0,0.0,0.0,0.0,0.0,0.0,0.0,0.0,0.0,0.0,0.0,0.0,0.0,0.0,0.0,0.0,0.0,0.0,0.0,0.0,0.0,0.0,0.0,0.0,0.0,0.0,0.0,0.0,0.0,0.0,0.0,2.0464,2.0666,2.0666,0.0,0.0,0.0,0.0,0.0,0.0,1.9746,1.9535,0.0,0.0,0.0,0.0,0.0,0.0,0.0,0.0,0.0,0.0,0.0,0.0,0.0,0.0,0.0,0.0,0.0,0.0,0.0,0.0,0.0,0.0,0.0,0.0,0.0,0.0,0.0,0.0,0.0,0.0,0.0,0.0,0.0,0.0,0.0,0.0,0.0,0.0,0.0,0.0,0.0,0.0,0.0,0.0,0.0,0.0,0.0,0.0,0.0,0.0,0.0,0.0,0.0,0.0,0.0,2.3839,2.5064,2.654,2.8192,2.8272,2.7697,2.6433,2.5232,2.379,0.0,0.0,0.0,0.0,0.0,0.0,0.0,0.0,0.0,0.0,0.0,0.0,0.0,0.0,0.0,0.0,0.0,0.0,0.0,0.0,0.0,0.0,0.0,0.0,0.0,0.0,0.0,0.0,0.0,0.0,0.0,0.0,0.0,0.0,0.0,0.0,0.0,0.0,0.0,0.0,0.0,2.1267,2.1283,2.0935,0.0,0.0,0.0,0.0,2.0357,2.0214,0.0,0.0,0.0,0.0,0.0,0.0,0.0,0.0,0.0,0.0,0.0,0.0,0.0,0.0,0.0,0.0,0.0,0.0,0.0,0.0,0.0,0.0,0.0,0.0,0.0,0.0,0.0,0.0,0.0,0.0,0.0,0.0,0.0,0.0,0.0,0.0,0.0,0.0,0.0,0.0,0.0,0.0,0.0,0.0,0.0,0.0,0.0,0.0,0.0,0.0,0.0,0.0,0.0,0.0,0.0,0.0,2.4128,2.5558,2.7028,2.847,2.8529,2.7856,2.6426,2.5232,2.3777,0.0,0.0,0.0,0.0,0.0,0.0,0.0,0.0,0.0,0.0,0.0,0.0,0.0,0.0,0.0,0.0,0.0,0.0,0.0,0.0,0.0,0.0,0.0,0.0,0.0,0.0,0.0,0.0,0.0,0.0,0.0,0.0,0.0,0.0,0.0,0.0,0.0,0.0,0.0,0.0,0.0,2.1884,2.19,2.1205,2.075,0.0,0.0,2.1301,2.1026,2.1833,0.0,0.0,0.0,0.0,0.0,0.0,0.0,0.0,0.0,0.0,0.0,0.0,0.0,0.0,0.0,0.0,0.0,0.0,0.0,0.0,0.0,0.0,0.0,0.0,0.0,0.0,0.0,0.0,0.0,0.0,0.0,0.0,0.0,0.0,0.0,0.0,0.0,0.0,0.0,0.0,0.0,0.0,0.0,0.0,0.0,0.0,0.0,0.0,0.0,0.0,0.0,0.0,0.0,0.0,0.0,2.2769,2.4209,2.6132,2.7696,2.8783,2.8663,2.7955,2.6667,2.5165,2.3554,0.0,0.0,0.0,0.0,0.0,0.0,0.0,0.0,0.0,0.0,0.0,0.0,0.0,0.0,0.0,0.0,0.0,0.0,0.0,0.0,0.0,0.0,0.0,0.0,0.0,0.0,0.0,0.0,0.0,0.0,0.0,0.0,0.0,0.0,0.0,0.0,0.0,0.0,0.0,0.0,0.0,0.0,2.2205,2.1927,0.0,0.0,0.0,2.2121,2.1472,0.0,0.0,0.0,0.0,0.0,0.0,0.0,0.0,0.0,0.0,0.0,0.0,0.0,0.0,0.0,0.0,0.0,0.0,0.0,0.0,0.0,0.0,0.0,0.0,0.0,0.0,0.0,0.0,0.0,0.0,0.0,0.0,0.0,0.0,0.0,0.0,0.0,0.0,0.0,0.0,0.0,0.0,0.0,0.0,0.0,0.0,0.0,0.0,0.0,0.0,0.0,0.0,0.0,0.0,0.0,0.0,0.0,2.4311,2.674,2.8369,2.909,2.885,2.8177,2.7034,2.5344,0.0,0.0,0.0,0.0,0.0,0.0,0.0,0.0,0.0,0.0,0.0,0.0,0.0,0.0,0.0,0.0,0.0,0.0,0.0,0.0,0.0,0.0,0.0,0.0,0.0,0.0,0.0,1.5685,0.0,0.0,0.0,0.0,0.0,0.0,0.0,0.0,0.0,0.0,0.0,0.0,0.0,0.0,2.2458,2.2802,2.2789,2.2832,0.0,0.0,2.2867,2.2144,2.2893,2.2819,0.0,0.0,0.0,0.0,0.0,0.0,0.0,0.0,0.0,0.0,0.0,0.0,0.0,0.0,0.0,0.0,0.0,0.0,0.0,0.0,0.0,0.0,0.0,0.0,0.0,0.0,0.0,0.0,0.0,0.0,0.0,0.0,0.0,0.0,0.0,0.0,0.0,0.0,0.0,0.0,0.0,0.0,0.0,0.0,0.0,0.0,0.0,0.0,0.0,0.0,0.0,0.0,0.0,0.0,0.0,2.4644,2.7427,2.9077,2.9454,2.9143,2.8534,2.7642,2.5965,2.4182,0.0,0.0,0.0,0.0,0.0,0.0,0.0,0.0,0.0,0.0,0.0,0.0,0.0,0.0,0.0,0.0,0.0,0.0,0.0,0.0,0.0,0.0,0.0,0.0,0.0,0.0,0.0,0.0,0.0,0.0,0.0,0.0,0.0,0.0,0.0,0.0,0.0,0.0,0.0,0.0,0.0,2.3412,2.399,2.3866,2.3986,0.0,2.424,2.3612,2.3243,2.4377,2.4337,2.1507,0.0,0.0,0.0,0.0,0.0,0.0,0.0,0.0,0.0,0.0,0.0,0.0,0.0,0.0,0.0,0.0,0.0,0.0,0.0,0.0,0.0,0.0,0.0,0.0,0.0,0.0,0.0,0.0,0.0,0.0,0.0,0.0,0.0,0.0,0.0,0.0,0.0,0.0,0.0,0.0,0.0,0.0,0.0,0.0,0.0,0.0,0.0,0.0,0.0,0.0,0.0,0.0,0.0,2.3567,2.4631,2.7494,2.925,2.9691,2.9472,2.8885,2.8031,2.6266,2.4422,0.0,0.0,0.0,0.0,0.0,0.0,0.0,0.0,0.0,0.0,0.0,0.0,0.0,0.0,0.0,0.0,0.0,0.0,0.0,0.0,0.0,0.0,0.0,0.0,0.0,0.0,0.0,0.0,1.7449,1.7662,1.7702,0.0,0.0,0.0,0.0,0.0,0.0,0.0,0.0,0.0,0.0,2.3572,2.4337,2.4671,0.0,0.0,2.5516,2.5157,2.4516,2.4895,2.4489,2.2255,2.1454,0.0,0.0,0.0,0.0,0.0,0.0,0.0,0.0,0.0,0.0,0.0,0.0,0.0,0.0,0.0,0.0,0.0,0.0,0.0,0.0,0.0,0.0,0.0,0.0,0.0,0.0,0.0,0.0,0.0,0.0,0.0,0.0,0.0,0.0,0.0,0.0,0.0,0.0,0.0,0.0,0.0,0.0,0.0,0.0,0.0,0.0,0.0,0.0,0.0,0.0,0.0,0.0,2.3541,2.4599,2.7494,2.9304,2.9878,2.9655,2.916,2.8425,2.6714,2.489,0.0,0.0,0.0,0.0,0.0,0.0,0.0,0.0,0.0,0.0,0.0,0.0,0.0,0.0,0.0,0.0,0.0,0.0,0.0,0.0,0.0,0.0,0.0,0.0,0.0,0.0,0.0,0.0,1.8116,1.8263,1.8022,0.0,0.0,0.0,0.0,0.0,0.0,0.0,0.0,0.0,0.0,2.411,2.4898,2.5384,2.5692,2.5831,2.5858,2.5625,2.4949,2.4989,2.4521,2.2832,0.0,0.0,0.0,0.0,0.0,0.0,0.0,0.0,0.0,0.0,0.0,0.0,0.0,0.0,0.0,0.0,0.0,0.0,0.0,0.0,0.0,0.0,0.0,0.0,0.0,0.0,0.0,1.9458,0.0,0.0,1.9431,0.0,0.0,0.0,0.0,0.0,0.0,0.0,0.0,0.0,0.0,0.0,0.0,0.0,0.0,0.0,0.0,0.0,0.0,0.0,0.0,0.0,0.0,2.3737,2.4613,2.7507,2.9304,2.9864,2.9633,2.9339,2.8948,2.7308,2.5684,2.4178,0.0,0.0,0.0,0.0,0.0,0.0,0.0,0.0,0.0,0.0,0.0,0.0,0.0,0.0,0.0,0.0,0.0,0.0,0.0,0.0,0.0,0.0,0.0,0.0,0.0,0.0,1.7273,1.7689,1.8022,0.0,0.0,0.0,0.0,0.0,0.0,0.0,0.0,0.0,0.0,2.3759,2.527,2.585,2.5971,2.5904,2.5611,2.5053,2.4572,2.4342,2.4748,2.4588,0.0,0.0,0.0,0.0,0.0,0.0,0.0,0.0,0.0,0.0,0.0,0.0,0.0,0.0,0.0,0.0,0.0,0.0,0.0,0.0,0.0,0.0,0.0,0.0,0.0,0.0,0.0,2.4208,2.3719,0.0,0.0,0.0,0.0,0.0,0.0,0.0,0.0,0.0,0.0,0.0,2.373,2.4317,0.0,0.0,0.0,0.0,0.0,0.0,0.0,0.0,0.0,0.0,0.0,0.0,2.3848,2.4997,2.7601,2.9282,2.9887,2.982,2.9633,2.9325,2.7989,2.627,2.4136,0.0,0.0,0.0,0.0,0.0,0.0,0.0,0.0,0.0,0.0,0.0,0.0,0.0,0.0,0.0,0.0,0.0,0.0,0.0,0.0,0.0,0.0,0.0,0.0,0.0,1.8063,0.0,0.0,0.0,0.0,0.0,0.0,0.0,0.0,0.0,0.0,0.0,2.1502,2.2479,2.3848,2.4911,2.5336,2.5898,2.6433,0.0,0.0,0.0,0.0,0.0,0.0,0.0,0.0,0.0,0.0,0.0,0.0,0.0,0.0,2.3963,2.1056,2.0712,2.0793,2.0577,0.0,0.0,0.0,0.0,0.0,0.0,0.0,0.0,0.0,0.0,0.0,0.0,0.0,0.0,2.7036,2.6761,2.5862,0.0,0.0,0.0,0.0,0.0,0.0,0.0,0.0,2.4775,2.616,2.7753,2.8344,2.8315,0.0,2.6806,2.5117,0.0,0.0,0.0,0.0,0.0,0.0,0.0,0.0,2.4195,2.5176,2.7802,2.941,2.9887,2.9913,2.9757,2.9472,2.8238,2.6707,2.4926,2.39,2.3157,0.0,0.0,0.0,0.0,0.0,0.0,0.0,0.0,0.0,0.0,0.0,0.0,0.0,0.0,0.0,0.0,0.0,0.0,0.0,0.0,0.0,0.0,0.0,1.8732,0.0,0.0,0.0,0.0,0.0,0.0,0.0,0.0,0.0,2.0695,2.1566,2.2596,2.3665,2.4623,2.5277,2.539,0.0,0.0,0.0,0.0,0.0,0.0,0.0,2.4775,2.4593,2.4481,2.4553,2.4922,2.5758,2.6312,2.6051,0.0,0.0,2.4201,2.3881,2.4194,2.4643,2.5351,2.627,2.7483,2.8053,2.8848,0.0,0.0,0.0,0.0,0.0,0.0,0.0,0.0,2.8566,2.8685,0.0,2.8226,0.0,0.0,0.0,0.0,2.5478,2.5068,0.0,0.0,3.0008,3.1184,3.2078,3.2143,3.2162,3.1999,2.9988,2.9331,2.9691,2.5424,0.0,0.0,0.0,0.0,0.0,0.0,2.4791,2.527,2.8037,2.9619,2.99,2.9913,2.9766,2.9446,2.8091,2.7107,2.6617,2.6034,2.5372,2.4639,2.3636,0.0,0.0,0.0,0.0,0.0,0.0,0.0,0.0,0.0,0.0,0.0,0.0,0.0,0.0,0.0,0.0,0.0,0.0,0.0,0.0,1.9416,0.0,0.0,0.0,0.0,0.0,0.0,0.0,0.0,0.0,0.0,2.1813,2.2686,2.387,2.5264,0.0,0.0,0.0,0.0,2.6407,2.5403,2.5189,2.5216,2.527,2.569,2.6011,2.6024,0.0,0.0,2.6573,2.6507,2.6553,2.6316,2.8477,3.004,2.959,2.9069,2.9287,3.09,3.1216,3.1536,3.166,3.1921,3.2479,3.5944,0.0,0.0,0.0,0.0,3.2046,3.3276,3.3761,3.4442,3.4479,3.3892,3.2327,0.0,0.0,0.0,0.0,0.0,0.0,2.9643,3.1093,3.1833,3.3207,3.5061,3.5507,3.5493,3.5044,3.4411,3.3286,3.1761,3.1348,2.8473,2.3318,0.0,0.0,0.0,0.0,2.5504,2.672,2.8545,2.9619,2.9913,2.9913,2.9673,2.9157,2.8358,2.8231,2.8835,2.8277,2.7774,2.7451,2.7582,0.0,0.0,0.0,0.0,0.0,0.0,0.0,0.0,0.0,0.0,0.0,0.0,0.0,0.0,0.0,0.0,0.0,0.0,0.0,1.8997,1.9426,1.944,0.0,0.0,0.0,0.0,0.0,0.0,0.0,0.0,0.0,2.4611,2.4422,2.4372,0.0,0.0,2.5585,2.5058,2.5865,2.6633,2.6907,2.6794,0.0,2.7495,2.7014,2.664,2.6874,2.7649,2.823,2.8262,2.8596,2.9303,3.0503,3.1402,3.2697,3.502,3.3617,3.2249,3.2394,3.2759,3.3609,3.5051,3.557,3.624,4.0677,3.7801,3.6534,3.508,3.378,3.5804,3.7109,3.7777,3.8178,3.8089,3.7593,3.6211,3.4425,3.233,3.0157,0.0,0.0,0.0,3.3023,3.4862,3.5188,3.6351,3.817,3.8565,3.855,3.817,3.7298,3.6459,3.5592,3.5072,3.2881,2.8982,0.0,0.0,2.5693,2.7281,2.827,2.8658,3.0752,3.1605,3.1034,3.1723,3.1526,3.037,3.0688,3.1259,3.1974,3.1676,3.1237,3.0696,3.0731,2.9197,0.0,0.0,0.0,0.0,0.0,0.0,0.0,0.0,0.0,0.0,0.0,1.8333,1.7883,0.0,0.0,0.0,1.992,2.0181,2.0318,2.0325,0.0,0.0,0.0,0.0,0.0,0.0,0.0,2.2939,2.4075,2.5203,2.6179,2.6039,2.5913,2.6153,2.6413,2.6386,2.5899,0.0,2.7395,2.7655,2.7676,2.7844,2.8345,2.8016,2.7843,2.8257,2.8751,2.9143,2.9352,3.025,3.1376,3.2514,3.3885,3.5608,3.7903,3.7163,3.6324,3.6147,3.6372,3.7112,3.8409,3.868,3.9179,4.4401,4.3974,3.9931,3.7858,3.7426,3.896,4.01,4.0789,4.028,4.0097,4.0062,3.9483,3.8383,3.6767,3.4563,0.0,3.6457,3.5309,3.6436,3.9333,3.9333,3.9978,4.1084,4.1081,4.1102,4.1042,3.9025,3.8908,4.0294,3.7384,3.584,3.576,3.4305,3.258,3.0766,3.1965,3.2055,3.0808,3.3787,3.4582,3.2999,3.4607,3.4539,3.2525,3.4086,3.505,3.5302,3.5336,3.4897,3.3915,3.3175,3.1669,2.9275,0.0,0.0,0.0,0.0,0.0,0.0,0.0,0.0,0.0,0.0,0.0,0.0,0.0,0.0,0.0,2.2928,0.0,2.2862,2.1957,0.0,0.0,0.0,2.2338,2.4878,2.4481,2.425,2.4879,0.0,0.0,2.6941,2.7578,2.8197,2.8652,2.8433,2.8072,2.7736,2.8177,2.8422,2.7902,2.8138,2.8326,2.8486,2.8751,2.917,2.9659,3.0003,3.0173,3.0329,3.1717,3.28,3.3373,3.5993,3.8375,3.846,3.9791,4.1102,4.0827,4.0885,4.0982,4.0906,4.0903,4.0921,4.5141,4.4752,4.3676,4.2767,4.2063,4.2478,4.2772,4.2897,4.243,4.2071,4.1718,4.0287,3.8965,3.776,3.7439,3.7917,3.9003,3.9012,3.9602,4.0623,4.0641,4.0806,4.1102,4.1102,4.1102,4.1081,4.0572,4.0535,4.0914,4.0136,3.9243,3.8326,3.7947,3.5599,3.1542,3.2125,3.2697,3.3011,3.4061,3.466,3.4831,3.5277,3.4976,3.393,3.4297,3.4651,3.4947,3.4957,3.488,3.4718,3.4257,3.3028,3.0922,2.8773,0.0,0.0,0.0,0.0,0.0,0.0,0.0,0.0,0.0,2.0479,1.9237,0.0,2.033,0.0,2.3399,2.4116,2.5753,2.449,0.0,0.0,2.6981,2.7467,2.8955,2.9598,2.9448,2.8239,3.0198,3.0763,2.8467,2.9733,3.0516,2.9707,2.8794,2.8072,2.7776,2.8417,2.8855,2.877,2.9117,2.9486,2.9459,2.9584,2.9717,2.9864,3.107,3.2041,3.2041,3.3578,3.5261,3.6621,3.7586,3.8781,4.0116,4.085,4.106,4.1102,4.1102,4.1102,4.1102,4.1121,4.1173,4.582,4.5584,4.5584,4.5306,4.4811,4.4425,4.4377,4.4505,4.4049,4.3627,4.3155,4.1644,4.0698,4.0241,3.9877,4.0077,4.0687,4.0757,4.0882,4.1102,4.1102,4.1194,4.1357,4.1357,4.1375,4.1357,4.1561,4.1451,4.1139,4.1286,4.0935,4.0052,4.0052,3.8453,3.5425,3.5074,3.4898,3.4752,3.5277,3.5942,3.6739,3.7547,3.7148,3.5442,3.612,3.6158,3.545,3.5399,3.5124,3.4516,3.4257,3.323,3.1233,2.9727,2.8195,0.0,0.0,0.0,0.0,0.0,0.0,0.0,0.0,0.0,0.0,0.0,2.2956,2.5683,2.6452,2.7488,2.9211,2.8088,2.8278,3.0822,3.0667,3.1052,3.2754,3.2969,3.2682,3.1873,3.3237,3.3625,3.1935,3.2709,3.3215,3.2462,3.1852,3.0766,2.9095,2.9117,2.941,2.9424,2.9677,2.9913,2.9913,2.9913,3.0205,3.1048,3.1997,3.2955,3.3834,3.55,3.7112,3.8118,3.8972,3.9858,4.0892,4.1102,4.1158,4.132,4.1357,4.1357,4.1357,4.1375,4.1485,4.6308,4.6308,4.6308,4.6308,4.6226,4.5486,4.537,4.5651,4.5211,4.4743,4.4223,4.3136,4.284,4.3086,4.1965,4.1629,4.1905,4.1524,4.131,4.1249,4.1249,4.143,4.1779,4.1757,4.1779,4.1797,4.2127,4.1947,4.1286,4.1558,4.1467,4.1047,4.0974,4.0533,3.9726,3.8621,3.7467,3.629,3.7052,3.7819,3.8518,3.9988,3.9436,3.6843,3.8092,3.8014,3.6237,3.6072,3.5357,3.3927,3.3817,3.2991,3.1194,3.0308,2.8962,0.0,2.615,0.0,0.0,0.0,0.0,0.0,0.0,0.0,0.0,2.6439,2.6989,2.9499,3.0473,3.1513,3.2826,3.2054,3.2509,3.4928,3.4199,3.4331,3.6385,3.5784,3.5232,3.5488,3.5908,3.6107,3.5403,3.5706,3.5906,3.5443,3.5328,3.4246,3.1555,3.0634,3.0433,3.0353,3.0586,3.1184,3.0995,3.0817,3.1346,3.2734,3.3505,3.3973,3.5624,3.7414,3.8691,3.8931,4.0093,4.1107,4.1249,4.1286,4.1375,4.1705,4.1779,4.1779,4.1779,4.1705,4.1812,4.6308,4.6308,4.6308,4.6308,4.6289,4.6143,4.6099,4.6133,4.5653,4.505,4.4282,4.4044,4.3992,4.3992,4.3446,4.3213,4.3216,4.2828,4.2438,4.2072,4.2072,4.2109,4.2182,4.2182,4.2201,4.2182,4.2274,4.2219,4.2072,4.1834,4.1338,4.0604,4.0276,3.9707,3.8876,0.0,0.0,0.0,3.8924,3.9454,3.9581,3.9246,3.8498,3.7273,3.7236,0.0,3.5779,3.5412,3.4789,3.389,3.3817,0.0,0.0,0.0,0.0,0.0,0.0,0.0,0.0,0.0,0.0,0.0,3.1268,3.0134,2.8961,3.08,3.2183,3.242,3.277,3.3927,3.6257,3.5331,3.5598,3.8078,3.878,3.9479,4.0553,4.0379,3.9769,3.8352,3.9239,3.8845,3.6286,3.7062,3.7658,3.6472,3.6294,3.6203,3.5511,3.3695,3.2649,3.2978,3.3881,3.469,3.4516,3.4325,3.429,3.5102,3.6318,3.7258,3.7796,3.9284,4.0638,4.0888,4.136,4.1684,4.198,4.2072,4.2054,4.2182,4.2182,4.2182,4.2182,4.1944,4.1815,4.6956,4.6956,4.6956,4.6933,0.0,4.6933,4.6816,4.6579,4.6123,4.5691,4.5261,4.4853,4.4753,4.4948,4.4071,4.3783,4.3935,4.3525,4.3222,4.2984,4.2747,4.2771,4.2935,4.2695,4.2586,4.2604,4.2806,4.2809,4.2636,4.2401,4.2109,4.1735,4.1118,4.0651,4.0431,4.023,3.9813,3.9206,3.963,4.0054,4.0442,4.0072,3.9335,3.8325,3.7904,0.0,0.0,0.0,0.0,0.0,0.0,0.0,0.0,0.0,0.0,3.2276,3.2074,3.2329,3.3101,3.3175,3.3786,3.5207,3.5691,3.4906,3.2566,3.4542,3.6015,3.6197,3.6326,3.7255,3.9313,3.8978,3.9161,4.065,4.1218,4.1685,4.2023,4.2252,4.1973,4.119,4.1564,4.1244,3.947,3.9904,4.0196,3.9347,3.9326,3.9139,3.824,3.6345,3.4989,3.5164,3.5774,3.6298,3.6138,3.6091,3.6531,3.7321,3.8254,3.9098,3.9862,4.0921,4.1705,4.1742,4.1852,4.2072,4.2237,4.2292,4.2347,4.2531,4.2586,4.2678,4.2824,4.2586,4.2421,4.7796,4.7718,4.7718,4.7718,4.7718,4.764,4.7363,4.6989,4.6523,0.0,0.0,4.5549,4.5437,4.574,4.4657,4.4291,4.4487,4.4205,4.3989,4.3882,4.3493,4.3528,4.3825,4.343,4.3272,4.3272,4.3582,4.3571,4.3227,4.3145,4.313,4.3056,4.2404,4.2166,4.2374,4.2099,4.1372,4.0296,3.9948,4.0143,4.0864,4.0754,4.0146,3.9023,3.86,3.7574,3.5889,3.5027,3.4312,3.3653,3.3231,3.2918,3.268,3.3391,3.3866,3.3994,3.4745,3.55,3.6202,3.6534,3.6997,3.7615,3.9012,3.8823,3.6435,3.7726,3.8956,3.9676,3.9734,4.0329,4.1758,4.1978,4.2148,4.2494,4.2669,4.2766,4.2804,4.3023,4.3187,4.3223,4.3106,4.3114,4.2947,4.2632,4.2533,4.2508,4.2273,4.2083,4.0624,3.8747,3.7346,3.7298,3.7824,3.7985,3.777,3.787,3.8324,3.9685,3.9983,4.0438,4.147,4.2069,4.2164,4.2017,4.2201,4.2402,4.2494,4.2568,4.2623,4.2935,4.3008,4.31,4.3353,4.3228,4.3063,4.8496,4.8125,4.8125,4.8125,4.8086,4.7757,4.7539,4.7444,4.666,4.6308,4.6289,4.6184,4.6145,4.6211,4.6002,4.5742,4.5414,4.5349,4.5108,4.4753,4.4665,4.4662,4.4697,4.4653,4.4608,4.4608,4.4684,4.4469,4.4095,4.4081,4.3915,4.356,4.3442,4.3258,4.2921,4.2845,4.256,4.2023,4.0551,3.9907,4.0058,3.9336,3.8711,3.818,3.7832,3.7281,3.664,3.587,3.5376,3.5266,3.4881,3.4771,3.5082,3.5868,3.6533,3.6905,3.769,3.8349,3.8727,3.8821,3.935,4.0429,4.1413,4.1071,3.905,3.9997,4.0966,4.1402,4.1421,4.168,4.2259,4.2679,4.2961,4.3062,4.3664,4.4108,4.4065,4.4099,4.4137,4.4115,4.3809,4.3628,4.366,4.3519,4.3419,4.3391,4.3247,4.3183,4.2585,4.1264,3.9954,3.9771,4.0966,4.1742,4.1282,4.1488,4.1455,4.184,4.1851,4.1847,4.2129,4.2311,4.2439,4.2659,4.2751,4.2916,4.3188,4.3316,4.3279,4.3353,4.3353,4.343,4.3481,4.343,4.3338,4.9473,4.9277,4.9301,4.9301,4.9261,4.8828,4.8496,4.8245,4.7617,4.707,4.6638,4.6641,4.6501,4.6308,4.6308,4.6177,4.598,4.6002,4.587,4.5631,4.5409,4.5277,4.5255,4.5034,4.4902,4.4902,4.4902,4.4924,4.4927,4.4737,4.4642,4.4648,4.4527,4.4064,4.3429,4.3604,4.3509,4.3086,4.1855,4.1113,4.0867,4.0474,4.0217,4.0014,3.9422,3.8998,3.881,3.7783,3.7135,3.6897,3.6552,3.6442,3.6645,3.7428,3.7953,3.8179,3.9163,3.9884,4.0263,4.0728,4.1229,4.1763,4.2409,4.2496,4.1765,4.2015,4.2304,4.2476,4.2505,4.2781,4.3401,4.3686,4.3887,4.4121,4.4512,4.4705,4.4764,4.4968,4.5073,4.5028,4.4876,4.4728,4.4728,4.4485,4.4181,4.3998,4.3719,4.3503,4.3481,4.2748,4.2048,4.1982,4.2655,4.3044,4.299,4.2949,4.2971,4.2953,4.2953,4.2861,4.2714,4.2769,4.2916,4.2916,4.3045,4.3283,4.3481,4.3481,4.3481,4.3481,4.3481,4.3481,4.3481,4.3481,4.3408,5.0434,5.0356,5.0312,5.0297,5.018,4.9824,4.9473,4.9187,4.8789,4.82,4.7516,4.7204,4.6894,4.6601,4.6601,4.6601,4.6601,4.6582,4.6601,4.6538,4.6207,4.6031,4.6009,4.5674,4.5462,4.5363,4.5344,4.5438,4.5541,4.5343,4.5409,4.57,4.5432,4.4895,4.4169,4.4453,4.4414,4.3978,4.3325,4.265,4.2013,4.1919,4.1842,4.1802,4.1249,4.089,4.0722,3.9832,3.9136,3.8726,3.8469,3.8327,3.8365,3.9125,3.9546,3.9661,4.0595,4.1302,4.1551,4.2064,4.2499,4.2711,4.3039,4.3437,4.3885,4.3711,4.3516,4.3536,4.3534,4.3807,4.4354,4.451,4.4668,4.4979,4.5096,4.5176,4.5215,4.5547,4.5842,4.5838,4.5808,4.5763,4.5673,4.5324,4.4816,4.4263,4.386,4.3655,4.3544,4.3481,4.3481,4.3481,4.3481,4.3463,4.3481,4.3463,4.3444,4.3481,4.3463,4.3298,4.3155,4.332,4.3375,4.3155,4.3283,4.3444,4.3481,4.3481,4.3481,4.3481,4.3481,4.3481,4.3481,4.3481,4.3481,5.1069,5.0762,5.0762,5.0527,5.0238,5.018,5.0121,5.0063,5.0023,4.9746,4.9117,4.8047,4.7519,4.7483,4.7441,4.7444,4.7444,4.7483,4.7464,4.7444,4.7438,4.7394,4.7355,4.7329,4.7112,4.6737,4.6675,4.6302,4.575,4.5999,4.6199,4.6243,4.6204,4.5948,4.5556,4.5519,4.5344,4.489,4.4793,4.4157,4.2951,4.2528,4.2318,4.2339,4.226,4.2013,4.1648,4.1526,4.1282,4.0877,4.0815,4.083,4.0889,4.1652,4.2125,4.2106,4.2895,4.3296,4.2925,4.2615,4.2789,4.3493,4.3631,4.4023,4.4764,4.4822,4.4822,4.4783,4.4803,4.4803,4.492,4.494,4.4998,4.5115,4.541,4.5627,4.5686,4.5996,4.625,4.625,4.6182,4.6221,4.6133,4.5763,4.5188,4.4459,4.4171,4.3926,4.3655,4.3522,4.3481,4.3481,4.3481,4.3481,4.3481,4.3481,4.3481,4.3481,4.3481,4.3444,4.3408,4.3408,4.3444,4.3393,4.3426,4.3481,4.3481,4.3481,4.3481,4.3481,4.3481,4.3481,4.3481,4.3481,4.3481,5.1304,5.1148,5.1148,5.105,5.0913,5.0918,5.0781,5.0547,5.0571,5.0312,4.9883,4.9359,4.8714,4.7949,4.7718,4.76,4.762,4.7832,4.7835,4.764,4.7832,4.7812,4.762,4.76,4.748,4.7324,4.7305,4.7137,4.6828,4.6708,4.654,4.6328,4.6308,4.6211,4.6055,4.6076,4.5957,4.576,4.5527,4.5141,4.4564,4.3902,4.3524,4.3484,4.3042,4.2825,4.2831,4.2428,4.2054,4.189,4.1883,4.1899,4.192,4.2248,4.2433,4.2492,4.3237,4.375,4.3868,4.3905,4.41,4.4452,4.4471,4.4744,4.5332,4.541,4.5508,4.5683,4.5332,4.5096,4.5371,4.5432,4.5529,4.572,4.5937,4.6057,4.6055,4.6191,4.6308,4.6308,4.6308,4.6308,4.6243,4.5914,4.5475,4.499,4.4614,4.4126,4.3926,4.3678,4.3522,4.3481,4.3481,4.3481,4.3481,4.3481,4.3481,4.3481,4.3481,4.3481,4.3481,4.3481,4.3481,4.3481,4.3481,4.3481,4.3481,4.3481,4.3481,4.3481,4.3481,4.3481,4.3481,4.3481,4.3481,5.1397,5.1397,5.1397,5.1397,5.1397,5.1397,5.1226,5.0996,5.0952,5.0801,5.0527,5.041,4.9824,4.8945,4.8499,4.8304,4.8343,4.8613,4.8617,4.8343,4.8496,4.8418,4.8125,4.7991,4.7894,4.7773,4.7754,4.7718,4.7558,4.7285,4.6931,4.668,4.6543,4.6465,4.6443,4.6367,4.6308,4.6269,4.6018,4.5861,4.5757,4.5185,4.4742,4.4467,4.3902,4.3645,4.3816,4.3379,4.3058,4.2934,4.2948,4.2944,4.2925,4.2961,4.3007,4.3144,4.369,4.4178,4.453,4.4842,4.5057,4.5176,4.5195,4.5391,4.5742,4.5881,4.5998,4.6172,4.5742,4.5547,4.5781,4.5861,4.5976,4.6269,4.6308,4.6308,4.6289,4.6308,4.6308,4.6308,4.6308,4.6308,4.6265,4.6024,4.5739,4.5321,4.4791,4.4215,4.4038,4.3682,4.3481,4.3481,4.3481,4.3481,4.3481,4.3481,4.3481,4.3481,4.3481,4.3481,4.3481,4.3481,4.3481,4.3481,4.3481,4.3481,4.3481,4.3481,4.3481,4.3481,4.3481,4.3481,4.3481,4.3481,4.3481,5.1397,5.1397,5.1397,5.1397,5.1397,5.1397,5.1401,5.1343,5.1338,5.1319,5.1245,5.0913,5.0742,5.0586,5.0156,5.0043,5.0043,5.0023,5.0004,4.9906,4.9586,4.943,4.9391,4.9027,4.8617,4.832,4.8262,4.8027,4.7659,4.76,4.7561,4.7503,4.709,4.6872,4.6833,4.6501,4.6308,4.6348,4.6269,4.625,4.625,4.6209,4.5734,4.5069,4.4913,4.4683,4.4408,4.4663,4.4624,4.4201,4.4217,4.4274,4.4315,4.4297,4.4414,4.4744,4.4881,4.494,4.4959,4.5016,4.5213,4.5588,4.5644,4.582,4.6152,4.6211,4.625,4.6289,4.6211,4.6191,4.625,4.6211,4.625,4.6328,4.6328,4.6348,4.6348,4.6445,4.6328,4.6367,4.6387,4.6406,4.6367,4.6308,4.5909,4.5378,4.4984,4.4671,4.4034,4.3707,4.3581,4.3558,4.3518,4.3481,4.3481,4.3481,4.3481,4.3481,4.3481,4.3481,4.3481,4.3481,4.3481,4.3481,4.3481,4.3481,4.3481,4.3481,4.3481,4.3481,4.3481,4.3481,4.3481,4.3481,4.3481,5.1397,5.1397,5.1397,5.1397,5.1397,5.1397,5.1397,5.1397,5.1397,5.1397,5.1382,5.1245,5.1187,5.1187,5.103,5.0683,5.0258,5.0449,5.043,5.0238,5.0293,5.0215,4.9941,4.9789,4.9672,4.9453,4.918,4.8691,4.8047,4.7988,4.7855,4.7598,4.7422,4.7344,4.7266,4.6914,4.6677,4.668,4.6423,4.6308,4.6308,4.6308,4.6152,4.5859,4.5586,4.5365,4.5215,4.5069,4.4913,4.4764,4.4757,4.4783,4.4805,4.4783,4.4842,4.4998,4.5293,4.543,4.5469,4.5703,4.5898,4.6035,4.6074,4.6113,4.6269,4.6308,4.6308,4.6308,4.6308,4.6384,4.6579,4.6443,4.6384,4.6638,4.6677,4.6794,4.7073,4.7129,4.7109,4.709,4.6872,4.6797,4.6936,4.666,4.6411,4.6528,4.6098,4.5569,4.5183,4.473,4.4203,4.3919,4.3664,4.3481,4.3481,4.3481,4.3481,4.3481,4.3481,4.3481,4.3481,4.3481,4.3481,4.3481,4.3481,4.3481,4.3499,4.3554,4.3554,4.3554,4.3554,4.3646,4.3481,4.3573,4.3554,5.1397,5.1397,5.1397,5.1397,5.1397,5.1397,5.1397,5.1397,5.1397,5.1397,5.1397,5.1397,5.1397,5.1397,5.1397,5.1128,5.0644,5.0879,5.084,5.0605,5.0718,5.0664,5.0414,5.0258,5.0199,5.0121,4.9722,4.9176,4.8668,4.8496,4.8262,4.8053,4.7894,4.7793,4.7715,4.7344,4.7067,4.6872,4.6641,4.6443,4.6328,4.6308,4.6308,4.6269,4.6016,4.59,4.5879,4.5586,4.543,4.5408,4.5291,4.5234,4.5234,4.5213,4.5293,4.5428,4.5723,4.59,4.592,4.6152,4.6289,4.6308,4.6308,4.6308,4.6308,4.6308,4.6367,4.6445,4.6504,4.6658,4.6973,4.6875,4.6836,4.7067,4.7107,4.7246,4.7561,4.76,4.7581,4.7522,4.7305,4.7305,4.7464,4.7031,4.6962,4.7359,4.6655,4.6164,4.6045,4.5381,4.4768,4.4523,4.4199,4.4021,4.3944,4.3884,4.3628,4.3573,4.3499,4.3499,4.3536,4.3518,4.3499,4.3499,4.3481,4.3481,4.3536,4.3632,4.3668,4.3683,4.3884,4.4068,4.3884,4.3719,4.3646,5.1397,5.1397,5.1397,5.1397,5.1397,5.1397,5.1397,5.1397,5.1397,5.1397,5.1397,5.1397,5.1397,5.1397,5.1397,5.1382,5.1323,5.1323,5.1299,5.1265,5.0996,5.0859,5.0781,5.0469,5.0317,5.0258,4.9785,4.9547,4.943,4.9121,4.8929,4.8812,4.8516,4.8359,4.8242,4.7871,4.7422,4.7087,4.6931,4.6677,4.6345,4.6328,4.6308,4.6308,4.6269,4.625,4.6269,4.625,4.6191,4.6172,4.59,4.5705,4.5705,4.5705,4.5861,4.6133,4.6248,4.6289,4.6269,4.6267,4.6308,4.6367,4.6348,4.6387,4.6465,4.6445,4.656,4.6833,4.6931,4.7087,4.7503,4.7561,4.7561,4.76,4.7578,4.764,4.7679,4.7659,4.764,4.7698,4.7617,4.76,4.762,4.7522,4.7407,4.7183,4.6756,4.642,4.6398,4.568,4.5108,4.5153,4.4846,4.4425,4.4402,4.4366,4.3958,4.3646,4.3554,4.3518,4.365,4.3668,4.3591,4.3554,4.3499,4.3499,4.3848,4.3962,4.4017,4.409,4.4329,4.4361,4.4127,4.3889,4.3779,5.1397,5.1397,5.1397,5.1397,5.1397,5.1397,5.1397,5.1397,5.1397,5.1397,5.1397,5.1397,5.1397,5.1397,5.1397,5.1397,5.1397,5.1397,5.1397,5.1382,5.1265,5.1206,5.1167,5.1069,5.0898,5.0644,5.0464,5.0254,5.0004,4.9848,4.9789,4.975,4.9633,4.9394,4.9059,4.8691,4.8242,4.777,4.7204,4.6833,4.6677,4.6465,4.6308,4.6308,4.6308,4.6308,4.6308,4.6308,4.6308,4.6308,4.6172,4.6113,4.6113,4.6135,4.6172,4.6269,4.6308,4.6308,4.6308,4.6328,4.6465,4.6638,4.6716,4.6894,4.7129,4.721,4.7249,4.7383,4.7383,4.7561,4.7933,4.8008,4.8047,4.8027,4.8008,4.8144,4.8363,4.8441,4.8503,4.8441,4.8203,4.8164,4.8265,4.8089,4.7826,4.8099,4.7773,4.7471,4.7335,4.6632,4.5994,4.5856,4.5303,4.4852,4.4788,4.4733,4.4457,4.4123,4.3962,4.3742,4.3797,4.3907,4.3793,4.3683,4.3609,4.3701,4.4072,4.4237,4.4292,4.4439,4.4641,4.4494,4.4201,4.409,4.409,5.1397,5.1397,5.1397,5.1397,5.1397,5.1397,5.1397,5.1397,5.1397,5.1397,5.1397,5.1397,5.1397,5.1397,5.1397,5.1397,5.1397,5.1397,5.1397,5.1397,5.1397,5.1397,5.1397,5.1397,5.1304,5.103,5.0879,5.0683,5.041,5.0278,5.0199,5.0199,5.0199,5.0063,4.9746,4.9316,4.891,4.8398,4.7751,4.7324,4.7148,4.6914,4.6699,4.656,4.668,4.668,4.6562,4.668,4.6621,4.6367,4.6308,4.6367,4.6504,4.6543,4.6601,4.6758,4.6777,4.6819,4.6777,4.6836,4.6953,4.7282,4.738,4.7598,4.7972,4.8092,4.8069,4.8089,4.8089,4.8245,4.8594,4.8691,4.8769,4.8945,4.8633,4.8617,4.8832,4.8894,4.8874,4.8773,4.8617,4.8679,4.8659,4.8538,4.8265,4.8734,4.8472,4.829,4.8127,4.7553,4.6995,4.648,4.6062,4.5631,4.5238,4.5063,4.4934,4.4678,4.4457,4.4182,4.4054,4.4237,4.4256,4.4127,4.4017,4.4072,4.4347,4.4402,4.4476,4.4696,4.499,4.499,4.4879,4.4714,4.4623,5.1397,5.1397,5.1397,5.1397,5.1397,5.1397,5.1397,5.1397,5.1397,5.1397,5.1397,5.1397,5.1397,5.1397,5.1397,5.1397,5.1397,5.1397,5.1397,5.1397,5.1397,5.1397,5.1397,5.1397,5.1382,5.1304,5.1011,5.0855,5.082,5.0547,5.0278,5.0351,5.0395,5.0278,5.0156,4.9785,4.9414,4.9027,4.8516,4.8083,4.7815,4.7679,4.75,4.7126,4.7461,4.7461,4.7146,4.7363,4.7207,4.6523,4.6484,4.6638,4.6872,4.695,4.7148,4.7519,4.762,4.764,4.764,4.7659,4.7832,4.82,4.8301,4.848,4.8871,4.8949,4.8972,4.8972,4.8972,4.9125,4.941,4.9488,4.9668,4.9961,4.9437,4.9086,4.9011,4.9011,4.8988,4.8991,4.8933,4.8894,4.8894,4.8815,4.8835,4.8805,4.8528,4.8528,4.8505,4.8073,4.7573,4.7148,4.6756,4.6462,4.6081,4.5983,4.5858,4.5616,4.5334,4.5022,4.4507,4.4572,4.4806,4.4659,4.4402,4.4476,4.4623,4.4769,4.4934,4.521,4.5407,4.5572,4.5443,4.515,4.4953,5.1397,5.1397,5.1397,5.1397,5.1397,5.1397,5.1397,5.1397,5.1397,5.1397,5.1397,5.1397,5.1397,5.1397,5.1397,5.1397,5.1397,5.1397,5.1397,5.1397,5.1397,5.1397,5.1397,5.1397,5.1397,5.1358,5.1284,5.1245,5.1226,5.1069,5.103,5.1089,5.1011,5.0894,5.0664,5.0488,5.0254,4.9867,4.9394,4.9098,4.8942,4.8675,4.8522,4.8421,4.848,4.8323,4.793,4.7969,4.7812,4.7346,4.7268,4.7285,4.7441,4.7461,4.7676,4.8027,4.8105,4.8223,4.848,4.8561,4.8753,4.9098,4.9156,4.9375,4.9809,4.9848,4.9848,4.9848,4.9848,4.9887,4.998,5.0019,5.0098,5.0141,5.0004,4.9828,4.975,4.9551,4.9332,4.9316,4.9105,4.8933,4.8929,4.8913,4.8913,4.889,4.8798,4.8682,4.8705,4.8474,4.7918,4.7755,4.7465,4.7247,4.7041,4.6962,4.6834,4.6617,4.6376,4.6146,4.5451,4.4902,4.5191,4.5356,4.4824,4.4714,4.51,4.5393,4.5553,4.5572,4.57,4.5755,4.5498,4.5223,4.51,5.1397,5.1397,5.1397,5.1397,5.1397,5.1397,5.1397,5.1397,5.1397,5.1397,5.1397,5.1397,5.1397,5.1397,5.1397,5.1397,5.1397,5.1397,5.1397,5.1397,5.1397,5.1397,5.1397,5.1397,5.1397,5.1397,5.1397,5.1377,5.1377,5.1397,5.1397,5.1358,5.1397,5.1284,5.1074,5.0879,5.0703,5.0434,5.0039,4.9781,4.9766,4.9574,4.934,4.9261,4.9301,4.9281,4.9086,4.9043,4.8792,4.8304,4.8148,4.8206,4.8379,4.8398,4.8594,4.8984,4.9043,4.9203,4.9359,4.9437,4.9609,4.9961,5.0054,5.0269,5.0586,5.0703,5.0683,5.0473,5.0449,5.0449,5.0469,5.0586,5.0683,5.0742,5.0703,5.0566,5.0278,4.9766,4.9644,4.959,4.9301,4.8991,4.9105,4.9031,4.8933,4.8871,4.8871,4.8848,4.8824,4.8567,4.8312,4.8103,4.7941,4.7685,4.7471,4.7345,4.7372,4.7214,4.6945,4.6793,4.6318,4.5497,4.5485,4.559,4.5187,4.5058,4.5425,4.5663,4.559,4.5645,4.581,4.5828,4.5608,4.5462,4.532,5.1397,5.1397,5.1397,5.1397,5.1397,5.146,5.1519,5.1499,5.1572,5.1616,5.1597,5.1519,5.1538,5.1479,5.146,5.1421,5.1499,5.144,5.1397,5.1397,5.1397,5.1397,5.1397,5.1397,5.1397,5.1397,5.1397,5.1397,5.1397,5.1397,5.1397,5.1397,5.1397,5.1397,5.1284,5.105,5.0874,5.082,5.0566,5.0391,5.0371,5.0312,5.0156,4.9937,5.0019,5.0215,5.0215,5.0199,4.9887,4.9203,4.9109,4.9203,4.9488,4.9547,4.9766,5.0039,5.0141,5.018,5.0317,5.0312,5.043,5.0718,5.082,5.0991,5.1226,5.1265,5.1148,5.0898,5.0835,5.0855,5.0874,5.1167,5.1265,5.1265,5.1323,5.1011,5.0449,4.9922,4.9805,5.0141,4.9515,4.932,4.9336,4.9277,4.9027,4.9125,4.9086,4.9027,4.8949,4.8755,4.8544,4.8335,4.8196,4.808,4.7848,4.7639,4.7732,4.7702,4.7315,4.7093,4.6906,4.6336,4.5985,4.5737,4.5462,4.5462,4.5705,4.5778,4.5663,4.57,4.5865,4.5883,4.5847,4.5755,4.5632,5.1397,5.1397,5.1397,5.1397,5.146,5.1797,5.1933,5.1933,5.2241,5.228,5.2344,5.207,5.1933,5.1938,5.1636,5.1577,5.1855,5.1616,5.1397,5.1397,5.1397,5.1397,5.1397,5.1397,5.1397,5.1397,5.1397,5.1397,5.1397,5.1397,5.1397,5.1397,5.1397,5.1397,5.1382,5.1304,5.1265,5.1245,5.1148,5.1069,5.105,5.105,5.1011,5.0874,5.0762,5.0816,5.0991,5.084,5.0742,5.0683,5.0273,4.9961,5.0058,5.0078,5.0273,5.0547,5.0683,5.0801,5.1055,5.1069,5.1148,5.1206,5.1226,5.1304,5.1358,5.1397,5.1362,5.1265,5.1265,5.1226,5.1245,5.1323,5.1401,5.1397,5.1377,5.1343,5.1109,5.0738,5.0547,5.0508,5.0219,4.9945,5.0019,4.9922,4.9711,4.9473,4.9316,4.9242,4.9125,4.9027,4.8869,4.8738,4.8656,4.8563,4.8358,4.8196,4.8196,4.8103,4.7755,4.7476,4.7289,4.6845,4.6377,4.6072,4.5828,4.5889,4.5907,4.5907,4.5792,4.5847,4.5883,4.5883,4.5883,4.5883,4.5883,5.1397,5.1397,5.1397,5.1397,5.144,5.1655,5.1777,5.1816,5.1987,5.2202,5.2344,5.2192,5.2212,5.2388,5.2148,5.2187,5.2226,5.1933,5.1597,5.1436,5.1397,5.1397,5.1397,5.1397,5.1397,5.1397,5.1397,5.1397,5.1397,5.1397,5.1397,5.1397,5.1397,5.1397,5.1397,5.1397,5.1377,5.1377,5.1397,5.1397,5.1397,5.1397,5.1397,5.1377,5.1187,5.1206,5.1323,5.1206,5.1206,5.1226,5.0991,5.0738,5.0762,5.0738,5.0898,5.1035,5.1089,5.1148,5.1338,5.1397,5.1358,5.1397,5.1397,5.1397,5.1397,5.1397,5.1397,5.1397,5.1377,5.1377,5.1397,5.1377,5.1397,5.1397,5.1397,5.1397,5.1343,5.105,5.0918,5.0898,5.0527,5.0371,5.0351,5.0371,5.0199,4.9844,4.9848,4.9769,4.9769,4.9633,4.9437,4.9282,4.9211,4.9094,4.8879,4.8755,4.8686,4.852,4.8196,4.7964,4.7801,4.7219,4.6611,4.64,4.6194,4.5907,4.5883,4.5883,4.5954,4.5907,4.5907,4.5907,4.5883,4.5883,4.5883,5.1397,5.1397,5.1397,5.1397,5.1397,5.1499,5.1558,5.1538,5.1577,5.2012,5.2129,5.2212,5.2402,5.2598,5.2558,5.2578,5.2402,5.2246,5.1816,5.144,5.1397,5.1397,5.1397,5.1499,5.1577,5.1499,5.144,5.1421,5.1397,5.1397,5.1397,5.1397,5.1397,5.1397,5.1397,5.1397,5.1397,5.1397,5.1397,5.1397,5.1397,5.1397,5.1397,5.1377,5.1382,5.1362,5.1377,5.1338,5.1377,5.1397,5.1397,5.1397,5.1397,5.1397,5.1377,5.1401,5.1362,5.1338,5.1358,5.1397,5.1397,5.1397,5.1397,5.1397,5.1397,5.1397,5.1397,5.1397,5.1397,5.1397,5.1397,5.1397,5.1397,5.1397,5.1397,5.1397,5.1319,5.1069,5.1109,5.1206,5.0933,5.0781,5.0742,5.0723,5.0488,5.0317,5.0297,5.0278,5.0258,5.018,4.9906,4.9746,4.9648,4.9652,4.9457,4.934,4.9281,4.9012,4.8672,4.8501,4.8296,4.7732,4.7196,4.6799,4.6541,4.633,4.6278,4.6442,4.6377,4.6095,4.6025,4.6095,4.6048,4.5907,4.5883,5.1397,5.1397,5.1397,5.1397,5.146,5.1797,5.1914,5.2031,5.2246,5.2519,5.2558,5.2598,5.2592,5.2676,5.2344,5.2051,5.2051,5.209,5.1953,5.1558,5.1455,5.146,5.1597,5.1753,5.1933,5.1855,5.1675,5.1519,5.1436,5.1397,5.1436,5.1397,5.1397,5.1397,5.1397,5.1397,5.1397,5.1397,5.1397,5.1397,5.1397,5.1397,5.1397,5.1397,5.1397,5.1397,5.1397,5.1397,5.1397,5.1397,5.1397,5.1397,5.1397,5.1397,5.1397,5.1397,5.1397,5.1397,5.1397,5.1397,5.1397,5.1397,5.1397,5.1397,5.1397,5.1397,5.1397,5.1397,5.1397,5.1397,5.1397,5.1397,5.1397,5.1397,5.1397,5.1397,5.1358,5.1323,5.1265,5.1319,5.1226,5.1109,5.1069,5.103,5.0918,5.0762,5.0703,5.0586,5.0492,5.0414,5.0238,5.0137,5.0078,5.0102,5.0043,4.9965,4.9867,4.9551,4.9254,4.9079,4.8773,4.83,4.7848,4.7499,4.7219,4.7028,4.7004,4.6981,4.6841,4.6588,4.6471,4.6353,4.6189,4.6025,4.5907,5.2936,5.286,5.1843,5.1397,5.146,5.1616,5.1758,5.1753,5.1948,5.2163,5.2402,5.2598,5.2851,5.2988,5.3125,5.2851,5.2583,5.2642,5.25,5.2124,5.187,5.1889,5.1992,5.2129,5.2226,5.2285,5.2163,5.1928,5.1753,5.1777,5.1616,5.1416,5.1397,5.1397,5.1397,5.1397,5.1397,5.1397,5.1397,5.1397,5.1397,5.1397,5.1397,5.1397,5.1397,5.1397,5.1397,5.1397,5.1397,5.1397,5.1397,5.1397,5.1397,5.1397,5.1397,5.1397,5.1397,5.1397,5.1397,5.1397,5.1397,5.1397,5.1397,5.1397,5.1397,5.1397,5.1397,5.1397,5.1397,5.1397,5.1397,5.1397,5.1397,5.1397,5.1397,5.1397,5.1397,5.1397,5.1397,5.1397,5.1319,5.1284,5.1319,5.1304,5.1265,5.1206,5.1109,5.0933,5.0742,5.0703,5.0625,5.0488,5.043,5.0351,5.0395,5.0395,5.0273,5.0019,4.9726,4.9551,4.9266,4.8792,4.8548,4.8308,4.803,4.7634,4.7401,4.7261,4.7168,4.7032,4.6822,4.6588,4.633,4.6142,4.6025,5.5013,5.485,5.3272,5.2595,5.2595,5.2619,5.2692,5.2595,5.2804,5.2787,5.2658,5.3527,5.3797,5.3443,5.358,5.3594,5.3287,5.3209,5.293,5.2612,5.2363,5.2402,5.2519,5.2558,5.2558,5.2837,5.2963,5.2695,5.2271,5.2095,5.1855,5.1636,5.1499,5.1397,5.1397,5.1397,5.1397,5.1397,5.1397,5.1397,5.1397,5.1397,5.1397,5.1397,5.1397,5.1397,5.1397,5.1397,5.1397,5.1397,5.1397,5.1397,5.1397,5.1397,5.1397,5.1397,5.1397,5.1397,5.1397,5.1397,5.1397,5.1397,5.1397,5.1397,5.1397,5.1397,5.1397,5.1397,5.1397,5.1397,5.1397,5.1397,5.1397,5.1397,5.1397,5.1397,5.1397,5.1397,5.1397,5.1397,5.1397,5.1397,5.1397,5.1377,5.1343,5.1343,5.1245,5.1265,5.1109,5.1167,5.1089,5.0894,5.0781,5.0625,5.0625,5.0683,5.0566,5.0391,5.0078,4.9844,4.959,4.9262,4.9063,4.8815,4.8447,4.8011,4.7755,4.7658,4.7708,4.7592,4.7173,4.6892,4.6775,4.6494,4.6236,5.7056,5.7033,5.6753,5.6706,5.6543,5.6473,5.659,5.6496,5.6356,5.565,5.4365,5.653,5.5929,5.4066,5.3572,5.3354,5.3119,5.3249,5.3194,5.2921,5.2715,5.2695,5.2787,5.313,5.315,5.3326,5.3607,5.3334,5.2812,5.2407,5.2114,5.1933,5.1616,5.1397,5.1397,5.1397,5.1397,5.1397,5.1397,5.1397,5.1397,5.1397,5.1397,5.1416,5.1397,5.1416,5.1479,5.1499,5.146,5.1421,5.144,5.144,5.1397,5.1397,5.1397,5.1397,5.1397,5.1397,5.1397,5.1397,5.1397,5.1397,5.1397,5.1397,5.1397,5.1397,5.1397,5.1397,5.1397,5.1397,5.1397,5.1397,5.1397,5.1397,5.1397,5.1397,5.1397,5.1397,5.1397,5.1397,5.1397,5.1397,5.1397,5.1397,5.1377,5.1377,5.1397,5.1397,5.1397,5.1397,5.1397,5.1187,5.1089,5.0952,5.0894,5.0952,5.0898,5.0742,5.0473,5.0137,4.9844,4.959,4.9375,4.9102,4.8757,4.8695,4.8676,4.861,4.8459,4.815,4.7732,4.7499,4.7378,4.7004,4.6564,6.0365,5.9018,5.7868,5.7405,5.7405,5.7405,5.7405,5.7405,5.7405,5.6939,5.6504,5.7914,5.7983,5.6818,5.6105,5.5411,5.5224,5.5064,5.4424,5.3466,5.3223,5.3203,5.3373,5.3418,5.3463,5.373,5.3861,5.3842,5.3359,5.2994,5.2661,5.2109,5.1894,5.1636,5.1479,5.1397,5.1397,5.1397,5.1397,5.1397,5.1397,5.1397,5.1519,5.1758,5.1562,5.1577,5.1758,5.1797,5.1616,5.1597,5.1772,5.185,5.1616,5.1597,5.1714,5.1421,5.1675,5.1655,5.1436,5.1416,5.1436,5.1421,5.1421,5.1397,5.1397,5.1397,5.1397,5.1397,5.1397,5.1397,5.1397,5.1397,5.1397,5.1397,5.1397,5.1397,5.1397,5.1397,5.1397,5.1397,5.1397,5.1397,5.1397,5.1397,5.1397,5.1397,5.1397,5.1397,5.1397,5.1397,5.1397,5.1358,5.1319,5.128,5.1265,5.1265,5.1187,5.1055,5.0781,5.0449,5.0078,4.9824,4.9668,4.9629,4.9492,4.9477,4.9578,4.9192,4.8776,4.8513,4.8312,4.8057,4.7821,4.7448,4.7075,6.3,6.1205,5.968,5.8993,5.8881,5.8858,5.895,5.8927,5.9019,5.8675,5.8272,5.8718,5.9588,6.0312,5.8873,5.758,5.7218,5.7165,5.5815,5.4477,5.3769,5.373,5.3764,5.3711,5.373,5.3972,5.3978,5.3939,5.3881,5.3633,5.313,5.2427,5.2148,5.1933,5.1636,5.1479,5.1397,5.1421,5.1558,5.1538,5.144,5.1397,5.1655,5.1836,5.1836,5.1797,5.2192,5.2246,5.2031,5.1987,5.2285,5.2324,5.1968,5.209,5.2129,5.1948,5.2129,5.2129,5.1928,5.185,5.1733,5.1694,5.1558,5.1577,5.1397,5.1397,5.1397,5.1397,5.1397,5.1397,5.1397,5.1397,5.1397,5.1397,5.1397,5.1397,5.1397,5.1397,5.1397,5.1397,5.1397,5.1397,5.1397,5.1397,5.1397,5.1397,5.1397,5.1397,5.1397,5.1397,5.1397,5.1397,5.1397,5.1377,5.1377,5.1401,5.1382,5.1226,5.0976,5.0683,5.0254,5.0117,5.0039,5.0039,5.0078,5.0117,5.0102,4.9555,4.9046,4.89,4.8738,4.8486,4.8196,4.7844,4.7518,6.4002,6.3843,6.3617,6.3153,6.2702,6.2901,6.279,6.2365,6.261,6.1674,6.041,5.9514,6.0684,6.2137,6.1132,5.9401,5.8059,5.7364,5.6187,5.495,5.4004,5.4118,5.4061,5.3939,5.392,5.3998,5.3972,5.3972,5.3998,5.3939,5.3633,5.3287,5.2642,5.2226,5.1973,5.1772,5.1616,5.1655,5.1836,5.1816,5.1597,5.1538,5.1714,5.2051,5.2129,5.2226,5.2617,5.2676,5.2578,5.248,5.2754,5.2734,5.25,5.2598,5.2578,5.248,5.2578,5.2598,5.2539,5.2461,5.2534,5.2456,5.2266,5.1894,5.1577,5.146,5.1397,5.1416,5.1479,5.146,5.144,5.1397,5.1519,5.1397,5.1397,5.1397,5.1397,5.1397,5.1397,5.1397,5.1397,5.1397,5.1397,5.1397,5.1397,5.1397,5.1397,5.1397,5.1397,5.1397,5.1397,5.1397,5.1397,5.1377,5.1401,5.1362,5.1226,5.1069,5.0859,5.0605,5.0312,5.0293,5.0351,5.0434,5.043,5.0547,5.0527,4.9984,4.9555,4.9394,4.9184,4.8873,4.8625,4.8312,4.7941,6.4405,6.4141,6.4453,6.4263,6.378,6.3422,6.3277,6.3277,6.3301,6.3565,6.3468,6.1808,6.2726,6.4643,6.3481,6.2133,6.1687,6.124,5.8885,5.6803,5.5865,5.5153,5.4615,5.4049,5.3998,5.3972,5.3972,5.3972,5.3972,5.3972,5.3939,5.3568,5.3105,5.2754,5.248,5.2285,5.2182,5.2104,5.2148,5.207,5.2226,5.1973,5.2168,5.2837,5.2539,5.2715,5.3072,5.313,5.2949,5.2905,5.3217,5.3119,5.293,5.3008,5.2988,5.2871,5.2988,5.313,5.3072,5.291,5.2715,5.2695,5.2519,5.2285,5.1894,5.1836,5.1636,5.1597,5.1675,5.1753,5.146,5.1636,5.1777,5.1519,5.1416,5.1436,5.1397,5.1397,5.1397,5.1397,5.1397,5.1397,5.1397,5.1397,5.1397,5.1397,5.1397,5.1397,5.1397,5.1397,5.1397,5.1397,5.1397,5.1397,5.1401,5.1245,5.1113,5.0918,5.0742,5.0586,5.043,5.0586,5.0664,5.0703,5.0762,5.082,5.0703,5.0332,5.0019,4.9766,4.9492,4.9215,4.8946,4.878,4.8563,6.4852,6.445,6.5227,6.4989,6.4091,6.3518,6.3516,6.3734,6.3804,6.4574,6.5803,6.4199,6.4999,6.6724,6.6014,6.4526,6.4282,6.3574,6.1352,5.9263,5.7456,5.6423,5.5229,5.4335,5.3972,5.3972,5.3972,5.3972,5.3972,5.3972,5.3978,5.3881,5.3711,5.332,5.3033,5.2935,5.2851,5.2656,5.2637,5.2486,5.2656,5.2461,5.2583,5.3209,5.3052,5.3189,5.3463,5.3555,5.3437,5.3412,5.3529,5.3607,5.3457,5.332,5.3359,5.332,5.334,5.356,5.3482,5.334,5.3047,5.2988,5.293,5.2676,5.2402,5.2266,5.2129,5.1973,5.2109,5.2129,5.1772,5.209,5.207,5.1855,5.1714,5.1694,5.1479,5.1397,5.1397,5.1397,5.1397,5.1397,5.1397,5.1397,5.1397,5.1397,5.1397,5.1397,5.1397,5.1397,5.1397,5.1397,5.1397,5.1397,5.1377,5.1245,5.1069,5.0781,5.0644,5.0664,5.0625,5.0762,5.084,5.0801,5.0879,5.103,5.0933,5.0683,5.0371,5.0058,4.9805,4.957,4.959,4.9461,4.9406,6.5363,6.5093,6.6416,6.5892,6.4303,6.3588,6.3992,6.4826,6.4948,6.5599,6.668,6.6607,6.7084,6.792,6.744,6.6667,6.5778,6.5189,6.3514,6.1191,5.9091,5.7803,5.6347,5.5204,5.3972,5.3972,5.3972,5.3972,5.3972,5.3972,5.3972,5.3972,5.3881,5.3705,5.3404,5.3365,5.3125,5.2851,5.317,5.3033,5.293,5.2793,5.3033,5.3345,5.3443,5.3599,5.3789,5.3861,5.3783,5.3822,5.3842,5.3855,5.3842,5.3822,5.3842,5.3861,5.3881,5.3939,5.3939,5.3939,5.3711,5.3398,5.3359,5.317,5.2812,5.2695,5.2617,5.2422,5.2617,5.2656,5.2612,5.2637,5.2422,5.2226,5.2109,5.2012,5.1792,5.1558,5.1597,5.1558,5.1436,5.1397,5.1397,5.1397,5.1397,5.1397,5.1397,5.1397,5.1397,5.1397,5.1397,5.1343,5.1323,5.1226,5.1206,5.1182,5.105,5.0723,5.0508,5.0449,5.0644,5.0859,5.0898,5.0859,5.082,5.0859,5.0972,5.1069,5.0816,5.0542,5.0234,5.0063,5.0102,5.0043,4.9906,6.5405,6.498,6.5851,6.6012,6.5718,6.5864,6.5903,6.5927,6.6341,6.7244,6.8219,6.8064,6.8294,6.8686,6.8333,6.7735,6.7283,6.7037,6.5609,6.3514,6.1045,5.9116,5.7456,5.5537,5.41,5.3998,5.3998,5.4023,5.3972,5.3972,5.3972,5.3972,5.3998,5.392,5.3848,5.3808,5.3666,5.3529,5.3496,5.3424,5.349,5.334,5.334,5.375,5.3769,5.3867,5.3998,5.3972,5.3972,5.3972,5.3972,5.3972,5.3972,5.3972,5.3972,5.3972,5.3972,5.3972,5.3972,5.3978,5.3965,5.3828,5.373,5.3555,5.3248,5.3189,5.3008,5.2891,5.3047,5.2988,5.2773,5.3033,5.2935,5.2617,5.25,5.248,5.2324,5.2051,5.1919,5.1816,5.1694,5.1499,5.1397,5.1397,5.1397,5.1397,5.1397,5.1397,5.1397,5.1397,5.1377,5.1284,5.1187,5.105,5.0996,5.0933,5.0738,5.0371,5.0195,5.0117,5.0367,5.0781,5.082,5.0723,5.0664,5.0625,5.0894,5.1148,5.1265,5.1089,5.0703,5.0391,5.0356,5.0278,5.0121,6.6001,6.5791,6.6619,6.7068,6.7177,6.6858,6.6705,6.7035,6.7722,6.8757,6.9567,6.929,6.934,6.9569,6.9211,6.8605,6.8511,6.842,6.7993,6.5819,6.2872,6.0949,5.8821,5.6147,5.4767,5.4355,5.4253,5.4227,5.3998,5.3972,5.3972,5.3972,5.3972,5.3978,5.3978,5.3959,5.3959,5.3842,5.3769,5.373,5.3808,5.3789,5.3711,5.39,5.3978,5.3972,5.3972,5.3972,5.3972,5.3972,5.3972,5.3972,5.3972,5.3972,5.3972,5.3972,5.3972,5.3972,5.3972,5.3972,5.3978,5.3959,5.3972,5.3861,5.3678,5.3619,5.3476,5.3398,5.3457,5.3379,5.3262,5.3541,5.3359,5.3022,5.293,5.291,5.2676,5.2383,5.2212,5.209,5.1914,5.1675,5.1421,5.1397,5.1397,5.1397,5.1397,5.1397,5.1397,5.1397,5.1377,5.1304,5.1167,5.105,5.0879,5.0644,5.0391,5.0019,4.9941,4.9918,5.0137,5.0508,5.0547,5.0625,5.0644,5.0742,5.0991,5.1187,5.1304,5.1284,5.103,5.0801,5.0625,5.0547,5.0488,6.7144,6.7413,6.8749,6.8974,6.8369,6.6875,6.6907,6.8186,6.9194,6.9957,7.0524,7.0969,7.0793,7.0366,7.023,6.9798,6.9334,6.9277,6.8885,6.7301,6.4059,6.2514,6.0269,5.7501,5.5578,5.4914,5.4711,5.4431,5.4074,5.3998,5.3998,5.3972,5.3972,5.3972,5.3972,5.3972,5.3972,5.3959,5.3939,5.392,5.3939,5.3959,5.392,5.3972,5.3972,5.3972,5.3972,5.3972,5.3972,5.3972,5.3972,5.3972,5.3972,5.3972,5.3972,5.3972,5.3972,5.3972,5.3972,5.3972,5.3972,5.3972,5.3972,5.3998,5.3959,5.3906,5.3783,5.3764,5.3822,5.3881,5.3939,5.3842,5.3789,5.3574,5.3424,5.3248,5.2969,5.2734,5.2583,5.2383,5.2148,5.1894,5.1499,5.1397,5.1397,5.1397,5.1397,5.1397,5.1397,5.1397,5.1377,5.1358,5.1245,5.1109,5.0855,5.0547,5.0156,4.9844,4.9922,4.9961,5.0137,5.0278,5.0332,5.0449,5.0644,5.082,5.0972,5.1167,5.1338,5.1284,5.1187,5.1167,5.0991,5.1089,5.1069,6.754,6.7302,6.8069,6.8519,6.8654,6.8423,6.9279,7.0691,7.0766,7.1142,7.2016,7.1806,7.1415,7.0957,7.0499,7.0026,6.963,6.9403,6.9318,6.7531,6.4672,6.3064,6.0803,5.8076,5.6062,5.5299,5.5046,5.4787,5.4507,5.4253,5.3998,5.3972,5.3972,5.3972,5.3972,5.3972,5.3972,5.3972,5.3972,5.3972,5.3972,5.3972,5.3972,5.3972,5.3972,5.3972,5.3972,5.3972,5.3972,5.3972,5.3972,5.3972,5.3972,5.3972,5.3972,5.3972,5.3972,5.3972,5.3972,5.3972,5.3972,5.3972,5.3972,5.3972,5.3972,5.3972,5.3972,5.3972,5.3972,5.3972,5.3972,5.3959,5.392,5.3848,5.3711,5.3613,5.3354,5.3223,5.3027,5.2701,5.2441,5.1914,5.1538,5.1397,5.1397,5.1397,5.1397,5.1397,5.1397,5.1397,5.1377,5.1358,5.1265,5.1109,5.084,5.0527,5.0078,4.9703,4.9863,5.0,5.0156,5.0234,5.0195,5.0351,5.0664,5.0801,5.0879,5.1109,5.1377,5.1397,5.1319,5.1358,5.1397,5.1397,5.1397,6.817,6.8118,6.8393,6.8701,6.8999,6.9293,7.0257,7.1359,7.1209,7.151,7.2037,7.2141,7.1948,7.1484,7.1118,7.0592,6.9859,6.9817,6.9657,6.8288,6.493,6.3491,6.1287,5.8645,5.6564,5.588,5.5552,5.5274,5.4818,5.4304,5.3972,5.3972,5.3972,5.3972,5.3972,5.3972,5.3972,5.3972,5.3972,5.3972,5.3972,5.3972,5.3972,5.3972,5.3972,5.3972,5.3972,5.3972,5.3972,5.3972,5.3972,5.3972,5.3972,5.3972,5.3972,5.3972,5.3972,5.3972,5.3972,5.3972,5.3972,5.3972,5.3972,5.3972,5.3972,5.3972,5.3972,5.3972,5.3972,5.3972,5.3972,5.3972,5.3972,5.3978,5.3978,5.3978,5.3861,5.3724,5.3418,5.3027,5.2539,5.1953,5.1616,5.1499,5.1397,5.1397,5.1397,5.1397,5.1397,5.1397,5.1397,5.1377,5.1245,5.1069,5.082,5.0625,5.0312,5.0019,4.9961,5.0078,5.0215,5.0273,5.0312,5.0488,5.0762,5.0898,5.1011,5.1187,5.1397,5.1397,5.1397,5.1397,5.1397,5.1397,5.1397,6.8929,6.9358,6.9406,6.9338,6.9406,6.9406,6.9981,7.0956,7.1031,7.1207,7.151,7.229,7.2415,7.197,7.1713,7.1158,7.0514,7.0229,6.9805,6.9225,6.5772,6.3822,6.213,5.9527,5.7518,5.6739,5.6233,5.5704,5.4945,5.4482,5.4202,5.4049,5.3998,5.3998,5.3972,5.3972,5.3972,5.3972,5.3972,5.3972,5.3972,5.3972,5.3972,5.3972,5.3972,5.3972,5.3972,5.3972,5.3972,5.3972,5.3972,5.3972,5.3972,5.3972,5.3972,5.3972,5.3972,5.3972,5.3972,5.3972,5.3972,5.3972,5.3972,5.3972,5.3972,5.3972,5.3972,5.3972,5.3972,5.3972,5.3972,5.3972,5.3972,5.3972,5.3972,5.3972,5.3939,5.3803,5.3613,5.3203,5.2676,5.2129,5.1738,5.1597,5.1397,5.1397,5.1397,5.1397,5.1397,5.1397,5.1397,5.1397,5.1304,5.1167,5.105,5.0879,5.0664,5.043,5.0273,5.0293,5.0508,5.0508,5.043,5.0664,5.0898,5.1069,5.1245,5.1338,5.1397,5.1397,5.1397,5.1397,5.1397,5.1397,5.1397,6.928,6.9406,6.9406,6.9406,6.9406,6.9406,6.9556,6.9905,7.0757,7.151,7.224,7.2541,7.2641,7.2441,7.2064,7.1535,7.0981,7.0503,6.9953,6.8825,6.6377,6.4153,6.3038,6.0288,5.8465,5.7314,5.6584,5.6031,5.5375,5.4869,5.4584,5.4507,5.4304,5.4074,5.4074,5.4049,5.3998,5.4074,5.3998,5.3998,5.3972,5.3972,5.3972,5.3972,5.3972,5.3972,5.3972,5.3972,5.3972,5.3972,5.3972,5.3972,5.3972,5.3972,5.3972,5.3972,5.3972,5.3972,5.3972,5.3972,5.3972,5.3972,5.3972,5.3972,5.3972,5.3972,5.3972,5.3972,5.3972,5.3972,5.3972,5.3972,5.3972,5.3972,5.3972,5.3972,5.3972,5.3861,5.375,5.3301,5.2812,5.2402,5.2012,5.1699,5.1479,5.1397,5.1397,5.1397,5.1397,5.1397,5.1397,5.1397,5.1397,5.1304,5.1206,5.1128,5.0957,5.082,5.0683,5.0742,5.0796,5.0835,5.0874,5.0874,5.1011,5.1206,5.1323,5.1358,5.1397,5.1397,5.1397,5.1397,5.1397,5.1397,5.1397,6.9406,6.9406,6.9406,6.9406,6.9406,6.9406,6.9554,6.9903,7.0478,7.1357,7.2339,7.2566,7.2692,7.2692,7.2365,7.1738,7.1207,7.0805,7.0154,6.8946,6.6817,6.4554,6.2632,6.0653,5.8588,5.7165,5.6639,5.6132,5.5704,5.5325,5.5046,5.466,5.4304,5.4329,5.4304,5.4176,5.4125,5.4355,5.4125,5.3998,5.3972,5.3972,5.3972,5.3972,5.3972,5.3972,5.3972,5.3972,5.3972,5.3972,5.3972,5.3972,5.3972,5.3972,5.3972,5.3972,5.3972,5.3972,5.3972,5.3972,5.3972,5.3972,5.3972,5.3972,5.3972,5.3972,5.3972,5.3972,5.3972,5.3972,5.3972,5.3972,5.3972,5.3972,5.3972,5.3972,5.3972,5.3939,5.373,5.3404,5.3052,5.2857,5.2447,5.2012,5.1811,5.1675,5.1636,5.146,5.144,5.1397,5.1397,5.1397,5.1397,5.1397,5.1319,5.1304,5.1269,5.1128,5.1011,5.1069,5.1128,5.1265,5.1343,5.1226,5.1187,5.128,5.1377,5.1397,5.1397,5.1397,5.1397,5.1397,5.1397,5.1397,5.1397,6.9331,6.9406,6.9406,6.9406,6.9406,6.9406,6.9679,7.0102,7.03,7.088,7.1786,7.234,7.2591,7.2692,7.2666,7.1939,7.141,7.1058,7.0357,6.891,6.6262,6.4695,6.268,6.0263,5.8761,5.7543,5.681,5.6409,5.6006,5.5729,5.5325,5.4558,5.4584,5.4843,5.4666,5.4457,5.4304,5.4355,5.4202,5.4023,5.3972,5.3972,5.3972,5.3972,5.3972,5.3972,5.3972,5.3972,5.3972,5.3972,5.3972,5.3972,5.3972,5.3972,5.3972,5.3972,5.3972,5.3972,5.3972,5.3972,5.3972,5.3972,5.3972,5.3972,5.3972,5.3972,5.3972,5.3972,5.3972,5.3972,5.3972,5.3972,5.3972,5.3972,5.3972,5.3972,5.3972,5.3972,5.3769,5.3482,5.3326,5.317,5.2876,5.2447,5.2187,5.207,5.1894,5.168,5.1499,5.144,5.1397,5.1397,5.1397,5.1397,5.1397,5.1401,5.1362,5.1343,5.1245,5.1319,5.1377,5.1377,5.1401,5.1377,5.1377,5.1397,5.1397,5.1397,5.1397,5.1397,5.1397,5.1397,5.1397,5.1397,5.1397,6.9027,6.9406,6.9406,6.9406,6.9406,6.9406,6.9456,6.9654,7.0102,7.0679,7.1234,7.1811,7.224,7.2692,7.2717,7.224,7.1686,7.1309,7.078,6.9674,6.7796,6.5796,6.342,6.0849,5.9775,5.8316,5.706,5.6985,5.6459,5.6258,5.6132,5.5754,5.5375,5.5249,5.4843,5.466,5.4584,5.4507,5.4278,5.4074,5.3998,5.3972,5.3972,5.3972,5.3972,5.3972,5.3972,5.3972,5.3972,5.3972,5.3972,5.3972,5.3972,5.3972,5.3972,5.3972,5.3972,5.3972,5.3972,5.3972,5.3972,5.3972,5.3972,5.3972,5.3972,5.3972,5.3972,5.3972,5.3972,5.3972,5.3972,5.3972,5.3972,5.3972,5.3972,5.3972,5.3972,5.3972,5.39,5.3711,5.3555,5.3463,5.3306,5.2955,5.2637,5.2461,5.2226,5.2012,5.1914,5.1694,5.1436,5.1436,5.1455,5.1397,5.1397,5.1397,5.1401,5.1377,5.1397,5.1397,5.1397,5.1397,5.1397,5.1397,5.1397,5.1397,5.1397,5.1397,5.1397,5.1397,5.1397,5.1397,5.1397,5.1397,5.1397]}]]